[[{"header":{"parameterUnit":"m.s-1","parameterCategory":1,"la1":31.0,"la2":29.5877,"lo1":-88.7671,"lo2":-86.6584,"dy":0.0162,"dx":0.0185,"nx":115,"ny":88,"refTime":"2026-03-23T12:00:00:Z","depth":0,"parameterNumber":2,"parameterNumberName":"U-component_of_WINDS"},"data":[0.0,0.0,0.0,0.0,0.0,0.0,0.0,0.0,0.0,0.0,0.0,0.0,0.0,0.0,0.0,0.0,0.0,0.0,0.0,0.0,0.0,0.0,0.0,0.0,0.0,0.0,0.0,0.0,0.0,0.0,0.0,0.0,0.0,0.0,0.0,0.0,0.0,0.0,0.0,0.0,0.0,0.0,0.0,0.0,0.0,0.0,0.0,0.0,0.0,0.0,0.0,0.0,0.0,0.0,0.0,0.0,0.0,0.0,0.0,0.0,0.0,0.0,0.0,0.0,0.0,0.0,0.0,0.0,0.0,0.0,0.0,0.0,0.0,0.0,0.0,0.0,0.0,0.0,0.0,0.0,0.0,0.0,0.0,0.0,0.0,0.0,0.0,0.0,0.0,0.0,0.0,0.0,0.0,0.0,0.0,0.0,0.0,0.0,0.0,0.0,0.0,0.0,0.0,0.0,0.0,0.0,0.0,0.0,0.0,0.0,0.0,0.0,0.0,0.0,0.0,0.0,0.0,0.0,0.0,0.0,0.0,0.0,0.0,0.0,0.0,0.0,0.0,0.0,0.0,0.0,0.0,0.0,0.0,0.0,0.0,0.0,0.0,0.0,0.0,0.0,0.0,0.0,0.0,0.0,0.0,0.0,0.0,0.0,0.0,0.0,0.0,0.0,0.0,0.0,0.0,0.0,0.0,0.0,0.0,0.0,0.0,0.0,0.0,0.0,0.0,0.0,0.0,0.0,0.0,0.0,0.0,0.0,0.0,0.0,0.0,0.0,0.0,0.0,0.0,0.0,0.0,0.0,0.0,0.0,0.0,0.0,0.0,0.0,0.0,0.0,0.0,0.0,0.0,0.0,0.0,0.0,0.0,0.0,0.0,0.0,0.0,0.0,0.0,0.0,0.0,0.0,0.0,0.0,0.0,0.0,0.0,0.0,0.0,0.0,0.0,0.0,0.0,0.0,0.0,0.0,0.0,0.0,0.0,0.0,0.0,0.0,0.0,0.0,0.0,0.0,0.0,0.0,0.0,0.0,0.0,0.0,0.0,0.0,0.0,0.0,0.0,0.0,0.0,0.0,0.0,0.0,0.0,0.0,0.0,0.0,0.0,0.0,0.0,0.0,0.0,0.0,0.0,0.0,0.0,0.0,0.0,0.0,0.0,0.0,0.0,0.0,0.0,0.0,0.0,0.0,0.0,0.0,0.0,0.0,0.0,0.0,0.0,0.0,0.0,0.0,0.0,0.0,0.0,0.0,0.0,0.0,0.0,0.0,0.0,0.0,0.0,0.0,0.0,0.0,0.0,0.0,0.0,0.0,0.0,0.0,0.0,0.0,0.0,0.0,0.0,0.0,0.0,0.0,0.0,0.0,0.0,0.0,0.0,0.0,0.0,0.0,0.0,0.0,0.0,0.0,0.0,0.0,0.0,0.0,0.0,0.0,0.0,0.0,0.0,0.0,0.0,0.0,0.0,0.0,0.0,0.0,0.0,0.0,0.0,0.0,0.0,0.0,0.0,0.0,0.0,0.0,0.0,0.0,0.0,0.0,0.0,0.0,0.0,0.0,0.0,0.0,0.0,0.0,0.0,0.0,0.0,0.0,0.0,0.0,0.0,0.0,0.0,0.0,0.0,0.0,0.0,0.0,0.0,0.0,0.0,0.0,0.0,0.0,0.0,0.0,0.0,0.0,0.0,0.0,0.0,0.0,0.0,0.0,0.0,0.0,0.0,0.0,0.0,0.0,0.0,0.0,0.0,0.0,0.0,0.0,0.0,0.0,0.0,0.0,0.0,0.0,0.0,0.0,0.0,0.0,0.0,0.0,0.0,0.0,0.0,0.0,0.0,0.0,0.0,0.0,0.0,0.0,0.0,0.0,0.0,0.0,0.0,0.0,0.0,0.0,0.0,0.0,0.0,0.0,0.0,0.0,0.0,0.0,0.0,0.0,0.0,0.0,0.0,0.0,0.0,0.0,0.0,0.0,0.0,0.0,0.0,0.0,0.0,0.0,0.0,0.0,0.0,0.0,0.0,0.0,0.0,0.0,0.0,0.0,0.0,0.0,0.0,0.0,0.0,0.0,0.0,0.0,0.0,0.0,0.0,0.0,0.0,0.0,0.0,0.0,0.0,0.0,0.0,0.0,0.0,0.0,0.0,0.0,0.0,0.0,0.0,0.0,0.0,0.0,0.0,0.0,0.0,0.0,0.0,0.0,0.0,0.0,0.0,0.0,0.0,0.0,0.0,0.0,0.0,0.0,0.0,0.0,0.0,0.0,0.0,0.0,0.0,0.0,0.0,0.0,0.0,0.0,0.0,0.0,0.0,0.0,0.0,0.0,0.0,0.0,0.0,0.0,0.0,0.0,0.0,0.0,0.0,0.0,0.0,0.0,0.0,0.0,0.0,0.0,0.0,0.0,0.0,0.0,0.0,0.0,0.0,0.0,0.0,0.0,0.0,0.0,0.0,0.0,0.0,0.0,0.0,0.0,0.0,0.0,0.0,0.0,0.0,0.0,0.0,0.0,0.0,0.0,0.0,0.0,0.0,0.0,0.0,0.0,0.0,0.0,0.0,0.0,0.0,0.0,0.0,0.0,0.0,0.0,0.0,0.0,0.0,0.0,0.0,0.0,0.0,0.0,0.0,0.0,0.0,0.0,0.0,0.0,0.0,0.0,0.0,0.0,0.0,0.0,0.0,0.0,0.0,0.0,0.0,0.0,0.0,0.0,0.0,0.0,0.0,0.0,0.0,0.0,0.0,0.0,0.0,0.0,0.0,0.0,0.0,0.0,0.0,0.0,0.0,0.0,0.0,0.0,0.0,0.0,0.0,0.0,0.0,0.0,0.0,0.0,0.0,0.0,0.0,0.0,0.0,0.0,0.0,0.0,0.0,0.0,0.0,0.0,0.0,0.0,0.0,0.0,0.0,0.0,0.0,0.0,0.0,0.0,0.0,0.0,0.0,0.0,0.0,0.0,0.0,0.0,0.0,0.0,0.0,0.0,0.0,0.0,0.0,0.0,0.0,0.0,0.0,0.0,0.0,0.0,0.0,0.0,0.0,0.0,0.0,0.0,0.0,0.0,0.0,0.0,0.0,0.0,0.0,0.0,0.0,0.0,0.0,0.0,0.0,0.0,0.0,0.0,0.0,0.0,0.0,0.0,0.0,0.0,0.0,0.0,0.0,0.0,0.0,0.0,0.0,0.0,0.0,0.0,0.0,0.0,0.0,0.0,0.0,0.0,0.0,0.0,0.0,0.0,0.0,0.0,0.0,0.0,0.0,0.0,0.0,0.0,0.0,0.0,0.0,0.0,0.0,0.0,0.0,0.0,0.0,0.0,0.0,0.0,0.0,0.0,0.0,0.0,0.0,0.0,0.0,0.0,0.0,0.0,0.0,0.0,0.0,0.0,0.0,0.0,0.0,0.0,0.0,0.0,0.0,0.0,0.0,0.0,0.0,0.0,0.0,0.0,0.0,0.0,0.0,0.0,0.0,0.0,0.0,0.0,0.0,0.0,0.0,0.0,0.0,0.0,0.0,0.0,0.0,0.0,0.0,0.0,0.0,0.0,0.0,0.0,0.0,0.0,0.0,0.0,0.0,0.0,0.0,0.0,0.0,0.0,0.0,0.0,0.0,0.0,0.0,0.0,0.0,0.0,0.0,0.0,0.0,0.0,0.0,0.0,0.0,0.0,0.0,0.0,0.0,0.0,0.0,0.0,0.0,0.0,0.0,0.0,0.0,0.0,0.0,0.0,0.0,0.0,0.0,0.0,0.0,0.0,0.0,0.0,0.0,0.0,0.0,0.0,0.0,0.0,0.0,0.0,0.0,0.0,0.0,0.0,0.0,0.0,0.0,0.0,0.0,0.0,0.0,0.0,0.0,0.0,0.0,0.0,0.0,0.0,0.0,0.0,0.0,0.0,0.0,0.0,0.0,0.0,0.0,0.0,0.0,0.0,0.0,0.0,0.0,0.0,0.0,0.0,0.0,0.0,0.0,0.0,0.0,0.0,0.0,0.0,0.0,0.0,0.0,0.0,0.0,0.0,0.0,0.0,0.0,0.0,0.0,0.0,0.0,0.0,0.0,0.0,0.0,0.0,0.0,0.0,0.0,0.0,0.0,0.0,0.0,0.0,0.0,0.0,0.0,0.0,0.0,0.0,0.0,0.0,0.0,0.0,0.0,0.0,0.0,0.0,0.0,0.0,0.0,0.0,0.0,0.0,0.0,0.0,0.0,0.0,0.0,0.0,0.0,0.0,0.0,0.0,0.0,0.0,-3.8104,0.0,0.0,0.0,0.0,0.0,0.0,0.0,0.0,0.0,0.0,0.0,0.0,0.0,0.0,0.0,0.0,0.0,0.0,0.0,0.0,0.0,0.0,0.0,0.0,0.0,0.0,0.0,0.0,0.0,0.0,0.0,0.0,0.0,0.0,0.0,0.0,0.0,0.0,0.0,0.0,0.0,0.0,0.0,0.0,0.0,0.0,0.0,0.0,0.0,0.0,0.0,0.0,0.0,0.0,0.0,0.0,0.0,0.0,0.0,0.0,0.0,0.0,0.0,0.0,0.0,0.0,0.0,0.0,0.0,0.0,0.0,0.0,0.0,0.0,0.0,0.0,0.0,0.0,0.0,0.0,0.0,0.0,0.0,0.0,0.0,0.0,0.0,0.0,0.0,0.0,0.0,0.0,0.0,0.0,0.0,0.0,0.0,0.0,0.0,0.0,0.0,0.0,0.0,0.0,0.0,0.0,0.0,0.0,0.0,0.0,-4.1592,-4.0569,-4.1335,-4.0596,-3.8123,0.0,0.0,0.0,0.0,0.0,0.0,0.0,0.0,0.0,0.0,0.0,0.0,0.0,0.0,0.0,0.0,0.0,0.0,0.0,0.0,0.0,0.0,0.0,0.0,0.0,0.0,0.0,0.0,0.0,0.0,0.0,0.0,0.0,0.0,0.0,0.0,0.0,0.0,0.0,0.0,0.0,0.0,0.0,0.0,0.0,0.0,0.0,0.0,0.0,0.0,0.0,0.0,0.0,0.0,0.0,0.0,0.0,0.0,0.0,0.0,0.0,0.0,0.0,0.0,0.0,0.0,0.0,0.0,0.0,0.0,0.0,0.0,0.0,0.0,0.0,0.0,0.0,0.0,0.0,0.0,0.0,0.0,0.0,0.0,0.0,0.0,0.0,0.0,0.0,0.0,0.0,0.0,0.0,0.0,0.0,0.0,0.0,0.0,0.0,0.0,0.0,0.0,0.0,0.0,0.0,0.0,0.0,0.0,0.0,0.0,0.0,0.0,-4.1643,-4.0816,-3.8096,0.0,0.0,0.0,0.0,0.0,0.0,0.0,0.0,0.0,0.0,0.0,0.0,0.0,0.0,0.0,0.0,0.0,0.0,0.0,0.0,0.0,0.0,0.0,0.0,0.0,0.0,0.0,0.0,0.0,0.0,0.0,0.0,0.0,0.0,0.0,0.0,0.0,0.0,0.0,0.0,0.0,0.0,0.0,0.0,0.0,0.0,0.0,0.0,0.0,0.0,0.0,0.0,0.0,0.0,0.0,0.0,0.0,0.0,0.0,0.0,0.0,0.0,0.0,0.0,0.0,0.0,0.0,0.0,0.0,0.0,0.0,0.0,0.0,0.0,0.0,0.0,0.0,0.0,0.0,0.0,0.0,0.0,0.0,0.0,0.0,0.0,0.0,0.0,0.0,0.0,0.0,0.0,0.0,0.0,0.0,0.0,0.0,0.0,0.0,0.0,0.0,0.0,0.0,0.0,0.0,0.0,0.0,0.0,0.0,0.0,-4.1974,-4.1708,-4.2489,0.0,-3.8212,0.0,0.0,0.0,0.0,0.0,0.0,0.0,0.0,0.0,0.0,0.0,0.0,0.0,0.0,0.0,0.0,0.0,0.0,0.0,0.0,0.0,0.0,0.0,0.0,0.0,0.0,0.0,0.0,0.0,0.0,0.0,0.0,0.0,0.0,0.0,0.0,0.0,0.0,0.0,0.0,0.0,0.0,0.0,0.0,0.0,0.0,0.0,0.0,0.0,0.0,0.0,0.0,0.0,0.0,0.0,0.0,0.0,0.0,0.0,0.0,0.0,0.0,0.0,0.0,0.0,0.0,0.0,0.0,0.0,0.0,0.0,0.0,0.0,0.0,0.0,0.0,0.0,0.0,0.0,0.0,0.0,0.0,0.0,0.0,0.0,0.0,0.0,0.0,0.0,0.0,0.0,0.0,0.0,0.0,0.0,0.0,0.0,0.0,0.0,0.0,0.0,0.0,0.0,0.0,0.0,0.0,0.0,0.0,0.0,0.0,-4.2536,-4.1816,-4.1181,-3.9958,0.0,0.0,0.0,0.0,0.0,0.0,0.0,0.0,0.0,0.0,0.0,0.0,0.0,0.0,0.0,0.0,0.0,0.0,0.0,0.0,0.0,0.0,0.0,0.0,0.0,0.0,0.0,0.0,0.0,0.0,0.0,0.0,0.0,0.0,0.0,0.0,0.0,0.0,0.0,0.0,0.0,0.0,0.0,0.0,0.0,0.0,0.0,0.0,0.0,0.0,0.0,0.0,0.0,0.0,0.0,0.0,0.0,0.0,0.0,0.0,0.0,0.0,0.0,0.0,0.0,0.0,0.0,0.0,0.0,0.0,0.0,0.0,0.0,0.0,0.0,0.0,0.0,0.0,0.0,0.0,0.0,0.0,0.0,0.0,0.0,0.0,0.0,0.0,0.0,0.0,0.0,0.0,0.0,0.0,0.0,0.0,0.0,0.0,0.0,0.0,0.0,0.0,0.0,0.0,0.0,0.0,0.0,0.0,0.0,0.0,-4.251,-4.2633,-4.1793,-4.0854,-3.9392,-3.7373,0.0,0.0,0.0,0.0,0.0,0.0,0.0,0.0,0.0,0.0,0.0,0.0,0.0,0.0,0.0,0.0,0.0,0.0,0.0,0.0,0.0,0.0,0.0,0.0,0.0,0.0,0.0,0.0,0.0,0.0,0.0,0.0,0.0,0.0,0.0,0.0,0.0,0.0,0.0,0.0,0.0,0.0,0.0,0.0,0.0,0.0,0.0,0.0,0.0,0.0,0.0,0.0,0.0,0.0,0.0,0.0,0.0,0.0,0.0,0.0,0.0,0.0,0.0,0.0,0.0,0.0,0.0,0.0,0.0,0.0,0.0,0.0,0.0,0.0,0.0,0.0,0.0,0.0,0.0,0.0,0.0,0.0,0.0,0.0,0.0,0.0,0.0,0.0,0.0,0.0,0.0,0.0,0.0,0.0,0.0,0.0,0.0,0.0,0.0,0.0,0.0,0.0,0.0,0.0,0.0,0.0,0.0,0.0,-4.3156,-4.2544,-4.2051,-4.1862,-4.2527,-4.0642,0.0,0.0,0.0,0.0,0.0,0.0,0.0,0.0,0.0,0.0,0.0,0.0,0.0,0.0,0.0,0.0,0.0,0.0,0.0,0.0,0.0,0.0,0.0,0.0,0.0,0.0,0.0,0.0,0.0,0.0,0.0,0.0,0.0,0.0,0.0,0.0,0.0,0.0,0.0,0.0,0.0,0.0,0.0,0.0,0.0,0.0,0.0,0.0,0.0,0.0,0.0,0.0,0.0,0.0,0.0,0.0,0.0,0.0,0.0,0.0,0.0,0.0,0.0,0.0,0.0,0.0,0.0,0.0,0.0,0.0,0.0,0.0,0.0,0.0,0.0,0.0,0.0,0.0,0.0,0.0,0.0,0.0,0.0,0.0,0.0,0.0,0.0,0.0,0.0,0.0,0.0,0.0,0.0,0.0,0.0,0.0,0.0,0.0,0.0,0.0,0.0,0.0,0.0,0.0,0.0,0.0,0.0,0.0,0.0,-4.1704,-4.1841,-4.2394,-4.3258,-4.1104,-3.8969,0.0,0.0,0.0,0.0,0.0,0.0,0.0,0.0,0.0,0.0,0.0,0.0,0.0,0.0,0.0,0.0,0.0,0.0,0.0,0.0,0.0,0.0,0.0,0.0,0.0,0.0,0.0,0.0,0.0,0.0,0.0,0.0,0.0,0.0,0.0,0.0,0.0,0.0,0.0,0.0,0.0,0.0,0.0,0.0,0.0,0.0,0.0,0.0,0.0,0.0,0.0,0.0,0.0,0.0,0.0,0.0,0.0,0.0,0.0,0.0,0.0,0.0,0.0,0.0,0.0,0.0,0.0,0.0,0.0,0.0,0.0,0.0,0.0,0.0,0.0,0.0,0.0,0.0,0.0,0.0,0.0,0.0,0.0,0.0,0.0,0.0,0.0,0.0,0.0,0.0,0.0,0.0,0.0,0.0,0.0,0.0,0.0,0.0,0.0,0.0,0.0,0.0,0.0,0.0,0.0,0.0,0.0,0.0,0.0,-4.1263,0.0,-4.2822,-4.3019,-4.0635,-3.8334,0.0,0.0,0.0,0.0,0.0,0.0,0.0,0.0,0.0,0.0,0.0,0.0,0.0,0.0,0.0,0.0,0.0,0.0,0.0,0.0,0.0,0.0,0.0,0.0,0.0,0.0,0.0,0.0,0.0,0.0,0.0,0.0,0.0,0.0,0.0,0.0,0.0,0.0,0.0,0.0,0.0,0.0,0.0,0.0,0.0,0.0,0.0,0.0,0.0,0.0,0.0,0.0,0.0,0.0,0.0,0.0,0.0,0.0,0.0,0.0,0.0,0.0,0.0,0.0,0.0,0.0,0.0,0.0,0.0,0.0,0.0,0.0,0.0,0.0,0.0,0.0,0.0,0.0,0.0,0.0,0.0,0.0,0.0,0.0,0.0,0.0,0.0,0.0,0.0,0.0,0.0,0.0,0.0,0.0,0.0,0.0,0.0,0.0,0.0,0.0,0.0,0.0,0.0,0.0,0.0,0.0,0.0,0.0,-4.0598,-4.2149,-4.361,-4.3266,-4.0912,-4.1311,-3.8923,0.0,0.0,0.0,0.0,0.0,0.0,0.0,0.0,0.0,0.0,0.0,0.0,0.0,0.0,0.0,0.0,0.0,0.0,0.0,0.0,0.0,0.0,0.0,0.0,0.0,0.0,0.0,0.0,0.0,0.0,0.0,0.0,0.0,0.0,0.0,0.0,0.0,0.0,0.0,0.0,0.0,0.0,0.0,0.0,0.0,0.0,0.0,0.0,0.0,0.0,0.0,0.0,0.0,0.0,0.0,0.0,0.0,0.0,0.0,0.0,0.0,0.0,0.0,0.0,0.0,0.0,0.0,0.0,0.0,0.0,0.0,0.0,0.0,0.0,0.0,0.0,0.0,0.0,0.0,0.0,0.0,0.0,0.0,0.0,0.0,0.0,0.0,0.0,0.0,0.0,0.0,0.0,0.0,0.0,0.0,0.0,0.0,0.0,0.0,0.0,0.0,0.0,0.0,0.0,0.0,0.0,0.0,0.0,0.0,-4.1269,-4.2782,-4.3479,-4.3123,-4.0577,-3.8315,0.0,0.0,0.0,0.0,0.0,0.0,0.0,0.0,0.0,0.0,0.0,0.0,0.0,0.0,0.0,0.0,0.0,0.0,0.0,0.0,0.0,0.0,0.0,0.0,0.0,0.0,0.0,0.0,0.0,0.0,0.0,0.0,0.0,0.0,0.0,0.0,0.0,0.0,0.0,0.0,0.0,0.0,0.0,0.0,0.0,0.0,0.0,0.0,0.0,0.0,0.0,0.0,0.0,0.0,0.0,0.0,0.0,0.0,0.0,0.0,0.0,0.0,0.0,0.0,0.0,0.0,0.0,0.0,0.0,0.0,0.0,0.0,0.0,0.0,0.0,0.0,0.0,0.0,0.0,0.0,0.0,0.0,0.0,0.0,0.0,0.0,0.0,0.0,0.0,0.0,0.0,0.0,0.0,0.0,0.0,0.0,0.0,0.0,0.0,0.0,0.0,0.0,0.0,0.0,0.0,0.0,0.0,0.0,0.0,-4.1895,-4.3374,-4.4122,-4.3987,-4.0687,-3.8354,-3.7058,0.0,0.0,0.0,0.0,0.0,0.0,0.0,0.0,0.0,0.0,0.0,0.0,0.0,0.0,0.0,0.0,0.0,0.0,0.0,0.0,0.0,0.0,0.0,0.0,0.0,0.0,0.0,0.0,0.0,0.0,0.0,0.0,0.0,0.0,0.0,0.0,0.0,0.0,0.0,0.0,0.0,0.0,0.0,0.0,0.0,0.0,0.0,0.0,0.0,0.0,0.0,0.0,0.0,0.0,0.0,0.0,0.0,0.0,0.0,0.0,0.0,0.0,0.0,0.0,0.0,0.0,0.0,0.0,0.0,0.0,0.0,0.0,0.0,0.0,0.0,0.0,0.0,0.0,0.0,0.0,0.0,0.0,0.0,0.0,0.0,0.0,0.0,0.0,0.0,0.0,0.0,0.0,0.0,0.0,0.0,0.0,0.0,0.0,0.0,0.0,0.0,0.0,0.0,0.0,0.0,0.0,0.0,0.0,-4.3578,-4.5114,-4.5164,-4.3683,-4.1648,-3.9061,0.0,0.0,0.0,0.0,0.0,0.0,0.0,0.0,0.0,0.0,0.0,0.0,0.0,0.0,0.0,0.0,0.0,0.0,0.0,0.0,0.0,0.0,0.0,0.0,0.0,0.0,0.0,0.0,0.0,0.0,0.0,0.0,0.0,0.0,0.0,0.0,0.0,0.0,0.0,0.0,0.0,0.0,0.0,0.0,0.0,0.0,0.0,0.0,0.0,0.0,0.0,0.0,0.0,0.0,0.0,0.0,0.0,0.0,0.0,0.0,0.0,0.0,0.0,0.0,0.0,0.0,0.0,0.0,0.0,0.0,0.0,0.0,0.0,0.0,0.0,0.0,0.0,0.0,0.0,0.0,0.0,0.0,0.0,0.0,0.0,0.0,0.0,0.0,0.0,0.0,0.0,0.0,0.0,0.0,0.0,0.0,0.0,0.0,0.0,0.0,0.0,0.0,0.0,0.0,0.0,0.0,0.0,0.0,0.0,-4.4561,-4.5542,-4.6084,-4.6057,-4.3189,-4.0577,0.0,0.0,0.0,0.0,0.0,0.0,0.0,0.0,0.0,0.0,0.0,0.0,0.0,0.0,0.0,0.0,0.0,0.0,0.0,0.0,0.0,0.0,0.0,0.0,0.0,0.0,0.0,0.0,0.0,0.0,0.0,0.0,0.0,0.0,0.0,0.0,0.0,0.0,0.0,0.0,0.0,0.0,0.0,0.0,0.0,0.0,0.0,0.0,0.0,0.0,0.0,0.0,0.0,0.0,0.0,0.0,0.0,0.0,0.0,0.0,0.0,0.0,0.0,0.0,0.0,0.0,0.0,0.0,0.0,0.0,0.0,0.0,0.0,0.0,0.0,0.0,0.0,0.0,0.0,0.0,0.0,0.0,0.0,0.0,0.0,0.0,0.0,0.0,0.0,0.0,0.0,0.0,0.0,0.0,0.0,0.0,0.0,0.0,0.0,0.0,0.0,0.0,0.0,0.0,0.0,0.0,0.0,0.0,-4.3785,-4.5507,-4.6318,-4.6899,-4.7213,-4.4176,-4.15,0.0,0.0,0.0,0.0,0.0,0.0,0.0,0.0,0.0,0.0,0.0,0.0,0.0,0.0,0.0,0.0,0.0,0.0,0.0,0.0,0.0,0.0,0.0,0.0,0.0,0.0,0.0,0.0,0.0,0.0,0.0,0.0,0.0,0.0,0.0,0.0,0.0,0.0,0.0,0.0,0.0,0.0,0.0,0.0,0.0,0.0,0.0,0.0,0.0,0.0,0.0,0.0,0.0,0.0,0.0,0.0,0.0,0.0,0.0,0.0,0.0,0.0,0.0,0.0,0.0,0.0,0.0,0.0,0.0,0.0,0.0,0.0,0.0,0.0,0.0,0.0,0.0,0.0,0.0,0.0,0.0,0.0,0.0,0.0,0.0,0.0,0.0,0.0,0.0,0.0,0.0,0.0,0.0,0.0,0.0,0.0,0.0,0.0,0.0,0.0,0.0,0.0,0.0,0.0,0.0,0.0,0.0,0.0,-4.4509,-4.6133,-4.7031,-4.7394,-4.7203,-4.4646,-4.2041,0.0,0.0,0.0,0.0,0.0,0.0,0.0,0.0,0.0,0.0,0.0,0.0,0.0,0.0,0.0,0.0,0.0,0.0,0.0,0.0,0.0,0.0,0.0,0.0,0.0,0.0,0.0,0.0,0.0,0.0,0.0,0.0,0.0,0.0,0.0,0.0,0.0,0.0,0.0,0.0,0.0,0.0,0.0,0.0,0.0,0.0,0.0,0.0,0.0,0.0,0.0,0.0,0.0,0.0,0.0,0.0,0.0,0.0,0.0,0.0,0.0,0.0,0.0,0.0,0.0,0.0,0.0,0.0,0.0,0.0,0.0,0.0,0.0,0.0,0.0,0.0,0.0,0.0,0.0,0.0,0.0,0.0,0.0,0.0,0.0,0.0,0.0,0.0,0.0,0.0,0.0,0.0,0.0,0.0,0.0,0.0,0.0,0.0,0.0,0.0,0.0,0.0,0.0,0.0,0.0,0.0,0.0,0.0,-4.4217,-4.5254,-4.6133,-4.6498,-4.6384,-4.4421,-4.2427,0.0,0.0,0.0,0.0,0.0,0.0,0.0,0.0,0.0,0.0,0.0,0.0,0.0,0.0,0.0,0.0,0.0,0.0,0.0,0.0,0.0,0.0,0.0,0.0,0.0,0.0,0.0,0.0,0.0,0.0,0.0,0.0,0.0,0.0,0.0,0.0,0.0,0.0,0.0,0.0,0.0,0.0,0.0,0.0,0.0,0.0,0.0,0.0,-3.5046,0.0,0.0,0.0,0.0,0.0,0.0,0.0,0.0,0.0,0.0,0.0,0.0,0.0,0.0,0.0,0.0,0.0,0.0,0.0,0.0,0.0,0.0,0.0,0.0,0.0,0.0,0.0,0.0,0.0,0.0,0.0,0.0,0.0,0.0,0.0,0.0,0.0,0.0,0.0,0.0,0.0,0.0,0.0,0.0,0.0,0.0,0.0,0.0,0.0,0.0,0.0,0.0,0.0,0.0,0.0,0.0,0.0,0.0,0.0,-4.4316,-4.5566,-4.6074,-4.6268,-4.614,-4.4773,-4.2956,0.0,0.0,0.0,0.0,0.0,0.0,0.0,0.0,0.0,0.0,0.0,0.0,0.0,0.0,0.0,0.0,0.0,0.0,0.0,0.0,0.0,0.0,0.0,0.0,0.0,0.0,0.0,0.0,0.0,0.0,0.0,0.0,0.0,0.0,0.0,0.0,0.0,0.0,0.0,0.0,0.0,0.0,0.0,0.0,0.0,0.0,0.0,0.0,0.0,0.0,0.0,0.0,0.0,0.0,0.0,0.0,0.0,0.0,0.0,0.0,0.0,0.0,0.0,0.0,0.0,0.0,0.0,0.0,0.0,0.0,0.0,0.0,0.0,0.0,0.0,0.0,0.0,0.0,0.0,0.0,0.0,0.0,0.0,0.0,0.0,0.0,0.0,0.0,0.0,0.0,0.0,0.0,0.0,0.0,0.0,0.0,0.0,0.0,0.0,0.0,0.0,0.0,0.0,0.0,0.0,0.0,0.0,-4.2851,-4.4413,-4.6191,-4.6289,-4.6289,-4.6289,-4.5275,-4.3478,-4.0853,0.0,0.0,0.0,0.0,0.0,0.0,0.0,0.0,0.0,0.0,0.0,0.0,0.0,0.0,0.0,0.0,0.0,0.0,0.0,0.0,0.0,0.0,0.0,0.0,0.0,0.0,0.0,0.0,0.0,0.0,0.0,0.0,0.0,0.0,0.0,0.0,0.0,0.0,-3.4396,-3.6242,0.0,0.0,0.0,0.0,0.0,0.0,0.0,0.0,-3.574,0.0,0.0,0.0,0.0,0.0,0.0,0.0,0.0,0.0,0.0,0.0,0.0,0.0,0.0,0.0,0.0,0.0,0.0,0.0,0.0,0.0,0.0,0.0,0.0,0.0,0.0,0.0,0.0,0.0,0.0,0.0,0.0,0.0,0.0,0.0,0.0,0.0,0.0,0.0,0.0,0.0,0.0,0.0,0.0,0.0,0.0,0.0,0.0,0.0,0.0,0.0,0.0,0.0,0.0,0.0,0.0,-4.3203,-4.2851,-4.3808,-4.623,-4.6289,-4.6289,-4.6269,-4.5369,-4.3618,-4.0968,0.0,0.0,0.0,0.0,0.0,0.0,0.0,0.0,0.0,0.0,0.0,0.0,0.0,0.0,0.0,0.0,0.0,0.0,0.0,0.0,0.0,0.0,0.0,0.0,0.0,0.0,0.0,0.0,0.0,0.0,0.0,0.0,0.0,0.0,0.0,0.0,0.0,0.0,0.0,-3.9039,-3.9578,0.0,0.0,0.0,0.0,0.0,0.0,0.0,0.0,-3.5526,0.0,0.0,0.0,0.0,0.0,0.0,0.0,0.0,0.0,0.0,0.0,0.0,0.0,0.0,0.0,0.0,0.0,0.0,0.0,0.0,0.0,0.0,0.0,0.0,0.0,0.0,0.0,0.0,0.0,0.0,0.0,0.0,0.0,0.0,0.0,0.0,0.0,0.0,0.0,0.0,0.0,0.0,0.0,0.0,0.0,0.0,0.0,0.0,0.0,0.0,0.0,0.0,0.0,0.0,0.0,-4.2187,-4.2851,-4.4121,-4.6191,-4.5859,-4.5625,-4.5605,-4.4279,-4.2498,0.0,0.0,0.0,0.0,0.0,0.0,0.0,0.0,0.0,0.0,0.0,0.0,0.0,0.0,0.0,0.0,0.0,0.0,0.0,0.0,0.0,0.0,0.0,0.0,0.0,0.0,0.0,0.0,0.0,0.0,0.0,0.0,0.0,0.0,0.0,0.0,0.0,0.0,0.0,0.0,-3.9407,-4.0153,-4.1417,0.0,0.0,0.0,0.0,0.0,0.0,-3.7106,-3.6367,0.0,0.0,0.0,0.0,0.0,0.0,0.0,0.0,0.0,0.0,0.0,0.0,0.0,0.0,0.0,0.0,0.0,0.0,0.0,0.0,0.0,0.0,0.0,0.0,0.0,0.0,0.0,0.0,0.0,0.0,0.0,0.0,0.0,0.0,0.0,0.0,0.0,0.0,0.0,0.0,0.0,0.0,0.0,0.0,0.0,0.0,0.0,0.0,0.0,0.0,0.0,0.0,0.0,0.0,0.0,-4.0879,-4.2421,-4.4023,-4.5664,-4.5098,-4.4746,-4.4707,-4.3347,-4.1647,0.0,0.0,0.0,0.0,0.0,0.0,0.0,0.0,0.0,0.0,0.0,0.0,0.0,0.0,0.0,0.0,0.0,0.0,0.0,0.0,0.0,0.0,0.0,0.0,0.0,0.0,0.0,0.0,0.0,0.0,0.0,0.0,0.0,0.0,0.0,0.0,0.0,0.0,0.0,0.0,0.0,-4.0634,-4.1747,-4.0077,0.0,0.0,0.0,0.0,-3.8999,-3.8785,0.0,0.0,0.0,0.0,0.0,0.0,0.0,0.0,0.0,0.0,0.0,0.0,0.0,0.0,0.0,0.0,0.0,0.0,0.0,0.0,0.0,0.0,0.0,0.0,0.0,0.0,0.0,0.0,0.0,0.0,0.0,0.0,0.0,0.0,0.0,0.0,0.0,0.0,0.0,0.0,0.0,0.0,0.0,0.0,0.0,0.0,0.0,0.0,0.0,0.0,0.0,0.0,0.0,0.0,0.0,0.0,-3.9941,-4.0929,-4.2257,-4.3887,-4.3906,-4.3867,-4.3848,-4.3632,-4.2289,0.0,0.0,0.0,0.0,0.0,0.0,0.0,0.0,0.0,0.0,0.0,0.0,0.0,0.0,0.0,0.0,0.0,0.0,0.0,0.0,0.0,0.0,0.0,0.0,0.0,0.0,0.0,0.0,0.0,0.0,0.0,0.0,0.0,0.0,0.0,0.0,0.0,0.0,0.0,0.0,0.0,-4.1689,-4.114,-4.0208,-3.98,0.0,0.0,-3.9869,-4.151,-4.1036,0.0,0.0,0.0,0.0,0.0,0.0,0.0,0.0,0.0,0.0,0.0,0.0,0.0,0.0,0.0,0.0,0.0,0.0,0.0,0.0,0.0,0.0,0.0,0.0,0.0,0.0,0.0,0.0,0.0,0.0,0.0,0.0,0.0,0.0,0.0,0.0,0.0,0.0,0.0,0.0,0.0,0.0,0.0,0.0,0.0,0.0,0.0,0.0,0.0,0.0,0.0,0.0,0.0,0.0,0.0,-3.6582,-3.9073,-4.084,-4.2344,-4.3566,-4.3157,-4.2926,-4.2969,-4.1562,-3.9994,0.0,0.0,0.0,0.0,0.0,0.0,0.0,0.0,0.0,0.0,0.0,0.0,0.0,0.0,0.0,0.0,0.0,0.0,0.0,0.0,0.0,0.0,0.0,0.0,0.0,0.0,0.0,0.0,0.0,0.0,0.0,0.0,0.0,0.0,0.0,0.0,0.0,0.0,0.0,0.0,0.0,0.0,-4.1548,-4.1335,0.0,0.0,0.0,-4.1354,-4.2097,0.0,0.0,0.0,0.0,0.0,0.0,0.0,0.0,0.0,0.0,0.0,0.0,0.0,0.0,0.0,0.0,0.0,0.0,0.0,0.0,0.0,0.0,0.0,0.0,0.0,0.0,0.0,0.0,0.0,0.0,0.0,0.0,0.0,0.0,0.0,0.0,0.0,0.0,0.0,0.0,0.0,0.0,0.0,0.0,0.0,0.0,0.0,0.0,0.0,0.0,0.0,0.0,0.0,0.0,0.0,0.0,0.0,-3.7835,-4.0067,-4.1571,-4.2251,-4.1674,-4.1354,-4.1385,-3.959,0.0,0.0,0.0,0.0,0.0,0.0,0.0,0.0,0.0,0.0,0.0,0.0,0.0,0.0,0.0,0.0,0.0,0.0,0.0,0.0,0.0,0.0,0.0,0.0,0.0,0.0,0.0,-2.6603,0.0,0.0,0.0,0.0,0.0,0.0,0.0,0.0,0.0,0.0,0.0,0.0,0.0,0.0,-4.0423,-4.171,-4.2255,-4.2844,0.0,0.0,-4.2597,-4.2835,-4.2798,-4.1496,0.0,0.0,0.0,0.0,0.0,0.0,0.0,0.0,0.0,0.0,0.0,0.0,0.0,0.0,0.0,0.0,0.0,0.0,0.0,0.0,0.0,0.0,0.0,0.0,0.0,0.0,0.0,0.0,0.0,0.0,0.0,0.0,0.0,0.0,0.0,0.0,0.0,0.0,0.0,0.0,0.0,0.0,0.0,0.0,0.0,0.0,0.0,0.0,0.0,0.0,0.0,0.0,0.0,0.0,-3.4994,-3.5999,-3.7693,-3.8665,-3.875,-3.8752,-3.8749,-3.8751,-3.8669,-3.777,0.0,0.0,0.0,0.0,0.0,0.0,0.0,0.0,0.0,0.0,0.0,0.0,0.0,0.0,0.0,0.0,0.0,0.0,0.0,0.0,0.0,0.0,0.0,0.0,0.0,0.0,0.0,0.0,0.0,0.0,0.0,0.0,0.0,0.0,0.0,0.0,0.0,0.0,0.0,0.0,0.0,-4.0941,-4.1067,-4.2403,-4.3716,0.0,-4.3972,-4.3685,-4.4501,-4.4533,-4.3067,-3.881,0.0,0.0,0.0,0.0,0.0,0.0,0.0,0.0,0.0,0.0,0.0,0.0,0.0,0.0,0.0,0.0,0.0,0.0,0.0,0.0,0.0,0.0,0.0,0.0,0.0,0.0,0.0,0.0,0.0,0.0,0.0,0.0,0.0,0.0,0.0,0.0,0.0,0.0,0.0,0.0,0.0,0.0,0.0,0.0,0.0,0.0,0.0,0.0,0.0,0.0,0.0,0.0,0.0,-3.4581,-3.4948,-3.7089,-3.8213,-3.8263,-3.8299,-3.8319,-3.8361,-3.7938,-3.6845,0.0,0.0,0.0,0.0,0.0,0.0,0.0,0.0,0.0,0.0,0.0,0.0,0.0,0.0,0.0,0.0,0.0,0.0,0.0,0.0,0.0,0.0,0.0,0.0,0.0,0.0,0.0,0.0,-2.9784,-3.0292,-3.0292,0.0,0.0,0.0,0.0,0.0,0.0,0.0,0.0,0.0,0.0,-4.0448,-4.0935,-4.2473,0.0,0.0,-4.2944,-4.2806,-4.3146,-4.2713,-4.144,-3.8697,-3.7038,0.0,0.0,0.0,0.0,0.0,0.0,0.0,0.0,0.0,0.0,0.0,0.0,0.0,0.0,0.0,0.0,0.0,0.0,0.0,0.0,0.0,0.0,0.0,0.0,0.0,0.0,0.0,0.0,0.0,0.0,0.0,0.0,0.0,0.0,0.0,0.0,0.0,0.0,0.0,0.0,0.0,0.0,0.0,0.0,0.0,0.0,0.0,0.0,0.0,0.0,0.0,0.0,-3.3718,-3.3989,-3.5942,-3.7101,-3.7417,-3.7424,-3.7458,-3.7471,-3.6959,-3.5885,0.0,0.0,0.0,0.0,0.0,0.0,0.0,0.0,0.0,0.0,0.0,0.0,0.0,0.0,0.0,0.0,0.0,0.0,0.0,0.0,0.0,0.0,0.0,0.0,0.0,0.0,0.0,0.0,-3.0189,-3.0306,-3.0051,0.0,0.0,0.0,0.0,0.0,0.0,0.0,0.0,0.0,0.0,-4.0187,-4.126,-4.2451,-4.3102,-4.2737,-4.2428,-4.2213,-4.2209,-4.1674,-4.0504,-3.8272,0.0,0.0,0.0,0.0,0.0,0.0,0.0,0.0,0.0,0.0,0.0,0.0,0.0,0.0,0.0,0.0,0.0,0.0,0.0,0.0,0.0,0.0,0.0,0.0,0.0,0.0,0.0,-3.2823,0.0,0.0,-3.0458,0.0,0.0,0.0,0.0,0.0,0.0,0.0,0.0,0.0,0.0,0.0,0.0,0.0,0.0,0.0,0.0,0.0,0.0,0.0,0.0,0.0,0.0,-3.2212,-3.3037,-3.3909,-3.4776,-3.5642,-3.5653,-3.5684,-3.5689,-3.5702,-3.4948,-3.3271,0.0,0.0,0.0,0.0,0.0,0.0,0.0,0.0,0.0,0.0,0.0,0.0,0.0,0.0,0.0,0.0,0.0,0.0,0.0,0.0,0.0,0.0,0.0,0.0,0.0,0.0,-3.0698,-3.0035,-2.9212,0.0,0.0,0.0,0.0,0.0,0.0,0.0,0.0,0.0,-3.6758,-3.8671,-4.0429,-4.207,-4.2341,-4.2633,-4.3387,-4.2751,-4.2194,-4.2175,-4.208,-4.0923,0.0,0.0,0.0,0.0,0.0,0.0,0.0,0.0,0.0,0.0,0.0,0.0,0.0,0.0,0.0,0.0,0.0,0.0,0.0,0.0,0.0,0.0,0.0,0.0,0.0,0.0,0.0,-3.3686,-3.3124,0.0,0.0,0.0,0.0,0.0,0.0,0.0,0.0,0.0,0.0,0.0,-3.2269,-3.2682,0.0,0.0,0.0,0.0,0.0,0.0,0.0,0.0,0.0,0.0,0.0,0.0,-3.2119,-3.2977,-3.3217,-3.4045,-3.5463,-3.4969,-3.4936,-3.5508,-3.5554,-3.4521,-3.2337,0.0,0.0,0.0,0.0,0.0,0.0,0.0,0.0,0.0,0.0,0.0,0.0,0.0,0.0,0.0,0.0,0.0,0.0,0.0,0.0,0.0,0.0,0.0,0.0,0.0,-2.9938,0.0,0.0,0.0,0.0,0.0,0.0,0.0,0.0,0.0,0.0,-3.3354,-3.4765,-3.6211,-3.8373,-4.0006,-4.0593,-4.1658,-4.2284,0.0,0.0,0.0,0.0,0.0,0.0,0.0,0.0,0.0,0.0,0.0,0.0,0.0,0.0,-3.6471,-3.4078,-3.2847,-3.2295,-3.2537,0.0,0.0,0.0,0.0,0.0,0.0,0.0,0.0,0.0,0.0,0.0,0.0,0.0,0.0,-3.3742,-3.366,-3.2468,0.0,0.0,0.0,0.0,0.0,0.0,0.0,0.0,-3.3541,-3.3508,-3.2849,-3.3269,-3.3295,-3.2943,-3.2924,-3.2628,0.0,0.0,0.0,0.0,0.0,0.0,0.0,0.0,-3.1719,-3.284,-3.2852,-3.3691,-3.5385,-3.4641,-3.4475,-3.5026,-3.4494,-3.3272,-3.138,-3.0007,-2.8613,0.0,0.0,0.0,0.0,0.0,0.0,0.0,0.0,0.0,0.0,0.0,0.0,0.0,0.0,0.0,0.0,0.0,0.0,0.0,0.0,0.0,0.0,0.0,-2.9375,0.0,0.0,0.0,0.0,0.0,0.0,0.0,0.0,0.0,-3.2558,-3.4062,-3.5465,-3.6343,-3.815,-3.9488,-3.9761,0.0,0.0,0.0,0.0,0.0,0.0,0.0,-3.852,-3.7903,-3.7318,-3.6806,-3.6516,-3.7411,-3.8074,-3.7758,0.0,0.0,-3.5407,-3.424,-3.3638,-3.3812,-3.3417,-3.2927,-3.2685,-3.3039,-3.328,0.0,0.0,0.0,0.0,-3.462,0.0,0.0,0.0,-3.4588,-3.4547,0.0,-3.3658,0.0,0.0,0.0,0.0,-3.1148,-3.3228,0.0,0.0,-3.4485,-3.4731,-3.3998,-3.3974,-3.4018,-3.408,-3.4056,-3.3762,-3.316,-3.1016,0.0,0.0,0.0,0.0,0.0,0.0,-3.0942,-3.2619,-3.2619,-3.3508,-3.5306,-3.4532,-3.4115,-3.4096,-3.2583,-3.1352,-3.0487,-2.9694,-2.8866,-2.8081,-2.7275,0.0,0.0,0.0,0.0,0.0,0.0,0.0,0.0,0.0,0.0,0.0,0.0,0.0,0.0,0.0,0.0,0.0,0.0,0.0,0.0,-2.8909,0.0,0.0,0.0,0.0,0.0,0.0,0.0,0.0,0.0,-3.341,-3.3437,-3.492,-3.6305,-3.7106,0.0,0.0,0.0,0.0,-4.0058,-4.0879,-4.1011,-4.0652,-3.9708,-3.9528,-3.8902,-3.7212,0.0,0.0,-3.5936,-3.582,-3.59,-3.5739,-3.632,-3.6912,-3.7924,-3.6148,-3.4839,-3.5286,-3.4165,-3.3392,-3.3974,-3.4067,-3.4135,-3.7246,0.0,0.0,0.0,0.0,-3.6068,-3.6329,-3.6801,-3.6099,-3.5433,-3.4829,-3.4154,0.0,0.0,0.0,0.0,0.0,0.0,-3.4139,-3.3905,-3.4146,-3.4147,-3.3934,-3.3934,-3.3959,-3.4023,-3.4036,-3.3667,-3.2936,-3.2277,-3.1532,-3.0691,0.0,0.0,0.0,0.0,-3.0801,-3.2313,-3.1295,-3.183,-3.4099,-3.2727,-3.2371,-3.3106,-3.2205,-3.1577,-3.1327,-3.0502,-2.9682,-2.8873,-2.8085,0.0,0.0,0.0,0.0,0.0,0.0,0.0,0.0,0.0,0.0,0.0,0.0,0.0,0.0,0.0,0.0,0.0,0.0,0.0,-2.8077,-2.8298,-2.8372,0.0,0.0,0.0,0.0,0.0,0.0,0.0,0.0,0.0,-3.4248,-3.5306,-3.609,0.0,0.0,-3.775,-3.7985,-3.8538,-3.9031,-3.9266,-3.9276,0.0,-3.887,-3.8278,-3.7704,-3.7124,-3.6968,-3.7019,-3.7425,-3.7483,-3.7491,-3.741,-3.7565,-3.7487,-3.6853,-3.6125,-3.554,-3.557,-3.4701,-3.3949,-3.4153,-3.4216,-3.4197,-3.8599,-3.7401,-3.6891,-3.6663,-3.6638,-3.653,-3.6759,-3.717,-3.6558,-3.5991,-3.5459,-3.4768,-3.3739,-3.2514,-3.2181,0.0,0.0,0.0,-3.376,-3.385,-3.3588,-3.3476,-3.3458,-3.3606,-3.3703,-3.3752,-3.3908,-3.3732,-3.3278,-3.2945,-3.2553,-3.2041,0.0,-3.0114,-2.9915,-3.0139,-3.0768,-3.1721,-3.1136,-3.1539,-3.3058,-3.1779,-3.126,-3.1554,-3.1205,-3.0986,-3.0986,-3.0482,-2.9991,-2.9494,-2.8685,-2.7857,0.0,0.0,0.0,0.0,0.0,0.0,0.0,0.0,0.0,0.0,0.0,-2.5715,-2.5453,0.0,0.0,0.0,-2.6449,-2.767,-2.8896,-2.8651,0.0,0.0,0.0,0.0,0.0,0.0,0.0,-3.1313,-3.255,-3.3507,-3.401,-3.5129,-3.5912,-3.5988,-3.6441,-3.691,-3.7243,0.0,-3.8201,-3.8552,-3.8582,-3.8533,-3.8494,-3.7761,-3.707,-3.6638,-3.65,-3.658,-3.7079,-3.7202,-3.7195,-3.7159,-3.7134,-3.6856,-3.6072,-3.5666,-3.5381,-3.5202,-3.4659,-3.4135,-3.3807,-3.3956,-3.4123,-3.9643,-3.8183,-3.6973,-3.6454,-3.638,-3.638,-3.638,-3.638,-3.6395,-3.6358,-3.6216,-3.5392,-3.4531,-3.3671,-3.2627,0.0,-3.2637,-3.2736,-3.2968,-3.3243,-3.2937,-3.2795,-3.2811,-3.3124,-3.3288,-3.3375,-3.3675,-3.3855,-3.3852,-3.3171,-3.2859,-3.2932,-3.1509,-3.0399,-2.9767,-3.0339,-3.0743,-3.0875,-3.1523,-3.1958,-3.2151,-3.1393,-3.0617,-2.9916,-2.9894,-2.9902,-2.9902,-2.9902,-2.9902,-2.9883,-2.9075,-2.8268,-2.7523,0.0,0.0,0.0,0.0,0.0,0.0,0.0,0.0,0.0,0.0,0.0,0.0,0.0,0.0,0.0,-2.6799,0.0,-3.0227,-2.9622,0.0,0.0,0.0,-2.8332,-2.9211,-2.9349,-2.9714,-3.0506,0.0,0.0,-3.3124,-3.4505,-3.5593,-3.5838,-3.5947,-3.6282,-3.7084,-3.7181,-3.7497,-3.8181,-3.8357,-3.8351,-3.8104,-3.7415,-3.6584,-3.5848,-3.5664,-3.5613,-3.5682,-3.5766,-3.5684,-3.5736,-3.5571,-3.547,-3.5411,-3.4977,-3.4593,-3.4209,-3.411,-3.3844,-3.3262,-3.3566,-3.3863,-3.903,-3.815,-3.7928,-3.7542,-3.7058,-3.7058,-3.7058,-3.7076,-3.7164,-3.6806,-3.611,-3.5442,-3.4377,-3.3029,-3.2755,-3.2683,-3.2762,-3.2784,-3.2842,-3.2905,-3.2827,-3.2795,-3.2795,-3.2874,-3.2921,-3.2952,-3.3014,-3.3075,-3.3072,-3.2892,-3.2523,-3.2047,-3.1663,-3.1076,-3.037,-2.9837,-2.9893,-3.0497,-3.0158,-3.0008,-3.012,-3.0021,-2.985,-2.9681,-2.9828,-2.9902,-2.9902,-2.9902,-2.9902,-2.9883,-2.9071,-2.8521,-2.8313,-2.6337,0.0,0.0,0.0,0.0,0.0,0.0,0.0,0.0,0.0,-2.5135,-2.4365,0.0,-2.5625,0.0,-2.7506,-2.8972,-3.0188,-2.9493,0.0,0.0,-2.9337,-2.9168,-3.0085,-3.0201,-3.0539,-3.1381,-3.1864,-3.2391,-3.302,-3.3451,-3.399,-3.469,-3.5449,-3.6007,-3.6224,-3.627,-3.6363,-3.6597,-3.6642,-3.6611,-3.6542,-3.5816,-3.5156,-3.4928,-3.4847,-3.4789,-3.4789,-3.5294,-3.5693,-3.5621,-3.5074,-3.459,-3.4379,-3.3689,-3.334,-3.3446,-3.3384,-3.3262,-3.3039,-3.3169,-3.3398,-3.8901,-3.8468,-3.8239,-3.7739,-3.7117,-3.7219,-3.7268,-3.7287,-3.7341,-3.6896,-3.6024,-3.5012,-3.4119,-3.3314,-3.2811,-3.2668,-3.2781,-3.2503,-3.2436,-3.2569,-3.2437,-3.2351,-3.2351,-3.2183,-3.209,-3.2106,-3.2232,-3.213,-3.1809,-3.2148,-3.1931,-3.1175,-3.0802,-3.0427,-3.0033,-2.9917,-2.9862,-2.9865,-2.9462,-2.9272,-2.9296,-2.903,-2.9062,-2.9445,-2.9223,-2.9277,-2.9672,-2.9296,-2.9098,-2.907,-2.83,-2.7689,-2.7313,-2.6016,-2.5072,0.0,0.0,0.0,0.0,0.0,0.0,0.0,0.0,0.0,0.0,0.0,-2.6155,-2.7396,-2.8232,-2.9118,-3.0118,-2.972,-2.9598,-3.0164,-2.98,-2.974,-3.0269,-3.0378,-3.0728,-3.1574,-3.1989,-3.2416,-3.2904,-3.3612,-3.3958,-3.3787,-3.4578,-3.5352,-3.5746,-3.5897,-3.5832,-3.5442,-3.5405,-3.5264,-3.4937,-3.4413,-3.4211,-3.4561,-3.458,-3.4671,-3.5041,-3.5446,-3.5733,-3.5624,-3.5223,-3.483,-3.4632,-3.4175,-3.3677,-3.3126,-3.3083,-3.3082,-3.3032,-3.3287,-3.3633,-3.8717,-3.865,-3.8041,-3.7435,-3.6899,-3.6957,-3.7039,-3.7098,-3.7095,-3.6654,-3.5879,-3.4465,-3.3861,-3.3788,-3.2721,-3.2386,-3.2635,-3.2056,-3.1965,-3.2197,-3.1947,-3.18,-3.1784,-3.1342,-3.118,-3.1302,-3.1383,-3.1113,-3.0543,-3.1113,-3.1059,-3.038,-2.9656,-2.9301,-2.9273,-3.0034,-2.9958,-2.9078,-2.9134,-2.9127,-2.9138,-2.8468,-2.8471,-2.9166,-2.8561,-2.8481,-2.9122,-2.8557,-2.8177,-2.8067,-2.7407,-2.6702,-2.6052,-2.581,-2.5362,0.0,-2.454,0.0,0.0,0.0,0.0,0.0,0.0,0.0,0.0,-2.6372,-2.7241,-2.883,-2.8881,-2.9186,-3.0015,-3.0019,-2.9999,-2.9988,-3.0049,-3.0094,-3.0109,-3.0208,-3.0593,-3.1415,-3.2175,-3.267,-3.2826,-3.4098,-3.437,-3.3281,-3.3601,-3.4353,-3.5121,-3.5359,-3.5179,-3.4514,-3.447,-3.4344,-3.3904,-3.3574,-3.373,-3.4473,-3.4642,-3.4846,-3.5334,-3.5541,-3.5544,-3.5313,-3.5029,-3.4937,-3.5021,-3.4678,-3.4018,-3.2722,-3.2728,-3.2857,-3.2754,-3.331,-3.3782,-3.7218,-3.7202,-3.7083,-3.6931,-3.6774,-3.6156,-3.5985,-3.6092,-3.6318,-3.6011,-3.5312,-3.4428,-3.3701,-3.306,-3.2258,-3.1912,-3.1984,-3.1856,-3.1837,-3.191,-3.1837,-3.18,-3.1748,-3.1095,-3.1096,-3.1564,-3.0491,-3.0177,-3.0629,-3.016,-2.9847,-2.9691,-2.9553,-2.9266,-2.8906,0.0,0.0,0.0,-2.864,-2.8825,-2.886,-2.8744,-2.8725,-2.889,-2.8702,0.0,-2.7985,-2.8511,-2.8613,-2.8113,-2.7806,0.0,0.0,0.0,0.0,0.0,0.0,0.0,0.0,0.0,0.0,0.0,-2.5531,-2.5197,-2.5115,-2.6957,-2.8324,-2.8719,-2.9314,-2.9753,-2.991,-2.9921,-2.9929,-3.0007,-3.0003,-3.0053,-3.0094,-3.0111,-3.0496,-3.1389,-3.1659,-3.2003,-3.2703,-3.302,-3.3138,-3.2872,-3.2978,-3.3166,-3.339,-3.3649,-3.3676,-3.3472,-3.3561,-3.3805,-3.4392,-3.3789,-3.3613,-3.4453,-3.4707,-3.4453,-3.4101,-3.4479,-3.4534,-3.3933,-3.3073,-3.2617,-3.257,-3.1873,-3.1654,-3.1606,-3.1752,-3.1634,-3.1335,-3.2295,-3.3175,-3.6604,-3.693,-3.6854,-3.6812,0.0,-3.5943,-3.5644,-3.5706,-3.5861,-3.5792,-3.5568,-3.4854,-3.4157,-3.3438,-3.2679,-3.2127,-3.18,-3.18,-3.18,-3.18,-3.18,-3.1593,-3.1231,-3.0455,-3.011,-3.0093,-2.9334,-2.8972,-2.9023,-2.8972,-2.8782,-2.8403,-2.8403,-2.8294,-2.8055,-2.7914,-2.7894,-2.7957,-2.8246,-2.8428,-2.8435,-2.8104,-2.793,-2.7936,-2.7556,0.0,0.0,0.0,0.0,0.0,0.0,0.0,0.0,0.0,0.0,-2.4837,-2.4431,-2.4183,-2.4201,-2.4521,-2.5069,-2.5826,-2.6237,-2.6389,-2.6293,-2.7512,-2.8437,-2.8923,-2.94,-2.9697,-2.9742,-2.983,-2.9907,-2.9948,-2.9991,-3.0011,-3.0072,-3.0094,-3.0638,-3.1813,-3.2088,-3.2401,-3.3215,-3.3711,-3.3372,-3.2403,-3.2558,-3.2502,-3.1892,-3.252,-3.3141,-3.3172,-3.2839,-3.2812,-3.3225,-3.3083,-3.289,-3.3359,-3.3476,-3.3457,-3.3418,-3.3728,-3.3837,-3.3365,-3.2869,-3.2509,-3.2391,-3.1994,-3.1669,-3.1616,-3.1788,-3.1566,-3.0795,-3.158,-3.253,-3.6026,-3.653,-3.6365,-3.6303,-3.6246,-3.5694,-3.5492,-3.5616,-3.5622,0.0,0.0,-3.5282,-3.4665,-3.4042,-3.3266,-3.2507,-3.1817,-3.18,-3.18,-3.18,-3.18,-3.1403,-3.0679,-2.9868,-2.9179,-2.861,-2.8334,-2.7954,-2.7523,-2.7989,-2.7919,-2.7366,-2.7315,-2.7315,-2.7315,-2.7315,-2.7405,-2.7627,-2.7897,-2.8047,-2.8029,-2.7455,-2.7157,-2.7227,-2.656,-2.6115,-2.5907,-2.5404,-2.5097,-2.4954,-2.4306,-2.4013,-2.4148,-2.404,-2.4288,-2.4928,-2.5129,-2.5202,-2.522,-2.5925,-2.6099,-2.5557,-2.6863,-2.7732,-2.7794,-2.7983,-2.8397,-2.9143,-2.9346,-2.9475,-2.9542,-2.97,-2.9808,-2.9786,-2.9847,-2.9899,-2.9948,-2.9969,-3.0619,-3.2197,-3.243,-3.2832,-3.3729,-3.4287,-3.3995,-3.2132,-3.2096,-3.2067,-3.0919,-3.1774,-3.2803,-3.2808,-3.2406,-3.2048,-3.2216,-3.219,-3.2165,-3.2559,-3.2559,-3.2617,-3.3008,-3.3184,-3.3105,-3.2775,-3.2856,-3.2594,-3.2415,-3.2241,-3.2236,-3.1438,-3.175,-3.1793,-3.0603,-3.0964,-3.1665,-3.4363,-3.4428,-3.4405,-3.4406,-3.4415,-3.4771,-3.5178,-3.56,-3.5728,-3.5927,-3.6114,-3.5341,-3.4685,-3.4061,-3.3266,-3.2507,-3.1817,-3.18,-3.18,-3.18,-3.18,-3.1403,-3.0679,-2.9886,-2.9437,-2.9265,-2.8075,-2.773,-2.8144,-2.7696,-2.7385,-2.7332,-2.7315,-2.7315,-2.7315,-2.7315,-2.7313,-2.7376,-2.7689,-2.7829,-2.7861,-2.7738,-2.7685,-2.7685,-2.7518,-2.6813,-2.5535,-2.6118,-2.5997,-2.4874,-2.4615,-2.4608,-2.4824,-2.4231,-2.3992,-2.4196,-2.4816,-2.5218,-2.5207,-2.5792,-2.6303,-2.6742,-2.7606,-2.8016,-2.7761,-2.8412,-2.8942,-2.9188,-2.922,-2.9272,-2.9334,-2.9375,-2.9405,-2.9405,-2.9405,-2.9407,-2.9447,-2.9486,-3.019,-3.1835,-3.1692,-3.1994,-3.3275,-3.3301,-3.2733,-3.179,-3.1494,-3.1282,-3.058,-3.1192,-3.1852,-3.199,-3.1926,-3.2167,-3.2593,-3.2409,-3.2341,-3.313,-3.3063,-3.2773,-3.2383,-3.2363,-3.2129,-3.1405,-3.1336,-3.0978,-3.0375,-3.048,-3.058,-3.0042,-3.0444,-3.0618,-3.0176,-3.0376,-3.0579,-3.3563,-3.3614,-3.3885,-3.4011,-3.4036,-3.426,-3.4504,-3.4688,-3.4402,-3.4924,-3.5885,-3.5232,-3.46,-3.3962,-3.3188,-3.245,-3.18,-3.18,-3.18,-3.18,-3.18,-3.1162,-3.0093,-2.9661,-2.9058,-2.8299,-2.7627,-2.7471,-2.7763,-2.7437,-2.7315,-2.7315,-2.7315,-2.7092,-2.6661,-2.6628,-2.6454,-2.6107,-2.7035,-2.7526,-2.7526,-2.7108,-2.6882,-2.6882,-2.6469,-2.5915,-2.5234,-2.5164,-2.4918,-2.4373,-2.3904,-2.3754,-2.3957,-2.3642,-2.3497,-2.3571,-2.3945,-2.4374,-2.4858,-2.5961,-2.6908,-2.7585,-2.7981,-2.813,-2.7994,-2.8353,-2.8645,-2.8707,-2.8892,-2.9,-2.9038,-2.9148,-2.928,-2.9304,-2.9304,-2.9295,-2.9299,-2.9329,-2.9893,-3.1032,-3.0735,-3.0968,-3.2591,-3.2164,-3.1699,-3.1309,-3.0748,-2.987,-2.9122,-2.9728,-3.066,-3.1466,-3.1405,-3.1519,-3.226,-3.2227,-3.2023,-3.1997,-3.1941,-3.18,-3.1476,-3.144,-3.1286,-3.0996,-3.0837,-3.065,-3.016,-3.0387,-3.0328,-3.0123,-3.0134,-3.0378,-3.0298,-3.0189,-3.0125,-3.3013,-3.3066,-3.3459,-3.3691,-3.3834,-3.3818,-3.3788,-3.3719,-3.3218,-3.3722,-3.4779,-3.4467,-3.3914,-3.3271,-3.283,-3.2241,-3.1667,-3.1654,-3.1727,-3.18,-3.1726,-3.0918,-2.9627,-2.9506,-2.8697,-2.734,-2.7202,-2.717,-2.7105,-2.717,-2.7217,-2.7283,-2.7153,-2.6743,-2.605,-2.6127,-2.5752,-2.4996,-2.6333,-2.6998,-2.6764,-2.6178,-2.5937,-2.6057,-2.5402,-2.5005,-2.4954,-2.4215,-2.3757,-2.3692,-2.318,-2.2944,-2.3045,-2.307,-2.319,-2.3434,-2.3701,-2.4305,-2.5356,-2.656,-2.7531,-2.8124,-2.8196,-2.8196,-2.8196,-2.825,-2.8286,-2.8327,-2.8538,-2.8628,-2.853,-2.881,-2.8994,-2.8912,-2.9052,-2.9104,-2.914,-2.9172,-2.953,-3.0315,-2.98,-2.986,-3.106,-3.0734,-3.0073,-2.9975,-2.9467,-2.867,-2.7994,-2.826,-2.9164,-3.0204,-3.0422,-3.0699,-3.1492,-3.1433,-3.1171,-3.0664,-3.0772,-3.086,-3.0845,-3.0815,-3.0826,-3.0857,-3.0879,-3.0699,-3.0526,-3.0601,-3.0516,-3.0226,-3.0096,-3.0129,-3.0017,-3.0088,-2.9988,-3.2492,-3.248,-3.2559,-3.2815,-3.3213,-3.3245,-3.3179,-3.3032,-3.3008,-3.2723,-3.2415,-3.24,-3.2093,-3.1571,-3.1955,-3.1685,-3.1047,-3.1223,-3.1504,-3.1709,-3.1485,-3.07,-2.9541,-2.9472,-2.8561,-2.7027,-2.6858,-2.6741,-2.6556,-2.6758,-2.7006,-2.7202,-2.6742,-2.6269,-2.5906,-2.6151,-2.5681,-2.4417,-2.5765,-2.6065,-2.5252,-2.5143,-2.5419,-2.6074,-2.537,-2.5005,-2.4956,-2.4232,-2.3491,-2.2884,-2.2829,-2.2842,-2.2919,-2.2965,-2.338,-2.4191,-2.5004,-2.6171,-2.7633,-2.7999,-2.8093,-2.8196,-2.8182,-2.8182,-2.8196,-2.8196,-2.8237,-2.83,-2.8322,-2.8144,-2.7597,-2.8147,-2.8372,-2.7948,-2.8355,-2.8675,-2.8706,-2.8713,-2.9077,-2.9873,-2.8857,-2.8771,-2.9858,-2.8895,-2.7773,-2.7828,-2.8225,-2.8156,-2.7404,-2.7045,-2.7204,-2.8115,-2.8684,-2.9789,-3.0888,-3.0351,-3.0044,-3.0377,-3.0649,-3.0686,-3.0711,-3.076,-3.0803,-3.0828,-3.0876,-3.0644,-3.0269,-3.0179,-3.0462,-3.0024,-2.9702,-2.9352,-2.9322,-2.9589,-2.9736,-3.2398,-3.2351,-3.1967,-3.1685,-3.1617,-3.1971,-3.1899,-3.1435,-3.102,-3.0705,-3.0446,-3.0109,-3.0334,-3.104,-3.0902,-3.075,-3.0666,-3.0767,-3.0965,-3.1147,-3.0661,-2.9901,-2.9012,-2.8556,-2.7723,-2.664,-2.6556,-2.6504,-2.6435,-2.6505,-2.6624,-2.6742,-2.6521,-2.6101,-2.5545,-2.5229,-2.461,-2.3653,-2.4158,-2.4252,-2.3998,-2.4318,-2.4956,-2.5641,-2.4733,-2.4338,-2.4645,-2.4015,-2.3485,-2.3161,-2.2795,-2.2771,-2.3182,-2.2949,-2.3132,-2.3846,-2.4913,-2.6033,-2.7169,-2.7688,-2.795,-2.7982,-2.8039,-2.8099,-2.814,-2.8168,-2.8209,-2.8237,-2.8291,-2.8179,-2.7982,-2.8268,-2.8373,-2.8189,-2.8419,-2.86,-2.86,-2.8625,-2.8662,-2.8488,-2.7622,-2.7244,-2.7837,-2.7482,-2.6831,-2.6465,-2.6749,-2.6801,-2.6012,-2.5656,-2.5939,-2.6543,-2.6809,-2.7484,-2.903,-2.9461,-2.9366,-2.9713,-3.0236,-3.0591,-3.063,-3.0653,-3.0706,-3.0773,-3.0828,-3.0779,-3.0526,-3.0523,-3.0648,-3.0067,-2.9499,-2.9076,-2.857,-2.8646,-2.8677,-3.2121,-3.2013,-3.1397,-3.0859,-3.0448,-3.092,-3.0751,-3.0109,-2.9602,-2.9294,-2.9104,-2.8611,-2.9084,-3.0092,-2.9883,-2.9892,-3.0107,-3.0251,-3.034,-3.0369,-2.9849,-2.917,-2.8343,-2.7843,-2.7154,-2.6396,-2.6295,-2.6296,-2.6279,-2.6225,-2.626,-2.6366,-2.626,-2.5843,-2.5179,-2.4564,-2.3934,-2.3303,-2.337,-2.3403,-2.3352,-2.3734,-2.4428,-2.5086,-2.4068,-2.3659,-2.4166,-2.3473,-2.3083,-2.3083,-2.2592,-2.2513,-2.2955,-2.2685,-2.2877,-2.3772,-2.4844,-2.584,-2.6638,-2.722,-2.7565,-2.758,-2.7672,-2.7745,-2.7789,-2.7879,-2.7925,-2.7911,-2.7979,-2.801,-2.8048,-2.8275,-2.8394,-2.8308,-2.8411,-2.8569,-2.86,-2.86,-2.8317,-2.7562,-2.6913,-2.6147,-2.6015,-2.6331,-2.6477,-2.5477,-2.5564,-2.5549,-2.4869,-2.4795,-2.5078,-2.5636,-2.5342,-2.5925,-2.742,-2.8049,-2.8562,-2.9249,-2.9791,-3.0192,-3.0467,-3.0583,-3.0603,-3.0709,-3.0762,-3.0785,-3.07,-3.0781,-3.0482,-3.0074,-2.9527,-2.8757,-2.7843,-2.7822,-2.7895,-3.1428,-3.1336,-3.0735,-3.0402,-3.0386,-3.0417,-3.0048,-2.9433,-2.9396,-2.9033,-2.8535,-2.8427,-2.8475,-2.8666,-2.9044,-2.9225,-2.9316,-2.9613,-2.9641,-2.9455,-2.9165,-2.856,-2.7692,-2.7609,-2.7029,-2.6078,-2.601,-2.6026,-2.601,-2.5787,-2.5899,-2.6331,-2.5917,-2.543,-2.5003,-2.4648,-2.4181,-2.3664,-2.4021,-2.4083,-2.3565,-2.3499,-2.3785,-2.4112,-2.3505,-2.3134,-2.3164,-2.2494,-2.208,-2.2094,-2.2061,-2.2046,-2.2111,-2.2109,-2.2803,-2.4254,-2.519,-2.6016,-2.6714,-2.6918,-2.6952,-2.697,-2.7049,-2.7065,-2.7144,-2.7241,-2.7322,-2.7276,-2.7338,-2.7302,-2.7335,-2.792,-2.8066,-2.7668,-2.8095,-2.8476,-2.8587,-2.86,-2.8219,-2.7447,-2.6576,-2.5656,-2.4523,-2.5627,-2.5652,-2.4937,-2.506,-2.5281,-2.4683,-2.4639,-2.4802,-2.4877,-2.5024,-2.5538,-2.709,-2.7365,-2.7712,-2.8345,-2.8891,-2.9458,-3.011,-3.0554,-3.0513,-3.0552,-3.0538,-3.0593,-3.0746,-3.0486,-2.9899,-2.9467,-2.9186,-2.8429,-2.7073,-2.7554,-2.7557,-3.0889,-3.0166,-3.0309,-2.991,-2.9187,-2.9556,-2.9396,-2.8756,-2.8781,-2.8642,-2.8442,-2.8411,-2.8411,-2.8411,-2.8597,-2.8756,-2.8841,-2.8586,-2.8528,-2.858,-2.7756,-2.7145,-2.6921,-2.6503,-2.6157,-2.5801,-2.5731,-2.5749,-2.5733,-2.5654,-2.571,-2.5826,-2.5694,-2.551,-2.5275,-2.478,-2.4371,-2.4144,-2.3998,-2.3739,-2.3528,-2.3496,-2.3371,-2.3031,-2.2498,-2.2225,-2.224,-2.196,-2.1796,-2.1796,-2.1796,-2.2011,-2.2394,-2.2443,-2.2984,-2.4154,-2.4633,-2.5323,-2.6387,-2.6624,-2.664,-2.664,-2.6757,-2.684,-2.6937,-2.7018,-2.7116,-2.7164,-2.7197,-2.7163,-2.7258,-2.7659,-2.7984,-2.8017,-2.826,-2.8492,-2.8536,-2.8538,-2.8111,-2.6819,-2.5597,-2.4528,-2.4381,-2.4624,-2.4756,-2.4355,-2.4514,-2.4552,-2.4414,-2.4374,-2.4441,-2.4493,-2.4626,-2.4934,-2.5487,-2.627,-2.6792,-2.727,-2.7799,-2.8348,-2.8946,-2.9119,-2.9074,-2.9673,-2.9883,-3.0092,-3.0133,-2.9986,-2.9375,-2.8724,-2.8453,-2.7704,-2.6257,-2.6641,-2.6575,-3.0104,-2.9243,-2.9556,-2.9248,-2.8504,-2.8889,-2.8827,-2.8427,-2.8411,-2.8411,-2.8411,-2.8411,-2.8411,-2.8411,-2.8411,-2.8453,-2.8574,-2.8171,-2.7926,-2.7721,-2.6878,-2.6333,-2.601,-2.5673,-2.5505,-2.5543,-2.5578,-2.5578,-2.5505,-2.5486,-2.5467,-2.5448,-2.5258,-2.5166,-2.5091,-2.4513,-2.4241,-2.4322,-2.3852,-2.3479,-2.341,-2.3201,-2.2749,-2.207,-2.1678,-2.1557,-2.1573,-2.1573,-2.1556,-2.1573,-2.1588,-2.1769,-2.2195,-2.2261,-2.2783,-2.3802,-2.4032,-2.4647,-2.5906,-2.6191,-2.6227,-2.621,-2.6331,-2.6436,-2.6522,-2.6624,-2.6724,-2.6791,-2.6875,-2.6908,-2.7054,-2.7276,-2.7595,-2.7915,-2.8165,-2.8317,-2.8326,-2.824,-2.7447,-2.6041,-2.478,-2.4081,-2.3976,-2.4064,-2.414,-2.417,-2.4198,-2.4199,-2.4199,-2.4191,-2.421,-2.4275,-2.4426,-2.4555,-2.4869,-2.5378,-2.6429,-2.7012,-2.6905,-2.7357,-2.7846,-2.7885,-2.8085,-2.8695,-2.912,-2.9352,-2.9416,-2.934,-2.8779,-2.8027,-2.7594,-2.7036,-2.6158,-2.5626,-2.5764,-2.9042,-2.8504,-2.8427,-2.8504,-2.8411,-2.8473,-2.8442,-2.8411,-2.8411,-2.8411,-2.8411,-2.8411,-2.8411,-2.8411,-2.8411,-2.8396,-2.8429,-2.8448,-2.7868,-2.6898,-2.6757,-2.6157,-2.5234,-2.5288,-2.5352,-2.5397,-2.5543,-2.5502,-2.5333,-2.5333,-2.5259,-2.5035,-2.463,-2.4548,-2.4464,-2.4023,-2.39,-2.4191,-2.3787,-2.3329,-2.3123,-2.2598,-2.1955,-2.1263,-2.1183,-2.1262,-2.1309,-2.1325,-2.1341,-2.1324,-2.1309,-2.1309,-2.1405,-2.1422,-2.2005,-2.3305,-2.3547,-2.4227,-2.5427,-2.5656,-2.5712,-2.5712,-2.5717,-2.5811,-2.5886,-2.5994,-2.6067,-2.6021,-2.6124,-2.6279,-2.6421,-2.6488,-2.6734,-2.7253,-2.7607,-2.7876,-2.7753,-2.7554,-2.6783,-2.5353,-2.4363,-2.3933,-2.3927,-2.4006,-2.4074,-2.4113,-2.4161,-2.419,-2.419,-2.4209,-2.4192,-2.422,-2.4321,-2.442,-2.449,-2.4684,-2.5902,-2.6841,-2.6511,-2.6562,-2.7239,-2.7468,-2.7379,-2.7851,-2.8384,-2.8628,-2.8665,-2.8517,-2.8013,-2.7353,-2.6931,-2.6542,-2.6018,-2.5549,-2.551,-2.8596,-2.8411,-2.8411,-2.8411,-2.8411,-2.8411,-2.8411,-2.8411,-2.8411,-2.8411,-2.8411,-2.8411,-2.8411,-2.8411,-2.8411,-2.8411,-2.8411,-2.8398,-2.779,-2.6705,-2.6262,-2.5686,-2.506,-2.5025,-2.5182,-2.5333,-2.5413,-2.5429,-2.5314,-2.5294,-2.5217,-2.5001,-2.4842,-2.4805,-2.4789,-2.4308,-2.4156,-2.4245,-2.3298,-2.265,-2.2417,-2.1808,-2.1295,-2.1038,-2.1055,-2.1167,-2.1215,-2.1278,-2.1309,-2.1309,-2.1309,-2.1309,-2.1309,-2.1309,-2.1989,-2.3269,-2.3496,-2.4128,-2.5357,-2.5597,-2.5597,-2.5597,-2.5619,-2.5659,-2.5701,-2.583,-2.5707,-2.5366,-2.5355,-2.5344,-2.493,-2.4813,-2.5309,-2.6289,-2.7035,-2.7005,-2.6223,-2.5727,-2.5338,-2.503,-2.4324,-2.3902,-2.3868,-2.3937,-2.3966,-2.4036,-2.4084,-2.4113,-2.417,-2.4152,-2.4209,-2.4219,-2.4275,-2.4303,-2.4393,-2.4509,-2.5233,-2.5966,-2.5846,-2.5927,-2.6584,-2.6768,-2.6706,-2.694,-2.7464,-2.7748,-2.7815,-2.7598,-2.7098,-2.6799,-2.6451,-2.6092,-2.5721,-2.5587,-2.5572,-2.8411,-2.8411,-2.8411,-2.8411,-2.8411,-2.8411,-2.8411,-2.8411,-2.8411,-2.8411,-2.8411,-2.8411,-2.8411,-2.8411,-2.8411,-2.8411,-2.8411,-2.8411,-2.7835,-2.6856,-2.6233,-2.5637,-2.5071,-2.4921,-2.5005,-2.5162,-2.524,-2.5166,-2.5045,-2.5025,-2.4982,-2.4826,-2.4595,-2.4481,-2.4562,-2.4331,-2.4122,-2.3775,-2.3045,-2.24,-2.1895,-2.1274,-2.0876,-2.0795,-2.0909,-2.1038,-2.1151,-2.1215,-2.1262,-2.1309,-2.1309,-2.1309,-2.1309,-2.1584,-2.2248,-2.3237,-2.382,-2.4419,-2.5419,-2.5597,-2.5597,-2.5597,-2.5597,-2.5635,-2.5629,-2.5591,-2.5226,-2.4968,-2.4726,-2.448,-2.4116,-2.4001,-2.4311,-2.4726,-2.5666,-2.5774,-2.4864,-2.451,-2.43,-2.4194,-2.3822,-2.3605,-2.3584,-2.3599,-2.3621,-2.3714,-2.3847,-2.3886,-2.3945,-2.3976,-2.4018,-2.4067,-2.4067,-2.4163,-2.4303,-2.4458,-2.4659,-2.4949,-2.5118,-2.5468,-2.5983,-2.5761,-2.5604,-2.5962,-2.6446,-2.6587,-2.6641,-2.6547,-2.6203,-2.605,-2.6016,-2.5822,-2.5602,-2.5644,-2.5631,-2.8411,-2.8411,-2.8411,-2.8411,-2.8411,-2.8411,-2.8411,-2.8411,-2.8411,-2.8411,-2.8411,-2.8411,-2.8411,-2.8411,-2.8411,-2.8411,-2.8411,-2.8396,-2.8104,-2.7419,-2.6702,-2.596,-2.5263,-2.4884,-2.4842,-2.4946,-2.4985,-2.4851,-2.469,-2.467,-2.4549,-2.4492,-2.4091,-2.3729,-2.3955,-2.4021,-2.3663,-2.3093,-2.2893,-2.2378,-2.1551,-2.1004,-2.0644,-2.0527,-2.0695,-2.0876,-2.1038,-2.1119,-2.1199,-2.1294,-2.1309,-2.1309,-2.1423,-2.1989,-2.2669,-2.3447,-2.4112,-2.4774,-2.5403,-2.5597,-2.5597,-2.5597,-2.5597,-2.5565,-2.5424,-2.508,-2.4713,-2.4438,-2.4065,-2.3803,-2.3753,-2.3686,-2.3486,-2.3102,-2.3875,-2.4198,-2.4129,-2.4003,-2.3708,-2.3314,-2.3109,-2.3103,-2.3176,-2.3177,-2.3183,-2.3224,-2.3466,-2.3522,-2.3522,-2.3628,-2.3753,-2.3816,-2.384,-2.3979,-2.4125,-2.4303,-2.4487,-2.4611,-2.4746,-2.5016,-2.535,-2.5091,-2.5011,-2.5332,-2.5539,-2.5597,-2.565,-2.572,-2.5726,-2.5715,-2.5668,-2.5605,-2.5616,-2.5637,-2.5664,-2.8411,-2.8411,-2.8411,-2.8411,-2.8411,-2.8411,-2.8411,-2.8411,-2.8411,-2.8411,-2.8411,-2.8411,-2.8411,-2.8411,-2.8411,-2.8411,-2.8411,-2.8411,-2.8365,-2.798,-2.6888,-2.574,-2.4858,-2.4606,-2.462,-2.4726,-2.4786,-2.4746,-2.4609,-2.4589,-2.4508,-2.4359,-2.4199,-2.4152,-2.4253,-2.394,-2.3409,-2.2789,-2.2325,-2.1734,-2.0983,-2.0683,-2.0509,-2.0457,-2.0543,-2.0661,-2.081,-2.0925,-2.1071,-2.1294,-2.1309,-2.1309,-2.1406,-2.207,-2.2848,-2.3512,-2.4176,-2.4839,-2.5438,-2.5597,-2.5597,-2.5597,-2.5549,-2.5373,-2.4822,-2.4753,-2.4154,-2.3471,-2.2998,-2.2832,-2.2435,-2.2367,-2.2249,-2.2177,-2.2528,-2.2919,-2.3337,-2.3151,-2.2837,-2.2908,-2.2995,-2.3042,-2.306,-2.3054,-2.3056,-2.3087,-2.3153,-2.3265,-2.3218,-2.3329,-2.3484,-2.3566,-2.3653,-2.3808,-2.3969,-2.4144,-2.4294,-2.4413,-2.4511,-2.4581,-2.4813,-2.4802,-2.491,-2.5171,-2.5264,-2.5331,-2.5416,-2.5502,-2.5445,-2.5455,-2.5505,-2.5537,-2.5574,-2.5608,-2.5675,-2.7974,-2.8152,-2.8152,-2.8137,-2.8177,-2.8339,-2.8411,-2.8411,-2.8411,-2.8411,-2.8411,-2.8411,-2.8411,-2.8411,-2.8411,-2.8411,-2.8411,-2.8411,-2.8396,-2.8181,-2.7011,-2.5656,-2.4631,-2.44,-2.4441,-2.4467,-2.4564,-2.4544,-2.4487,-2.4487,-2.4405,-2.4323,-2.4281,-2.4359,-2.4374,-2.4166,-2.3635,-2.2985,-2.2373,-2.1702,-2.0905,-2.0548,-2.0407,-2.0373,-2.0424,-2.0526,-2.0694,-2.0811,-2.0974,-2.1231,-2.1504,-2.173,-2.1859,-2.275,-2.3463,-2.395,-2.4598,-2.5195,-2.5468,-2.5597,-2.5597,-2.5532,-2.5371,-2.4952,-2.4484,-2.4116,-2.3224,-2.2704,-2.2328,-2.1999,-2.1782,-2.1679,-2.1739,-2.1831,-2.1781,-2.2065,-2.2733,-2.2434,-2.2354,-2.2537,-2.266,-2.2747,-2.2773,-2.2786,-2.2782,-2.2786,-2.2853,-2.2895,-2.2895,-2.3044,-2.3177,-2.3289,-2.3393,-2.3518,-2.3703,-2.3899,-2.4037,-2.4163,-2.4321,-2.4358,-2.4472,-2.4578,-2.4766,-2.4962,-2.503,-2.5118,-2.5225,-2.5321,-2.5361,-2.5379,-2.5429,-2.5496,-2.5526,-2.5561,-2.5627,-2.7342,-2.77,-2.77,-2.7725,-2.779,-2.8128,-2.8226,-2.8323,-2.8299,-2.8348,-2.8411,-2.8411,-2.8411,-2.8411,-2.8411,-2.8411,-2.8411,-2.8411,-2.8196,-2.7719,-2.6734,-2.5487,-2.4425,-2.4302,-2.4338,-2.4323,-2.4302,-2.4302,-2.4323,-2.4302,-2.4317,-2.4281,-2.4281,-2.4225,-2.4169,-2.4282,-2.3968,-2.3161,-2.279,-2.2112,-2.1309,-2.0769,-2.0507,-2.0321,-2.0356,-2.0474,-2.064,-2.0789,-2.0985,-2.115,-2.1873,-2.2229,-2.2555,-2.3786,-2.4371,-2.4531,-2.5049,-2.5532,-2.5597,-2.5597,-2.5516,-2.5354,-2.4839,-2.4353,-2.4013,-2.322,-2.2524,-2.2264,-2.176,-2.1578,-2.1574,-2.1649,-2.1724,-2.1768,-2.1783,-2.1825,-2.1869,-2.1899,-2.1974,-2.214,-2.2183,-2.2225,-2.2285,-2.2313,-2.2324,-2.2521,-2.2581,-2.262,-2.2664,-2.2756,-2.2871,-2.2977,-2.3072,-2.3194,-2.3411,-2.3639,-2.3764,-2.3896,-2.4096,-2.4229,-2.4357,-2.4476,-2.4651,-2.478,-2.4862,-2.4987,-2.5141,-2.521,-2.5245,-2.5311,-2.5386,-2.5441,-2.5496,-2.5513,-2.5583,-2.7148,-2.724,-2.7251,-2.724,-2.7251,-2.7342,-2.7595,-2.7915,-2.794,-2.8063,-2.8323,-2.8387,-2.8372,-2.8411,-2.8387,-2.8411,-2.8396,-2.8295,-2.7849,-2.6665,-2.5942,-2.5127,-2.4404,-2.4281,-2.4281,-2.4281,-2.4281,-2.4281,-2.4281,-2.4281,-2.4281,-2.4281,-2.4251,-2.404,-2.3671,-2.4076,-2.3707,-2.2809,-2.2859,-2.244,-2.148,-2.1095,-2.0711,-2.0312,-2.0285,-2.032,-2.0497,-2.0955,-2.1307,-2.1509,-2.1925,-2.2495,-2.3146,-2.3992,-2.4513,-2.4725,-2.5193,-2.5597,-2.5597,-2.5532,-2.5357,-2.4839,-2.4482,-2.4047,-2.2912,-2.2637,-2.2086,-2.1729,-2.1405,-2.1371,-2.1464,-2.1619,-2.1678,-2.1723,-2.1768,-2.1796,-2.1825,-2.1869,-2.1913,-2.1988,-2.2094,-2.2197,-2.2211,-2.2285,-2.2299,-2.231,-2.2335,-2.2391,-2.246,-2.2515,-2.2623,-2.2725,-2.2863,-2.2985,-2.3121,-2.3359,-2.354,-2.366,-2.3878,-2.3838,-2.3971,-2.4181,-2.4269,-2.4449,-2.4689,-2.4828,-2.4987,-2.5068,-2.5097,-2.5208,-2.5327,-2.5389,-2.5426,-2.5473,-2.5504,-2.6669,-2.6811,-2.6826,-2.6811,-2.6837,-2.7019,-2.7265,-2.7458,-2.7484,-2.7585,-2.775,-2.7785,-2.79,-2.8128,-2.8128,-2.8201,-2.8231,-2.7819,-2.6981,-2.5932,-2.525,-2.4706,-2.4237,-2.4219,-2.4281,-2.4281,-2.4281,-2.4281,-2.4281,-2.4261,-2.4281,-2.4281,-2.4281,-2.3948,-2.3502,-2.3963,-2.3646,-2.2853,-2.2838,-2.2474,-2.1488,-2.0971,-2.0533,-2.002,-1.9914,-1.9957,-2.0334,-2.081,-2.147,-2.2012,-2.2403,-2.2873,-2.3642,-2.4411,-2.4823,-2.5008,-2.5306,-2.5597,-2.5581,-2.5276,-2.4903,-2.45,-2.3948,-2.3203,-2.2475,-2.2118,-2.1746,-2.1423,-2.1309,-2.1324,-2.1402,-2.1463,-2.157,-2.1678,-2.1706,-2.1751,-2.1797,-2.1842,-2.1869,-2.1882,-2.1988,-2.2063,-2.2123,-2.2194,-2.2257,-2.224,-2.2296,-2.2335,-2.2366,-2.2436,-2.246,-2.2569,-2.2699,-2.2799,-2.2889,-2.3079,-2.3335,-2.3484,-2.3631,-2.3436,-2.3293,-2.3538,-2.3786,-2.4065,-2.4393,-2.4654,-2.4818,-2.4879,-2.4904,-2.5024,-2.5138,-2.5269,-2.532,-2.529,-2.5365,-2.6096,-2.639,-2.6404,-2.6404,-2.6457,-2.6774,-2.6916,-2.7019,-2.7019,-2.7097,-2.7122,-2.7097,-2.7433,-2.7625,-2.769,-2.7885,-2.7665,-2.7022,-2.5974,-2.5138,-2.465,-2.4213,-2.3872,-2.3925,-2.4051,-2.4156,-2.4177,-2.4177,-2.4094,-2.4135,-2.4073,-2.4177,-2.4198,-2.3744,-2.342,-2.3851,-2.3575,-2.245,-2.2637,-2.2254,-2.1268,-2.0611,-2.0108,-1.962,-1.9501,-1.9664,-2.012,-2.0673,-2.137,-2.244,-2.2793,-2.3229,-2.3747,-2.4474,-2.4875,-2.4837,-2.4732,-2.4756,-2.4716,-2.4501,-2.4182,-2.4139,-2.3187,-2.2376,-2.2037,-2.1666,-2.1391,-2.1278,-2.123,-2.1324,-2.1371,-2.1324,-2.1386,-2.1494,-2.1555,-2.1631,-2.1691,-2.1736,-2.1825,-2.1853,-2.1913,-2.1988,-2.2032,-2.2075,-2.2137,-2.2197,-2.2254,-2.2279,-2.231,-2.2338,-2.2394,-2.2419,-2.2552,-2.2659,-2.2751,-2.2825,-2.3079,-2.3206,-2.3364,-2.3141,-2.2849,-2.2984,-2.3306,-2.3794,-2.4116,-2.4244,-2.4304,-2.4302,-2.4415,-2.4713,-2.4574,-2.4331,-2.4557,-2.4995,-2.5166,-2.5948,-2.5988,-2.6002,-2.5988,-2.6015,-2.6084,-2.6324,-2.6563,-2.6616,-2.6785,-2.7045,-2.7097,-2.7071,-2.7199,-2.7214,-2.7024,-2.6669,-2.5957,-2.5189,-2.4452,-2.3955,-2.3474,-2.3451,-2.3501,-2.3523,-2.3545,-2.3674,-2.3717,-2.3581,-2.3473,-2.3674,-2.3824,-2.3882,-2.3441,-2.3105,-2.3482,-2.3122,-2.1794,-2.2134,-2.1924,-2.0804,-2.0269,-1.9927,-1.9361,-1.9284,-1.9419,-1.9784,-2.0568,-2.1104,-2.0956,-2.1862,-2.2153,-2.2279,-2.2882,-2.3106,-2.3083,-2.3067,-2.3296,-2.3404,-2.3274,-2.2971,-2.2711,-2.2375,-2.1857,-2.1358,-2.1151,-2.1022,-2.099,-2.1103,-2.1262,-2.1309,-2.1087,-2.1023,-2.1055,-2.1118,-2.1197,-2.1275,-2.1477,-2.1676,-2.1645,-2.1766,-2.1913,-2.1943,-2.2003,-2.2046,-2.2123,-2.2197,-2.224,-2.2282,-2.231,-2.2352,-2.238,-2.2419,-2.2528,-2.2623,-2.2685,-2.2807,-2.2871,-2.297,-2.2964,-2.2726,-2.26,-2.2831,-2.2822,-2.3087,-2.3283,-2.3384,-2.3534,-2.3476,-2.3426,-2.3322,-2.3229,-2.3815,-2.4412,-2.4755,-2.5893,-2.5893,-2.5893,-2.5893,-2.5893,-2.5921,-2.6002,-2.6163,-2.6204,-2.6297,-2.6431,-2.6484,-2.6616,-2.6733,-2.68,-2.6581,-2.6185,-2.5335,-2.4699,-2.41,-2.3412,-2.2994,-2.3038,-2.3172,-2.3127,-2.3091,-2.3157,-2.3304,-2.3282,-2.3319,-2.337,-2.348,-2.3538,-2.3116,-2.259,-2.2836,-2.2338,-2.1277,-2.1414,-2.1248,-1.9975,-1.9632,-1.9224,-1.9046,-1.8974,-1.9085,-1.9521,-2.0098,-2.0639,-2.0775,-2.1249,-2.1216,-2.1037,-2.1004,-2.1461,-2.1853,-2.2007,-2.2156,-2.2304,-2.2222,-2.1891,-2.1797,-2.1521,-2.1073,-2.0673,-2.0596,-2.063,-2.0596,-2.058,-2.073,-2.0713,-2.0614,-2.0581,-2.0582,-2.0649,-2.0715,-2.0813,-2.1039,-2.1166,-2.1323,-2.1554,-2.1736,-2.1855,-2.193,-2.1988,-2.2063,-2.2125,-2.2168,-2.218,-2.2209,-2.2223,-2.2352,-2.2394,-2.246,-2.2555,-2.2605,-2.2672,-2.2699,-2.2712,-2.2688,-2.2264,-2.1987,-2.1473,-2.1121,-2.1505,-2.2063,-2.2412,-2.2553,-2.2342,-2.2234,-2.2386,-2.2634,-2.3269,-2.3799,-2.4006,-2.5839,-2.5866,-2.5879,-2.5893,-2.5893,-2.5893,-2.5893,-2.5893,-2.5921,-2.5948,-2.5893,-2.5948,-2.6123,-2.6338,-2.6363,-2.6291,-2.6105,-2.5009,-2.4333,-2.3755,-2.3008,-2.2595,-2.2709,-2.2822,-2.2881,-2.264,-2.264,-2.2791,-2.2926,-2.2971,-2.3083,-2.315,-2.3172,-2.2892,-2.2456,-2.2443,-2.1658,-2.0976,-2.0656,-2.019,-1.9323,-1.8759,-1.8498,-1.8498,-1.8498,-1.8762,-1.9145,-1.9672,-1.9964,-2.02,-2.0407,-2.0321,-1.9778,-1.9389,-1.9864,-2.0956,-2.1278,-2.1413,-2.136,-2.1142,-2.0834,-2.0939,-2.0501,-2.0233,-2.012,-2.0137,-2.0139,-2.0172,-2.0225,-2.0277,-2.0311,-2.0156,-2.0156,-2.0158,-2.0193,-2.0244,-2.0364,-2.0532,-2.0714,-2.0942,-2.1291,-2.1478,-2.157,-2.1525,-2.1508,-2.1646,-2.1708,-2.1827,-2.1855,-2.1988,-2.2077,-2.2268,-2.2366,-2.2432,-2.2515,-2.2582,-2.2636,-2.2659,-2.2647,-2.2626,-2.1903,-2.1179,-2.0747,-2.0476,-2.0159,-2.0699,-2.114,-2.1486,-2.1303,-2.1299,-2.1587,-2.1905,-2.2256,-2.257,-2.2812,-2.5619,-2.5715,-2.5839,-2.5893,-2.5893,-2.5893,-2.5893,-2.5893,-2.5893,-2.5893,-2.5893,-2.5893,-2.5948,-2.6002,-2.6029,-2.5692,-2.5196,-2.4572,-2.3953,-2.3428,-2.2687,-2.231,-2.2287,-2.2301,-2.2426,-2.2333,-2.231,-2.2278,-2.244,-2.2449,-2.254,-2.2746,-2.2756,-2.2599,-2.2322,-2.2183,-2.1495,-2.0316,-2.0094,-1.9604,-1.881,-1.8554,-1.8512,-1.8498,-1.8512,-1.8554,-1.8764,-1.916,-1.9349,-1.8996,-1.9385,-1.9266,-1.8782,-1.8669,-1.863,-1.8876,-1.9027,-1.9238,-1.9637,-1.9757,-1.9829,-2.0065,-2.0008,-1.996,-1.9836,-1.9764,-1.9821,-2.01,-2.012,-2.0087,-2.0,-1.9892,-1.9803,-1.9785,-1.9806,-1.9826,-1.9897,-2.0052,-2.0225,-2.0344,-2.0631,-2.0958,-2.1166,-2.1071,-2.1023,-2.1182,-2.1324,-2.1432,-2.1522,-2.166,-2.1794,-2.1959,-2.2077,-2.2147,-2.2304,-2.2402,-2.2525,-2.2579,-2.2594,-2.2539,-2.189,-2.1213,-2.0772,-2.0477,-1.9984,-1.9639,-2.0129,-2.0351,-2.0232,-2.0278,-2.0474,-2.0725,-2.0998,-2.1298,-2.162,-2.5202,-2.5619,-2.5729,-2.5825,-2.5893,-2.5893,-2.5893,-2.5893,-2.5893,-2.5893,-2.5893,-2.5893,-2.5893,-2.5893,-2.5893,-2.5767,-2.5358,-2.4528,-2.3966,-2.3431,-2.2714,-2.2208,-2.2194,-2.2194,-2.2194,-2.2194,-2.2194,-2.2217,-2.2194,-2.2194,-2.231,-2.2402,-2.2434,-2.2386,-2.2205,-2.1902,-2.1198,-2.0265,-1.9563,-1.8984,-1.8607,-1.8498,-1.8498,-1.8498,-1.8498,-1.8498,-1.8582,-1.8661,-1.8793,-1.854,-1.8807,-1.8793,-1.8568,-1.8512,-1.8512,-1.8517,-1.857,-1.8759,-1.8922,-1.8988,-1.9128,-1.9258,-1.9406,-1.9417,-1.9362,-1.9365,-1.9402,-1.9527,-1.9566,-1.9588,-1.9606,-1.9457,-1.9402,-1.9384,-1.9457,-1.9442,-1.9497,-1.9606,-1.9749,-1.9854,-1.996,-2.0292,-2.0614,-2.0712,-2.0712,-2.0877,-2.0974,-2.1055,-2.115,-2.126,-2.1431,-2.16,-2.1706,-2.1781,-2.1957,-2.2132,-2.2315,-2.2412,-2.2565,-2.2426,-2.2017,-2.15,-2.101,-2.0406,-1.9833,-1.958,-1.9502,-1.9516,-1.969,-1.9516,-1.9311,-1.9885,-2.0404,-2.0206,-2.0664,-2.4765,-2.5257,-2.5481,-2.5619,-2.5674,-2.5702,-2.5702,-2.5674,-2.5702,-2.5757,-2.5811,-2.5866,-2.5893,-2.5893,-2.5879,-2.5767,-2.5528,-2.457,-2.405,-2.3502,-2.2855,-2.2264,-2.2194,-2.2194,-2.2194,-2.2194,-2.2194,-2.2194,-2.2194,-2.2194,-2.2194,-2.2194,-2.224,-2.2226,-2.2062,-2.1629,-2.0929,-2.0035,-1.9282,-1.8784,-1.854,-1.8498,-1.8498,-1.8498,-1.8498,-1.8498,-1.8498,-1.8526,-1.8512,-1.8512,-1.8526,-1.8554,-1.8498,-1.8498,-1.8498,-1.8498,-1.8517,-1.8556,-1.8653,-1.8711,-1.8711,-1.8774,-1.8855,-1.9059,-1.9116,-1.9064,-1.9101,-1.9195,-1.9176,-1.9157,-1.9101,-1.912,-1.9157,-1.9157,-1.9157,-1.912,-1.912,-1.9325,-1.9439,-1.953,-1.9621,-1.9621,-1.9927,-2.0222,-2.0393,-2.0562,-2.0646,-2.068,-2.078,-2.091,-2.1118,-2.1307,-2.1416,-2.1493,-2.1615,-2.1809,-2.2044,-2.2186,-2.2343,-2.2296,-2.1918,-2.1571,-2.1152,-2.0489,-1.9845,-1.9623,-1.9563,-1.9368,-1.9192,-1.924,-1.934,-1.9642,-1.9866,-1.9638,-1.9706,-2.4408,-2.4609,-2.5048,-2.5174,-2.509,-2.5202,-2.5202,-2.5174,-2.523,-2.5383,-2.5592,-2.5743,-2.5839,-2.5893,-2.581,-2.5571,-2.5036,-2.4388,-2.3853,-2.3234,-2.2573,-2.2306,-2.2236,-2.2194,-2.2194,-2.2194,-2.2194,-2.2194,-2.2194,-2.2194,-2.2194,-2.2194,-2.2194,-2.2194,-2.2011,-2.1611,-2.0843,-2.0028,-1.9376,-1.9003,-1.8708,-1.854,-1.8498,-1.8498,-1.8498,-1.8498,-1.8498,-1.8498,-1.8498,-1.8498,-1.8498,-1.8498,-1.8498,-1.8498,-1.8498,-1.8498,-1.8498,-1.8517,-1.8537,-1.8556,-1.8595,-1.8678,-1.8774,-1.887,-1.8965,-1.8998,-1.9036,-1.9064,-1.9045,-1.9064,-1.9082,-1.9116,-1.9097,-1.9116,-1.9116,-1.9116,-1.9116,-1.9134,-1.9232,-1.9269,-1.9325,-1.938,-1.9435,-1.9747,-1.9993,-2.0168,-2.017,-2.0206,-2.043,-2.0582,-2.083,-2.1023,-2.115,-2.1245,-2.1276,-2.1431,-2.1584,-2.1736,-2.1884,-2.1913,-2.1813,-2.1479,-2.1296,-2.0841,-2.0276,-1.9964,-1.9688,-1.9688,-1.9603,-1.9363,-1.9342,-1.9466,-1.953,-1.941,-1.9409,-2.4216,-2.4261,-2.4536,-2.4793,-2.5005,-2.5061,-2.5061,-2.5005,-2.5061,-2.5244,-2.5494,-2.5508,-2.5591,-2.5702,-2.566,-2.5354,-2.4903,-2.4769,-2.3983,-2.3361,-2.2869,-2.2536,-2.2376,-2.2222,-2.2194,-2.2194,-2.2194,-2.2194,-2.2194,-2.2194,-2.2194,-2.2194,-2.2194,-2.2194,-2.1997,-2.1682,-2.1026,-2.0498,-1.9817,-1.9256,-1.9067,-1.8652,-1.8498,-1.8498,-1.8498,-1.8498,-1.8498,-1.8498,-1.8498,-1.8498,-1.8498,-1.8498,-1.8498,-1.8498,-1.8498,-1.8498,-1.8498,-1.8498,-1.8498,-1.8498,-1.8556,-1.8667,-1.8716,-1.8817,-1.8984,-1.8932,-1.8889,-1.8912,-1.8979,-1.9022,-1.9036,-1.9036,-1.904,-1.9078,-1.9116,-1.9116,-1.9116,-1.9116,-1.9116,-1.9195,-1.9191,-1.9195,-1.9232,-1.9306,-1.9541,-1.9741,-1.9726,-1.9797,-2.005,-2.0225,-2.0431,-2.0582,-2.0697,-2.0828,-2.0861,-2.0974,-2.1103,-2.1261,-2.1417,-2.1463,-2.1525,-2.1763,-2.1513,-2.109,-2.0619,-2.0167,-1.9969,-2.0107,-1.9879,-1.9345,-1.9102,-1.9085,-1.9107,-1.9158,-1.9259,-2.4125,-2.4112,-2.4203,-2.4434,-2.4721,-2.4765,-2.4778,-2.4734,-2.4765,-2.4977,-2.5257,-2.5188,-2.5258,-2.5411,-2.5397,-2.4874,-2.4444,-2.4231,-2.3791,-2.3227,-2.272,-2.2652,-2.2465,-2.2292,-2.2194,-2.2194,-2.2194,-2.2194,-2.2194,-2.2194,-2.2194,-2.2194,-2.2194,-2.2194,-2.2095,-2.1814,-2.1476,-2.1054,-2.0358,-1.955,-1.9362,-1.8821,-1.8512,-1.8498,-1.8498,-1.8498,-1.8498,-1.8498,-1.8498,-1.8498,-1.8498,-1.8498,-1.8498,-1.8498,-1.8498,-1.8498,-1.8498,-1.8498,-1.8498,-1.8498,-1.8635,-1.8925,-1.8954,-1.9084,-1.9219,-1.9316,-1.9501,-1.9475,-1.9318,-1.9108,-1.9171,-1.9133,-1.9027,-1.9055,-1.9097,-1.9116,-1.9116,-1.9116,-1.9116,-1.9134,-1.9116,-1.9134,-1.9157,-1.9232,-1.9413,-1.9596,-1.965,-1.9705,-1.9833,-1.9942,-1.9977,-2.01,-2.017,-2.0291,-2.0427,-2.0562,-2.0679,-2.0794,-2.0942,-2.1055,-2.1182,-2.1448,-2.1582,-2.1195,-2.0741,-2.0277,-1.998,-1.9781,-1.9473,-1.9122,-1.8958,-1.8832,-1.8905,-1.8982,-1.9092,-2.4096,-2.4125,-2.4112,-2.4141,-2.4187,-2.429,-2.4276,-2.4245,-2.4334,-2.4565,-2.4835,-2.492,-2.4977,-2.5033,-2.5033,-2.4504,-2.3782,-2.3642,-2.3387,-2.2962,-2.2595,-2.2594,-2.2624,-2.2521,-2.2194,-2.2194,-2.2194,-2.2194,-2.2194,-2.2194,-2.2194,-2.2194,-2.2194,-2.2194,-2.2194,-2.218,-2.1856,-2.1279,-2.0625,-2.0014,-1.9396,-1.8821,-1.8554,-1.8498,-1.8498,-1.8498,-1.8498,-1.8498,-1.8498,-1.8498,-1.8498,-1.8498,-1.8498,-1.8498,-1.8498,-1.8498,-1.8498,-1.8498,-1.8498,-1.8498,-1.877,-1.922,-1.931,-1.9647,-2.0189,-2.0373,-2.0252,-2.0073,-1.9837,-1.9615,-1.9489,-1.9276,-1.907,-1.8998,-1.904,-1.9078,-1.9078,-1.9116,-1.9116,-1.9116,-1.9116,-1.9116,-1.9139,-1.9213,-1.9376,-1.9487,-1.9574,-1.9647,-1.9705,-1.9744,-1.978,-1.9833,-1.9904,-2.001,-2.015,-2.0152,-2.0254,-2.034,-2.0494,-2.0662,-2.0795,-2.0974,-2.1054,-2.1067,-2.0582,-1.9896,-1.9558,-1.9274,-1.9109,-1.8946,-1.8723,-1.8622,-1.8725,-1.8825,-1.8931,-2.3819,-2.4125,-2.4125,-2.4125,-2.4112,-2.4141,-2.4128,-2.4141,-2.4261,-2.4408,-2.4565,-2.4551,-2.4679,-2.4778,-2.4682,-2.4293,-2.3784,-2.3891,-2.3762,-2.3234,-2.2693,-2.2822,-2.2849,-2.2536,-2.2184,-2.2194,-2.2194,-2.2194,-2.2194,-2.2194,-2.2194,-2.2194,-2.2194,-2.2194,-2.2194,-2.2151,-2.1898,-2.1293,-2.0681,-2.007,-1.9424,-1.8863,-1.8498,-1.8498,-1.8498,-1.8498,-1.8498,-1.8498,-1.8478,-1.8478,-1.8459,-1.8459,-1.8459,-1.8459,-1.8478,-1.8478,-1.8498,-1.8498,-1.8498,-1.854,-1.8779,-1.9291,-1.9803,-2.0126,-2.0415,-2.0429,-2.0458,-2.038,-1.9991,-1.9715,-1.9521,-1.9091,-1.8879,-1.8884,-1.8946,-1.8998,-1.905,-1.9078,-1.9116,-1.9116,-1.9116,-1.9116,-1.912,-1.9045,-1.9139,-1.9269,-1.9358,-1.9538,-1.9614,-1.9672,-1.9726,-1.9762,-1.9797,-1.9851,-1.9904,-1.9993,-2.008,-2.022,-2.0321,-2.0407,-2.051,-2.0646,-2.0681,-2.0765,-2.0126,-1.9483,-1.9154,-1.8886,-1.8941,-1.8836,-1.8474,-1.8391,-1.8547,-1.8669,-1.8797,-2.3407,-2.3848,-2.3848,-2.3966,-2.4083,-2.4125,-2.4125,-2.4112,-2.4203,-2.4276,-2.4334,-2.4276,-2.4347,-2.4463,-2.4394,-2.4074,-2.3697,-2.3635,-2.3689,-2.321,-2.2608,-2.2616,-2.2609,-2.2436,-2.2203,-2.217,-2.2194,-2.2194,-2.2194,-2.2194,-2.2194,-2.2194,-2.2194,-2.2194,-2.2194,-2.2137,-2.2039,-2.149,-2.092,-2.0224,-1.9635,-1.9087,-1.8512,-1.8498,-1.8498,-1.8498,-1.8498,-1.8478,-1.8445,-1.842,-1.838,-1.8361,-1.8321,-1.8301,-1.8321,-1.8327,-1.8406,-1.8425,-1.8478,-1.9143,-1.939,-1.9453,-2.0061,-2.0583,-2.0793,-2.0928,-2.0801,-2.0576,-2.0014,-1.9824,-1.9675,-1.9194,-1.8888,-1.893,-1.8831,-1.8903,-1.887,-1.8912,-1.895,-1.8969,-1.8984,-1.9021,-1.9007,-1.8931,-1.8874,-1.9007,-1.9139,-1.9288,-1.9487,-1.9614,-1.9672,-1.9708,-1.9744,-1.978,-1.9833,-1.9887,-1.9993,-2.0098,-2.0168,-2.0252,-2.0321,-2.046,-2.0458,-2.032,-1.9641,-1.9031,-1.87,-1.849,-1.8232,-1.8141,-1.8008,-1.8074,-1.833,-1.846,-1.8565,-2.2889,-2.333,-2.3403,-2.3671,-2.4024,-2.4031,-2.406,-2.4112,-2.4125,-2.4112,-2.4112,-2.4141,-2.4171,-2.4141,-2.4112,-2.3854,-2.3347,-2.2973,-2.2937,-2.2643,-2.2106,-2.2276,-2.2359,-2.2255,-2.2085,-2.2147,-2.2194,-2.2194,-2.2194,-2.2194,-2.2194,-2.2194,-2.2194,-2.2194,-2.2194,-2.2109,-2.2021,-2.1594,-2.0862,-2.0237,-1.9726,-1.8979,-1.8478,-1.8386,-1.8406,-1.8406,-1.8406,-1.8425,-1.8341,-1.8262,-1.8149,-1.8029,-1.7929,-1.7868,-1.7915,-1.7968,-1.8088,-1.8181,-1.8373,-1.9149,-1.9499,-1.9323,-1.9858,-2.0849,-2.1279,-2.108,-2.0781,-2.0608,-2.0194,-2.016,-2.0041,-1.953,-1.9055,-1.8925,-1.8731,-1.8685,-1.8625,-1.8649,-1.8707,-1.8741,-1.8755,-1.8755,-1.8741,-1.8669,-1.8475,-1.85,-1.8616,-1.8803,-1.9049,-1.9556,-1.9614,-1.9654,-1.969,-1.9741,-1.978,-1.9797,-1.9887,-1.9977,-2.0098,-2.0168,-2.0252,-2.027,-2.0304,-1.9999,-1.9184,-1.8527,-1.7962,-1.7535,-1.7235,-1.7224,-1.7515,-1.7777,-1.8057,-1.8156,-1.8266,-2.2402,-2.2859,-2.3241,-2.3492,-2.3564,-2.3482,-2.3678,-2.4057,-2.4125,-2.4112,-2.4125,-2.4125,-2.4125,-2.4125,-2.4112,-2.3952,-2.3566,-2.3167,-2.3147,-2.2671,-2.1865,-2.2047,-2.2133,-2.2111,-2.1981,-2.2053,-2.2123,-2.2147,-2.217,-2.217,-2.217,-2.2194,-2.217,-2.217,-2.21,-2.2006,-2.1816,-2.1424,-2.0659,-2.0114,-1.9523,-1.8679,-1.83,-1.8149,-1.8208,-1.8175,-1.8101,-1.8175,-1.8089,-1.7969,-1.7686,-1.751,-1.7489,-1.7271,-1.7133,-1.7154,-1.7271,-1.74,-1.7561,-1.8222,-1.868,-1.8733,-1.903,-1.9799,-2.0351,-2.0452,-2.0252,-2.0067,-1.981,-1.9539,-1.9275,-1.8891,-1.8562,-1.8358,-1.8167,-1.8043,-1.8014,-1.8147,-1.8206,-1.8187,-1.8201,-1.8313,-1.8319,-1.8181,-1.8022,-1.8008,-1.8068,-1.8266,-1.8539,-1.9011,-1.9306,-1.9347,-1.942,-1.9402,-1.9599,-1.9672,-1.978,-1.9871,-1.9925,-1.9995,-2.0063,-2.008,-2.0115,-1.9693,-1.8915,-1.7941,-1.7002,-1.6759,-1.6802,-1.6962,-1.7248,-1.7493,-1.7721,-1.7839,-1.7964,-2.1492,-2.1776,-2.2265,-2.2703,-2.3012,-2.2798,-2.309,-2.3715,-2.379,-2.3864,-2.4112,-2.4125,-2.4125,-2.4125,-2.4125,-2.4073,-2.3968,-2.3032,-2.2707,-2.2537,-2.174,-2.1647,-2.1708,-2.1897,-2.191,-2.1959,-2.2006,-2.202,-2.203,-2.1983,-2.1973,-2.203,-2.2077,-2.2091,-2.202,-2.1874,-2.1665,-2.1227,-2.0621,-1.9921,-1.9254,-1.8582,-1.8187,-1.7801,-1.7848,-1.7727,-1.7578,-1.7666,-1.7557,-1.7385,-1.7034,-1.693,-1.6888,-1.6697,-1.6663,-1.674,-1.6845,-1.6938,-1.7112,-1.7652,-1.7804,-1.7862,-1.8097,-1.8455,-1.8826,-1.8985,-1.9101,-1.9133,-1.8817,-1.8516,-1.8275,-1.8023,-1.781,-1.7628,-1.7453,-1.731,-1.7407,-1.7544,-1.7564,-1.753,-1.7612,-1.776,-1.774,-1.7618,-1.7557,-1.7578,-1.7564,-1.7646,-1.7928,-1.8338,-1.8616,-1.8722,-1.8869,-1.8997,-1.9203,-1.9347,-1.9384,-1.9442,-1.9555,-1.9627,-1.9767,-1.974,-1.9644,-1.9235,-1.8656,-1.77,-1.6757,-1.6669,-1.6686,-1.6808,-1.693,-1.7195,-1.7398,-1.7529,-1.7647,-2.0384,-2.0481,-2.0867,-2.1632,-2.2347,-2.1979,-2.2276,-2.309,-2.2907,-2.3376,-2.3858,-2.3962,-2.3842,-2.3717,-2.3707,-2.3731,-2.3433,-2.2676,-2.2219,-2.2283,-2.1404,-2.1116,-2.1298,-2.1423,-2.1592,-2.1769,-2.1841,-2.1769,-2.1736,-2.1712,-2.1712,-2.1783,-2.1878,-2.1878,-2.1746,-2.165,-2.1472,-2.1192,-2.0681,-2.0053,-1.9548,-1.8954,-1.8235,-1.7531,-1.7295,-1.7126,-1.6904,-1.6778,-1.6685,-1.6561,-1.6402,-1.6349,-1.6185,-1.6141,-1.6216,-1.6303,-1.6346,-1.6411,-1.6672,-1.7235,-1.73,-1.731,-1.7289,-1.7515,-1.784,-1.7878,-1.8031,-1.8178,-1.7916,-1.7748,-1.7549,-1.7316,-1.7122,-1.7002,-1.6884,-1.6769,-1.6774,-1.69,-1.6964,-1.6951,-1.7047,-1.7186,-1.7186,-1.7081,-1.7039,-1.7081,-1.7123,-1.7123,-1.731,-1.7666,-1.7974,-1.8179,-1.8414,-1.8583,-1.8583,-1.8717,-1.8846,-1.8959,-1.9095,-1.9207,-1.9277,-1.9229,-1.9115,-1.865,-1.8153,-1.7528,-1.6833,-1.6676,-1.6513,-1.6421,-1.657,-1.6866,-1.7045,-1.7141,-1.735,-2.007,-2.0405,-2.0523,-2.092,-2.1368,-2.0909,-2.0848,-2.1102,-2.103,-2.1939,-2.3119,-2.3051,-2.2884,-2.2906,-2.2934,-2.2947,-2.2714,-2.2283,-2.1812,-2.159,-2.1052,-2.0863,-2.0961,-2.1144,-2.1277,-2.1375,-2.1434,-2.1482,-2.1447,-2.1447,-2.1447,-2.1496,-2.1568,-2.1568,-2.1482,-2.1361,-2.1191,-2.0981,-2.0526,-2.0145,-1.9834,-1.8636,-1.7621,-1.7359,-1.7191,-1.673,-1.6529,-1.6513,-1.6426,-1.6297,-1.5966,-1.5702,-1.5401,-1.5412,-1.5412,-1.5457,-1.5657,-1.5746,-1.6029,-1.6611,-1.6869,-1.6955,-1.7003,-1.7158,-1.7195,-1.6993,-1.6955,-1.7098,-1.7115,-1.6999,-1.6869,-1.6629,-1.6475,-1.6414,-1.6352,-1.6281,-1.6197,-1.6284,-1.638,-1.6445,-1.6531,-1.6573,-1.6607,-1.6586,-1.6543,-1.6543,-1.6565,-1.6607,-1.668,-1.6964,-1.7441,-1.77,-1.804,-1.8179,-1.81,-1.8133,-1.8266,-1.8442,-1.8621,-1.8712,-1.8803,-1.8698,-1.8569,-1.8098,-1.7605,-1.7144,-1.6822,-1.6635,-1.6457,-1.6178,-1.6202,-1.649,-1.6546,-1.661,-1.6927,-1.9574,-1.9408,-1.94,-1.9807,-2.0294,-1.9904,-1.9941,-2.0294,-2.016,-2.0744,-2.1888,-2.2051,-2.211,-2.2143,-2.2291,-2.2335,-2.2217,-2.1773,-2.1616,-2.1368,-2.1026,-2.0854,-2.0875,-2.0961,-2.112,-2.1204,-2.118,-2.1204,-2.1131,-2.1158,-2.1182,-2.1229,-2.1253,-2.1277,-2.1215,-2.1057,-2.081,-2.0548,-2.0156,-1.9965,-1.9804,-1.8674,-1.7703,-1.7481,-1.7073,-1.6596,-1.6232,-1.6149,-1.5994,-1.5797,-1.5501,-1.5367,-1.5198,-1.5176,-1.5131,-1.5153,-1.5221,-1.5187,-1.5487,-1.5939,-1.6501,-1.6617,-1.6889,-1.7141,-1.7023,-1.683,-1.6525,-1.6612,-1.6379,-1.6254,-1.6208,-1.6031,-1.6021,-1.5985,-1.6017,-1.6003,-1.5991,-1.6001,-1.6066,-1.6088,-1.6175,-1.6228,-1.6284,-1.6362,-1.6318,-1.634,-1.6318,-1.6383,-1.6414,-1.6457,-1.6871,-1.7193,-1.751,-1.753,-1.7359,-1.7462,-1.7666,-1.7888,-1.8108,-1.8226,-1.8285,-1.8179,-1.7981,-1.7749,-1.7479,-1.7149,-1.6864,-1.659,-1.617,-1.5802,-1.5911,-1.6119,-1.6136,-1.6168,-1.6382,-1.9011,-1.8249,-1.8169,-1.8685,-1.9436,-1.9023,-1.9279,-1.9898,-1.968,-1.9641,-2.0135,-2.0917,-2.1297,-2.1624,-2.1855,-2.2044,-2.1943,-2.1433,-2.1342,-2.1211,-2.0883,-2.0789,-2.0825,-2.0911,-2.0997,-2.1021,-2.1021,-2.0898,-2.0799,-2.0861,-2.0936,-2.0983,-2.1033,-2.1095,-2.0983,-2.0822,-2.0573,-2.0182,-1.985,-1.9604,-1.9226,-1.8764,-1.8054,-1.7554,-1.7142,-1.6711,-1.6226,-1.5843,-1.5648,-1.5441,-1.5268,-1.5153,-1.5131,-1.5119,-1.5119,-1.5119,-1.5119,-1.52,-1.543,-1.5938,-1.6241,-1.6451,-1.6863,-1.7075,-1.7028,-1.6795,-1.649,-1.6209,-1.5994,-1.5753,-1.5696,-1.5625,-1.5659,-1.5715,-1.576,-1.5792,-1.5792,-1.5814,-1.5814,-1.5836,-1.5891,-1.5957,-1.6022,-1.61,-1.6156,-1.6166,-1.621,-1.6287,-1.6352,-1.6383,-1.6586,-1.6723,-1.6892,-1.6842,-1.6748,-1.696,-1.7248,-1.7344,-1.7557,-1.7686,-1.7767,-1.7727,-1.7693,-1.7693,-1.7398,-1.7162,-1.6794,-1.6468,-1.6018,-1.5646,-1.5551,-1.5726,-1.595,-1.5979,-1.5915,-1.8536,-1.8713,-1.8283,-1.8467,-1.8919,-1.8478,-1.8373,-1.8509,-1.8488,-1.8467,-1.8764,-1.9108,-1.9662,-2.0333,-2.0398,-2.0669,-2.1147,-2.0911,-2.0883,-2.0777,-2.0764,-2.0725,-2.0737,-2.0812,-2.0787,-2.0799,-2.0799,-2.0749,-2.0699,-2.0724,-2.0749,-2.0774,-2.0774,-2.0774,-2.0686,-2.0472,-2.0156,-1.9798,-1.937,-1.9078,-1.8855,-1.8462,-1.8127,-1.7603,-1.7095,-1.6771,-1.6405,-1.6071,-1.5889,-1.5671,-1.5337,-1.5165,-1.5119,-1.5119,-1.5119,-1.5119,-1.5119,-1.5337,-1.5648,-1.612,-1.6433,-1.6963,-1.7396,-1.7728,-1.7566,-1.7268,-1.6921,-1.6541,-1.6243,-1.5833,-1.5715,-1.5583,-1.557,-1.5671,-1.5738,-1.577,-1.5792,-1.5792,-1.5814,-1.5814,-1.5836,-1.5859,-1.5881,-1.5925,-1.5969,-1.5991,-1.6044,-1.6122,-1.621,-1.6275,-1.6328,-1.6383,-1.6448,-1.6491,-1.6577,-1.6697,-1.6897,-1.6939,-1.7044,-1.7261,-1.7365,-1.7303,-1.7289,-1.74,-1.7423,-1.7256,-1.6881,-1.6444,-1.6257,-1.5932,-1.5415,-1.5341,-1.5616,-1.5693,-1.558]},{"header":{"parameterUnit":"m.s-1","parameterCategory":1,"la1":31.0,"la2":29.5877,"lo1":-88.7671,"lo2":-86.6584,"dy":0.0162,"dx":0.0185,"nx":115,"ny":88,"refTime":"2026-03-23T12:00:00:Z","depth":0,"parameterNumber":3,"parameterNumberName":"V-component_of_WINDS"},"data":[0.0,0.0,0.0,0.0,0.0,0.0,0.0,0.0,0.0,0.0,0.0,0.0,0.0,0.0,0.0,0.0,0.0,0.0,0.0,0.0,0.0,0.0,0.0,0.0,0.0,0.0,0.0,0.0,0.0,0.0,0.0,0.0,0.0,0.0,0.0,0.0,0.0,0.0,0.0,0.0,0.0,0.0,0.0,0.0,0.0,0.0,0.0,0.0,0.0,0.0,0.0,0.0,0.0,0.0,0.0,0.0,0.0,0.0,0.0,0.0,0.0,0.0,0.0,0.0,0.0,0.0,0.0,0.0,0.0,0.0,0.0,0.0,0.0,0.0,0.0,0.0,0.0,0.0,0.0,0.0,0.0,0.0,0.0,0.0,0.0,0.0,0.0,0.0,0.0,0.0,0.0,0.0,0.0,0.0,0.0,0.0,0.0,0.0,0.0,0.0,0.0,0.0,0.0,0.0,0.0,0.0,0.0,0.0,0.0,0.0,0.0,0.0,0.0,0.0,0.0,0.0,0.0,0.0,0.0,0.0,0.0,0.0,0.0,0.0,0.0,0.0,0.0,0.0,0.0,0.0,0.0,0.0,0.0,0.0,0.0,0.0,0.0,0.0,0.0,0.0,0.0,0.0,0.0,0.0,0.0,0.0,0.0,0.0,0.0,0.0,0.0,0.0,0.0,0.0,0.0,0.0,0.0,0.0,0.0,0.0,0.0,0.0,0.0,0.0,0.0,0.0,0.0,0.0,0.0,0.0,0.0,0.0,0.0,0.0,0.0,0.0,0.0,0.0,0.0,0.0,0.0,0.0,0.0,0.0,0.0,0.0,0.0,0.0,0.0,0.0,0.0,0.0,0.0,0.0,0.0,0.0,0.0,0.0,0.0,0.0,0.0,0.0,0.0,0.0,0.0,0.0,0.0,0.0,0.0,0.0,0.0,0.0,0.0,0.0,0.0,0.0,0.0,0.0,0.0,0.0,0.0,0.0,0.0,0.0,0.0,0.0,0.0,0.0,0.0,0.0,0.0,0.0,0.0,0.0,0.0,0.0,0.0,0.0,0.0,0.0,0.0,0.0,0.0,0.0,0.0,0.0,0.0,0.0,0.0,0.0,0.0,0.0,0.0,0.0,0.0,0.0,0.0,0.0,0.0,0.0,0.0,0.0,0.0,0.0,0.0,0.0,0.0,0.0,0.0,0.0,0.0,0.0,0.0,0.0,0.0,0.0,0.0,0.0,0.0,0.0,0.0,0.0,0.0,0.0,0.0,0.0,0.0,0.0,0.0,0.0,0.0,0.0,0.0,0.0,0.0,0.0,0.0,0.0,0.0,0.0,0.0,0.0,0.0,0.0,0.0,0.0,0.0,0.0,0.0,0.0,0.0,0.0,0.0,0.0,0.0,0.0,0.0,0.0,0.0,0.0,0.0,0.0,0.0,0.0,0.0,0.0,0.0,0.0,0.0,0.0,0.0,0.0,0.0,0.0,0.0,0.0,0.0,0.0,0.0,0.0,0.0,0.0,0.0,0.0,0.0,0.0,0.0,0.0,0.0,0.0,0.0,0.0,0.0,0.0,0.0,0.0,0.0,0.0,0.0,0.0,0.0,0.0,0.0,0.0,0.0,0.0,0.0,0.0,0.0,0.0,0.0,0.0,0.0,0.0,0.0,0.0,0.0,0.0,0.0,0.0,0.0,0.0,0.0,0.0,0.0,0.0,0.0,0.0,0.0,0.0,0.0,0.0,0.0,0.0,0.0,0.0,0.0,0.0,0.0,0.0,0.0,0.0,0.0,0.0,0.0,0.0,0.0,0.0,0.0,0.0,0.0,0.0,0.0,0.0,0.0,0.0,0.0,0.0,0.0,0.0,0.0,0.0,0.0,0.0,0.0,0.0,0.0,0.0,0.0,0.0,0.0,0.0,0.0,0.0,0.0,0.0,0.0,0.0,0.0,0.0,0.0,0.0,0.0,0.0,0.0,0.0,0.0,0.0,0.0,0.0,0.0,0.0,0.0,0.0,0.0,0.0,0.0,0.0,0.0,0.0,0.0,0.0,0.0,0.0,0.0,0.0,0.0,0.0,0.0,0.0,0.0,0.0,0.0,0.0,0.0,0.0,0.0,0.0,0.0,0.0,0.0,0.0,0.0,0.0,0.0,0.0,0.0,0.0,0.0,0.0,0.0,0.0,0.0,0.0,0.0,0.0,0.0,0.0,0.0,0.0,0.0,0.0,0.0,0.0,0.0,0.0,0.0,0.0,0.0,0.0,0.0,0.0,0.0,0.0,0.0,0.0,0.0,0.0,0.0,0.0,0.0,0.0,0.0,0.0,0.0,0.0,0.0,0.0,0.0,0.0,0.0,0.0,0.0,0.0,0.0,0.0,0.0,0.0,0.0,0.0,0.0,0.0,0.0,0.0,0.0,0.0,0.0,0.0,0.0,0.0,0.0,0.0,0.0,0.0,0.0,0.0,0.0,0.0,0.0,0.0,0.0,0.0,0.0,0.0,0.0,0.0,0.0,0.0,0.0,0.0,0.0,0.0,0.0,0.0,0.0,0.0,0.0,0.0,0.0,0.0,0.0,0.0,0.0,0.0,0.0,0.0,0.0,0.0,0.0,0.0,0.0,0.0,0.0,0.0,0.0,0.0,0.0,0.0,0.0,0.0,0.0,0.0,0.0,0.0,0.0,0.0,0.0,0.0,0.0,0.0,0.0,0.0,0.0,0.0,0.0,0.0,0.0,0.0,0.0,0.0,0.0,0.0,0.0,0.0,0.0,0.0,0.0,0.0,0.0,0.0,0.0,0.0,0.0,0.0,0.0,0.0,0.0,0.0,0.0,0.0,0.0,0.0,0.0,0.0,0.0,0.0,0.0,0.0,0.0,0.0,0.0,0.0,0.0,0.0,0.0,0.0,0.0,0.0,0.0,0.0,0.0,0.0,0.0,0.0,0.0,0.0,0.0,0.0,0.0,0.0,0.0,0.0,0.0,0.0,0.0,0.0,0.0,0.0,0.0,0.0,0.0,0.0,0.0,0.0,0.0,0.0,0.0,0.0,0.0,0.0,0.0,0.0,0.0,0.0,0.0,0.0,0.0,0.0,0.0,0.0,0.0,0.0,0.0,0.0,0.0,0.0,0.0,0.0,0.0,0.0,0.0,0.0,0.0,0.0,0.0,0.0,0.0,0.0,0.0,0.0,0.0,0.0,0.0,0.0,0.0,0.0,0.0,0.0,0.0,0.0,0.0,0.0,0.0,0.0,0.0,0.0,0.0,0.0,0.0,0.0,0.0,0.0,0.0,0.0,0.0,0.0,0.0,0.0,0.0,0.0,0.0,0.0,0.0,0.0,0.0,0.0,0.0,0.0,0.0,0.0,0.0,0.0,0.0,0.0,0.0,0.0,0.0,0.0,0.0,0.0,0.0,0.0,0.0,0.0,0.0,0.0,0.0,0.0,0.0,0.0,0.0,0.0,0.0,0.0,0.0,0.0,0.0,0.0,0.0,0.0,0.0,0.0,0.0,0.0,0.0,0.0,0.0,0.0,0.0,0.0,0.0,0.0,0.0,0.0,0.0,0.0,0.0,0.0,0.0,0.0,0.0,0.0,0.0,0.0,0.0,0.0,0.0,0.0,0.0,0.0,0.0,0.0,0.0,0.0,0.0,0.0,0.0,0.0,0.0,0.0,0.0,0.0,0.0,0.0,0.0,0.0,0.0,0.0,0.0,0.0,0.0,0.0,0.0,0.0,0.0,0.0,0.0,0.0,0.0,0.0,0.0,0.0,0.0,0.0,0.0,0.0,0.0,0.0,0.0,0.0,0.0,0.0,0.0,0.0,0.0,0.0,0.0,0.0,0.0,0.0,0.0,0.0,0.0,0.0,0.0,0.0,0.0,0.0,0.0,0.0,0.0,0.0,0.0,0.0,0.0,0.0,0.0,0.0,0.0,0.0,0.0,0.0,0.0,0.0,0.0,0.0,0.0,0.0,0.0,0.0,0.0,0.0,0.0,0.0,0.0,0.0,0.0,0.0,0.0,0.0,0.0,0.0,0.0,0.0,0.0,0.0,0.0,0.0,0.0,0.0,0.0,0.0,0.0,0.0,0.0,0.0,0.0,0.0,0.0,0.0,0.0,0.0,0.0,0.0,0.0,0.0,0.0,0.0,0.0,0.0,0.0,0.0,0.0,0.0,0.0,0.0,0.0,0.0,0.0,0.0,0.0,0.0,0.0,0.0,0.0,0.0,0.0,0.0,0.0,0.0,0.0,0.0,0.0,0.0,0.0,0.0,-0.6719,0.0,0.0,0.0,0.0,0.0,0.0,0.0,0.0,0.0,0.0,0.0,0.0,0.0,0.0,0.0,0.0,0.0,0.0,0.0,0.0,0.0,0.0,0.0,0.0,0.0,0.0,0.0,0.0,0.0,0.0,0.0,0.0,0.0,0.0,0.0,0.0,0.0,0.0,0.0,0.0,0.0,0.0,0.0,0.0,0.0,0.0,0.0,0.0,0.0,0.0,0.0,0.0,0.0,0.0,0.0,0.0,0.0,0.0,0.0,0.0,0.0,0.0,0.0,0.0,0.0,0.0,0.0,0.0,0.0,0.0,0.0,0.0,0.0,0.0,0.0,0.0,0.0,0.0,0.0,0.0,0.0,0.0,0.0,0.0,0.0,0.0,0.0,0.0,0.0,0.0,0.0,0.0,0.0,0.0,0.0,0.0,0.0,0.0,0.0,0.0,0.0,0.0,0.0,0.0,0.0,0.0,0.0,0.0,0.0,0.0,-0.5337,-0.7017,-0.7288,-0.7204,-0.6722,0.0,0.0,0.0,0.0,0.0,0.0,0.0,0.0,0.0,0.0,0.0,0.0,0.0,0.0,0.0,0.0,0.0,0.0,0.0,0.0,0.0,0.0,0.0,0.0,0.0,0.0,0.0,0.0,0.0,0.0,0.0,0.0,0.0,0.0,0.0,0.0,0.0,0.0,0.0,0.0,0.0,0.0,0.0,0.0,0.0,0.0,0.0,0.0,0.0,0.0,0.0,0.0,0.0,0.0,0.0,0.0,0.0,0.0,0.0,0.0,0.0,0.0,0.0,0.0,0.0,0.0,0.0,0.0,0.0,0.0,0.0,0.0,0.0,0.0,0.0,0.0,0.0,0.0,0.0,0.0,0.0,0.0,0.0,0.0,0.0,0.0,0.0,0.0,0.0,0.0,0.0,0.0,0.0,0.0,0.0,0.0,0.0,0.0,0.0,0.0,0.0,0.0,0.0,0.0,0.0,0.0,0.0,0.0,0.0,0.0,0.0,0.0,-0.7343,-0.7197,-0.676,0.0,0.0,0.0,0.0,0.0,0.0,0.0,0.0,0.0,0.0,0.0,0.0,0.0,0.0,0.0,0.0,0.0,0.0,0.0,0.0,0.0,0.0,0.0,0.0,0.0,0.0,0.0,0.0,0.0,0.0,0.0,0.0,0.0,0.0,0.0,0.0,0.0,0.0,0.0,0.0,0.0,0.0,0.0,0.0,0.0,0.0,0.0,0.0,0.0,0.0,0.0,0.0,0.0,0.0,0.0,0.0,0.0,0.0,0.0,0.0,0.0,0.0,0.0,0.0,0.0,0.0,0.0,0.0,0.0,0.0,0.0,0.0,0.0,0.0,0.0,0.0,0.0,0.0,0.0,0.0,0.0,0.0,0.0,0.0,0.0,0.0,0.0,0.0,0.0,0.0,0.0,0.0,0.0,0.0,0.0,0.0,0.0,0.0,0.0,0.0,0.0,0.0,0.0,0.0,0.0,0.0,0.0,0.0,0.0,0.0,-0.5433,-0.7307,-0.7492,0.0,-0.6781,0.0,0.0,0.0,0.0,0.0,0.0,0.0,0.0,0.0,0.0,0.0,0.0,0.0,0.0,0.0,0.0,0.0,0.0,0.0,0.0,0.0,0.0,0.0,0.0,0.0,0.0,0.0,0.0,0.0,0.0,0.0,0.0,0.0,0.0,0.0,0.0,0.0,0.0,0.0,0.0,0.0,0.0,0.0,0.0,0.0,0.0,0.0,0.0,0.0,0.0,0.0,0.0,0.0,0.0,0.0,0.0,0.0,0.0,0.0,0.0,0.0,0.0,0.0,0.0,0.0,0.0,0.0,0.0,0.0,0.0,0.0,0.0,0.0,0.0,0.0,0.0,0.0,0.0,0.0,0.0,0.0,0.0,0.0,0.0,0.0,0.0,0.0,0.0,0.0,0.0,0.0,0.0,0.0,0.0,0.0,0.0,0.0,0.0,0.0,0.0,0.0,0.0,0.0,0.0,0.0,0.0,0.0,0.0,0.0,0.0,-0.5506,-0.7373,-0.7261,-0.7001,0.0,0.0,0.0,0.0,0.0,0.0,0.0,0.0,0.0,0.0,0.0,0.0,0.0,0.0,0.0,0.0,0.0,0.0,0.0,0.0,0.0,0.0,0.0,0.0,0.0,0.0,0.0,0.0,0.0,0.0,0.0,0.0,0.0,0.0,0.0,0.0,0.0,0.0,0.0,0.0,0.0,0.0,0.0,0.0,0.0,0.0,0.0,0.0,0.0,0.0,0.0,0.0,0.0,0.0,0.0,0.0,0.0,0.0,0.0,0.0,0.0,0.0,0.0,0.0,0.0,0.0,0.0,0.0,0.0,0.0,0.0,0.0,0.0,0.0,0.0,0.0,0.0,0.0,0.0,0.0,0.0,0.0,0.0,0.0,0.0,0.0,0.0,0.0,0.0,0.0,0.0,0.0,0.0,0.0,0.0,0.0,0.0,0.0,0.0,0.0,0.0,0.0,0.0,0.0,0.0,0.0,0.0,0.0,0.0,0.0,-0.4562,-0.5518,-0.7275,-0.7204,-0.6946,-0.659,0.0,0.0,0.0,0.0,0.0,0.0,0.0,0.0,0.0,0.0,0.0,0.0,0.0,0.0,0.0,0.0,0.0,0.0,0.0,0.0,0.0,0.0,0.0,0.0,0.0,0.0,0.0,0.0,0.0,0.0,0.0,0.0,0.0,0.0,0.0,0.0,0.0,0.0,0.0,0.0,0.0,0.0,0.0,0.0,0.0,0.0,0.0,0.0,0.0,0.0,0.0,0.0,0.0,0.0,0.0,0.0,0.0,0.0,0.0,0.0,0.0,0.0,0.0,0.0,0.0,0.0,0.0,0.0,0.0,0.0,0.0,0.0,0.0,0.0,0.0,0.0,0.0,0.0,0.0,0.0,0.0,0.0,0.0,0.0,0.0,0.0,0.0,0.0,0.0,0.0,0.0,0.0,0.0,0.0,0.0,0.0,0.0,0.0,0.0,0.0,0.0,0.0,0.0,0.0,0.0,0.0,0.0,0.0,-0.4583,-0.4612,-0.5443,-0.7334,-0.7499,-0.7166,0.0,0.0,0.0,0.0,0.0,0.0,0.0,0.0,0.0,0.0,0.0,0.0,0.0,0.0,0.0,0.0,0.0,0.0,0.0,0.0,0.0,0.0,0.0,0.0,0.0,0.0,0.0,0.0,0.0,0.0,0.0,0.0,0.0,0.0,0.0,0.0,0.0,0.0,0.0,0.0,0.0,0.0,0.0,0.0,0.0,0.0,0.0,0.0,0.0,0.0,0.0,0.0,0.0,0.0,0.0,0.0,0.0,0.0,0.0,0.0,0.0,0.0,0.0,0.0,0.0,0.0,0.0,0.0,0.0,0.0,0.0,0.0,0.0,0.0,0.0,0.0,0.0,0.0,0.0,0.0,0.0,0.0,0.0,0.0,0.0,0.0,0.0,0.0,0.0,0.0,0.0,0.0,0.0,0.0,0.0,0.0,0.0,0.0,0.0,0.0,0.0,0.0,0.0,0.0,0.0,0.0,0.0,0.0,0.0,-0.4383,-0.5694,-0.6762,-0.7628,-0.7248,-0.6871,0.0,0.0,0.0,0.0,0.0,0.0,0.0,0.0,0.0,0.0,0.0,0.0,0.0,0.0,0.0,0.0,0.0,0.0,0.0,0.0,0.0,0.0,0.0,0.0,0.0,0.0,0.0,0.0,0.0,0.0,0.0,0.0,0.0,0.0,0.0,0.0,0.0,0.0,0.0,0.0,0.0,0.0,0.0,0.0,0.0,0.0,0.0,0.0,0.0,0.0,0.0,0.0,0.0,0.0,0.0,0.0,0.0,0.0,0.0,0.0,0.0,0.0,0.0,0.0,0.0,0.0,0.0,0.0,0.0,0.0,0.0,0.0,0.0,0.0,0.0,0.0,0.0,0.0,0.0,0.0,0.0,0.0,0.0,0.0,0.0,0.0,0.0,0.0,0.0,0.0,0.0,0.0,0.0,0.0,0.0,0.0,0.0,0.0,0.0,0.0,0.0,0.0,0.0,0.0,0.0,0.0,0.0,0.0,0.0,-0.3882,0.0,-0.6926,-0.7054,-0.6982,-0.6759,0.0,0.0,0.0,0.0,0.0,0.0,0.0,0.0,0.0,0.0,0.0,0.0,0.0,0.0,0.0,0.0,0.0,0.0,0.0,0.0,0.0,0.0,0.0,0.0,0.0,0.0,0.0,0.0,0.0,0.0,0.0,0.0,0.0,0.0,0.0,0.0,0.0,0.0,0.0,0.0,0.0,0.0,0.0,0.0,0.0,0.0,0.0,0.0,0.0,0.0,0.0,0.0,0.0,0.0,0.0,0.0,0.0,0.0,0.0,0.0,0.0,0.0,0.0,0.0,0.0,0.0,0.0,0.0,0.0,0.0,0.0,0.0,0.0,0.0,0.0,0.0,0.0,0.0,0.0,0.0,0.0,0.0,0.0,0.0,0.0,0.0,0.0,0.0,0.0,0.0,0.0,0.0,0.0,0.0,0.0,0.0,0.0,0.0,0.0,0.0,0.0,0.0,0.0,0.0,0.0,0.0,0.0,0.0,-0.195,-0.3132,-0.4921,-0.5792,-0.5568,-0.6728,-0.6907,0.0,0.0,0.0,0.0,0.0,0.0,0.0,0.0,0.0,0.0,0.0,0.0,0.0,0.0,0.0,0.0,0.0,0.0,0.0,0.0,0.0,0.0,0.0,0.0,0.0,0.0,0.0,0.0,0.0,0.0,0.0,0.0,0.0,0.0,0.0,0.0,0.0,0.0,0.0,0.0,0.0,0.0,0.0,0.0,0.0,0.0,0.0,0.0,0.0,0.0,0.0,0.0,0.0,0.0,0.0,0.0,0.0,0.0,0.0,0.0,0.0,0.0,0.0,0.0,0.0,0.0,0.0,0.0,0.0,0.0,0.0,0.0,0.0,0.0,0.0,0.0,0.0,0.0,0.0,0.0,0.0,0.0,0.0,0.0,0.0,0.0,0.0,0.0,0.0,0.0,0.0,0.0,0.0,0.0,0.0,0.0,0.0,0.0,0.0,0.0,0.0,0.0,0.0,0.0,0.0,0.0,0.0,0.0,0.0,-0.4019,-0.5111,-0.6111,-0.7023,-0.6972,-0.6756,0.0,0.0,0.0,0.0,0.0,0.0,0.0,0.0,0.0,0.0,0.0,0.0,0.0,0.0,0.0,0.0,0.0,0.0,0.0,0.0,0.0,0.0,0.0,0.0,0.0,0.0,0.0,0.0,0.0,0.0,0.0,0.0,0.0,0.0,0.0,0.0,0.0,0.0,0.0,0.0,0.0,0.0,0.0,0.0,0.0,0.0,0.0,0.0,0.0,0.0,0.0,0.0,0.0,0.0,0.0,0.0,0.0,0.0,0.0,0.0,0.0,0.0,0.0,0.0,0.0,0.0,0.0,0.0,0.0,0.0,0.0,0.0,0.0,0.0,0.0,0.0,0.0,0.0,0.0,0.0,0.0,0.0,0.0,0.0,0.0,0.0,0.0,0.0,0.0,0.0,0.0,0.0,0.0,0.0,0.0,0.0,0.0,0.0,0.0,0.0,0.0,0.0,0.0,0.0,0.0,0.0,0.0,0.0,0.0,-0.3619,-0.4559,-0.5417,-0.628,-0.6672,-0.6763,-0.6576,0.0,0.0,0.0,0.0,0.0,0.0,0.0,0.0,0.0,0.0,0.0,0.0,0.0,0.0,0.0,0.0,0.0,0.0,0.0,0.0,0.0,0.0,0.0,0.0,0.0,0.0,0.0,0.0,0.0,0.0,0.0,0.0,0.0,0.0,0.0,0.0,0.0,0.0,0.0,0.0,0.0,0.0,0.0,0.0,0.0,0.0,0.0,0.0,0.0,0.0,0.0,0.0,0.0,0.0,0.0,0.0,0.0,0.0,0.0,0.0,0.0,0.0,0.0,0.0,0.0,0.0,0.0,0.0,0.0,0.0,0.0,0.0,0.0,0.0,0.0,0.0,0.0,0.0,0.0,0.0,0.0,0.0,0.0,0.0,0.0,0.0,0.0,0.0,0.0,0.0,0.0,0.0,0.0,0.0,0.0,0.0,0.0,0.0,0.0,0.0,0.0,0.0,0.0,0.0,0.0,0.0,0.0,0.0,-0.2188,-0.3303,-0.3902,-0.4014,-0.5946,-0.68,0.0,0.0,0.0,0.0,0.0,0.0,0.0,0.0,0.0,0.0,0.0,0.0,0.0,0.0,0.0,0.0,0.0,0.0,0.0,0.0,0.0,0.0,0.0,0.0,0.0,0.0,0.0,0.0,0.0,0.0,0.0,0.0,0.0,0.0,0.0,0.0,0.0,0.0,0.0,0.0,0.0,0.0,0.0,0.0,0.0,0.0,0.0,0.0,0.0,0.0,0.0,0.0,0.0,0.0,0.0,0.0,0.0,0.0,0.0,0.0,0.0,0.0,0.0,0.0,0.0,0.0,0.0,0.0,0.0,0.0,0.0,0.0,0.0,0.0,0.0,0.0,0.0,0.0,0.0,0.0,0.0,0.0,0.0,0.0,0.0,0.0,0.0,0.0,0.0,0.0,0.0,0.0,0.0,0.0,0.0,0.0,0.0,0.0,0.0,0.0,0.0,0.0,0.0,0.0,0.0,0.0,0.0,0.0,0.0,-0.0924,-0.1988,-0.3425,-0.5349,-0.5782,-0.6245,0.0,0.0,0.0,0.0,0.0,0.0,0.0,0.0,0.0,0.0,0.0,0.0,0.0,0.0,0.0,0.0,0.0,0.0,0.0,0.0,0.0,0.0,0.0,0.0,0.0,0.0,0.0,0.0,0.0,0.0,0.0,0.0,0.0,0.0,0.0,0.0,0.0,0.0,0.0,0.0,0.0,0.0,0.0,0.0,0.0,0.0,0.0,0.0,0.0,0.0,0.0,0.0,0.0,0.0,0.0,0.0,0.0,0.0,0.0,0.0,0.0,0.0,0.0,0.0,0.0,0.0,0.0,0.0,0.0,0.0,0.0,0.0,0.0,0.0,0.0,0.0,0.0,0.0,0.0,0.0,0.0,0.0,0.0,0.0,0.0,0.0,0.0,0.0,0.0,0.0,0.0,0.0,0.0,0.0,0.0,0.0,0.0,0.0,0.0,0.0,0.0,0.0,0.0,0.0,0.0,0.0,0.0,0.0,-0.0573,-0.0248,-0.096,-0.2253,-0.4234,-0.5131,-0.6017,0.0,0.0,0.0,0.0,0.0,0.0,0.0,0.0,0.0,0.0,0.0,0.0,0.0,0.0,0.0,0.0,0.0,0.0,0.0,0.0,0.0,0.0,0.0,0.0,0.0,0.0,0.0,0.0,0.0,0.0,0.0,0.0,0.0,0.0,0.0,0.0,0.0,0.0,0.0,0.0,0.0,0.0,0.0,0.0,0.0,0.0,0.0,0.0,0.0,0.0,0.0,0.0,0.0,0.0,0.0,0.0,0.0,0.0,0.0,0.0,0.0,0.0,0.0,0.0,0.0,0.0,0.0,0.0,0.0,0.0,0.0,0.0,0.0,0.0,0.0,0.0,0.0,0.0,0.0,0.0,0.0,0.0,0.0,0.0,0.0,0.0,0.0,0.0,0.0,0.0,0.0,0.0,0.0,0.0,0.0,0.0,0.0,0.0,0.0,0.0,0.0,0.0,0.0,0.0,0.0,0.0,0.0,0.0,-0.0486,0.0,-0.0205,-0.0879,-0.2009,-0.4201,-0.5815,0.0,0.0,0.0,0.0,0.0,0.0,0.0,0.0,0.0,0.0,0.0,0.0,0.0,0.0,0.0,0.0,0.0,0.0,0.0,0.0,0.0,0.0,0.0,0.0,0.0,0.0,0.0,0.0,0.0,0.0,0.0,0.0,0.0,0.0,0.0,0.0,0.0,0.0,0.0,0.0,0.0,0.0,0.0,0.0,0.0,0.0,0.0,0.0,0.0,0.0,0.0,0.0,0.0,0.0,0.0,0.0,0.0,0.0,0.0,0.0,0.0,0.0,0.0,0.0,0.0,0.0,0.0,0.0,0.0,0.0,0.0,0.0,0.0,0.0,0.0,0.0,0.0,0.0,0.0,0.0,0.0,0.0,0.0,0.0,0.0,0.0,0.0,0.0,0.0,0.0,0.0,0.0,0.0,0.0,0.0,0.0,0.0,0.0,0.0,0.0,0.0,0.0,0.0,0.0,0.0,0.0,0.0,0.0,-0.0338,0.0,-0.005,-0.071,-0.1974,-0.3399,-0.46,0.0,0.0,0.0,0.0,0.0,0.0,0.0,0.0,0.0,0.0,0.0,0.0,0.0,0.0,0.0,0.0,0.0,0.0,0.0,0.0,0.0,0.0,0.0,0.0,0.0,0.0,0.0,0.0,0.0,0.0,0.0,0.0,0.0,0.0,0.0,0.0,0.0,0.0,0.0,0.0,0.0,0.0,0.0,0.0,0.0,0.0,0.0,0.0,-0.5708,0.0,0.0,0.0,0.0,0.0,0.0,0.0,0.0,0.0,0.0,0.0,0.0,0.0,0.0,0.0,0.0,0.0,0.0,0.0,0.0,0.0,0.0,0.0,0.0,0.0,0.0,0.0,0.0,0.0,0.0,0.0,0.0,0.0,0.0,0.0,0.0,0.0,0.0,0.0,0.0,0.0,0.0,0.0,0.0,0.0,0.0,0.0,0.0,0.0,0.0,0.0,0.0,0.0,0.0,0.0,0.0,0.0,0.0,0.0,-0.0242,0.0,0.0,-0.0353,-0.1057,-0.2837,-0.4231,0.0,0.0,0.0,0.0,0.0,0.0,0.0,0.0,0.0,0.0,0.0,0.0,0.0,0.0,0.0,0.0,0.0,0.0,0.0,0.0,0.0,0.0,0.0,0.0,0.0,0.0,0.0,0.0,0.0,0.0,0.0,0.0,0.0,0.0,0.0,0.0,0.0,0.0,0.0,0.0,0.0,0.0,0.0,0.0,0.0,0.0,0.0,0.0,0.0,0.0,0.0,0.0,0.0,0.0,0.0,0.0,0.0,0.0,0.0,0.0,0.0,0.0,0.0,0.0,0.0,0.0,0.0,0.0,0.0,0.0,0.0,0.0,0.0,0.0,0.0,0.0,0.0,0.0,0.0,0.0,0.0,0.0,0.0,0.0,0.0,0.0,0.0,0.0,0.0,0.0,0.0,0.0,0.0,0.0,0.0,0.0,0.0,0.0,0.0,0.0,0.0,0.0,0.0,0.0,0.0,0.0,0.0,-0.0234,-0.0242,0.0,0.0,0.0,0.0,-0.2274,-0.3899,-0.479,0.0,0.0,0.0,0.0,0.0,0.0,0.0,0.0,0.0,0.0,0.0,0.0,0.0,0.0,0.0,0.0,0.0,0.0,0.0,0.0,0.0,0.0,0.0,0.0,0.0,0.0,0.0,0.0,0.0,0.0,0.0,0.0,0.0,0.0,0.0,0.0,0.0,0.0,-0.2292,-0.2773,0.0,0.0,0.0,0.0,0.0,0.0,0.0,0.0,-0.5701,0.0,0.0,0.0,0.0,0.0,0.0,0.0,0.0,0.0,0.0,0.0,0.0,0.0,0.0,0.0,0.0,0.0,0.0,0.0,0.0,0.0,0.0,0.0,0.0,0.0,0.0,0.0,0.0,0.0,0.0,0.0,0.0,0.0,0.0,0.0,0.0,0.0,0.0,0.0,0.0,0.0,0.0,0.0,0.0,0.0,0.0,0.0,0.0,0.0,0.0,0.0,0.0,0.0,0.0,0.0,0.0,0.0,-0.0047,-0.0048,0.0,0.0,0.0,0.0,-0.1386,-0.2525,-0.3449,0.0,0.0,0.0,0.0,0.0,0.0,0.0,0.0,0.0,0.0,0.0,0.0,0.0,0.0,0.0,0.0,0.0,0.0,0.0,0.0,0.0,0.0,0.0,0.0,0.0,0.0,0.0,0.0,0.0,0.0,0.0,0.0,0.0,0.0,0.0,0.0,0.0,0.0,0.0,-0.3544,-0.3855,0.0,0.0,0.0,0.0,0.0,0.0,0.0,0.0,-0.6264,0.0,0.0,0.0,0.0,0.0,0.0,0.0,0.0,0.0,0.0,0.0,0.0,0.0,0.0,0.0,0.0,0.0,0.0,0.0,0.0,0.0,0.0,0.0,0.0,0.0,0.0,0.0,0.0,0.0,0.0,0.0,0.0,0.0,0.0,0.0,0.0,0.0,0.0,0.0,0.0,0.0,0.0,0.0,0.0,0.0,0.0,0.0,0.0,0.0,0.0,0.0,0.0,0.0,0.0,0.0,0.0,0.0,0.0,0.0,0.0,0.0,0.0,-0.1256,-0.2274,0.0,0.0,0.0,0.0,0.0,0.0,0.0,0.0,0.0,0.0,0.0,0.0,0.0,0.0,0.0,0.0,0.0,0.0,0.0,0.0,0.0,0.0,0.0,0.0,0.0,0.0,0.0,0.0,0.0,0.0,0.0,0.0,0.0,0.0,0.0,0.0,0.0,0.0,0.0,0.0,-0.3795,-0.3999,-0.4307,0.0,0.0,0.0,0.0,0.0,0.0,-0.5421,-0.6331,0.0,0.0,0.0,0.0,0.0,0.0,0.0,0.0,0.0,0.0,0.0,0.0,0.0,0.0,0.0,0.0,0.0,0.0,0.0,0.0,0.0,0.0,0.0,0.0,0.0,0.0,0.0,0.0,0.0,0.0,0.0,0.0,0.0,0.0,0.0,0.0,0.0,0.0,0.0,0.0,0.0,0.0,0.0,0.0,0.0,0.0,0.0,0.0,0.0,0.0,0.0,0.0,0.0,0.0,0.0,0.0,0.0185,0.0192,0.0,0.0,0.0,0.0,-0.104,-0.2092,0.0,0.0,0.0,0.0,0.0,0.0,0.0,0.0,0.0,0.0,0.0,0.0,0.0,0.0,0.0,0.0,0.0,0.0,0.0,0.0,0.0,0.0,0.0,0.0,0.0,0.0,0.0,0.0,0.0,0.0,0.0,0.0,0.0,0.0,0.0,0.0,0.0,0.0,0.0,0.0,0.0,-0.4092,-0.4342,-0.4168,0.0,0.0,0.0,0.0,-0.4142,-0.5408,0.0,0.0,0.0,0.0,0.0,0.0,0.0,0.0,0.0,0.0,0.0,0.0,0.0,0.0,0.0,0.0,0.0,0.0,0.0,0.0,0.0,0.0,0.0,0.0,0.0,0.0,0.0,0.0,0.0,0.0,0.0,0.0,0.0,0.0,0.0,0.0,0.0,0.0,0.0,0.0,0.0,0.0,0.0,0.0,0.0,0.0,0.0,0.0,0.0,0.0,0.0,0.0,0.0,0.0,0.0,0.0,0.0087,0.0848,0.083,0.0,0.0,0.0,0.0,-0.0143,-0.1154,0.0,0.0,0.0,0.0,0.0,0.0,0.0,0.0,0.0,0.0,0.0,0.0,0.0,0.0,0.0,0.0,0.0,0.0,0.0,0.0,0.0,0.0,0.0,0.0,0.0,0.0,0.0,0.0,0.0,0.0,0.0,0.0,0.0,0.0,0.0,0.0,0.0,0.0,0.0,0.0,0.0,-0.4336,-0.4324,-0.4226,-0.4183,0.0,0.0,-0.4278,-0.4363,-0.4902,0.0,0.0,0.0,0.0,0.0,0.0,0.0,0.0,0.0,0.0,0.0,0.0,0.0,0.0,0.0,0.0,0.0,0.0,0.0,0.0,0.0,0.0,0.0,0.0,0.0,0.0,0.0,0.0,0.0,0.0,0.0,0.0,0.0,0.0,0.0,0.0,0.0,0.0,0.0,0.0,0.0,0.0,0.0,0.0,0.0,0.0,0.0,0.0,0.0,0.0,0.0,0.0,0.0,0.0,0.0,0.1198,0.0853,0.1783,0.1803,0.0856,0.08,0.0562,0.0,0.0,-0.0698,0.0,0.0,0.0,0.0,0.0,0.0,0.0,0.0,0.0,0.0,0.0,0.0,0.0,0.0,0.0,0.0,0.0,0.0,0.0,0.0,0.0,0.0,0.0,0.0,0.0,0.0,0.0,0.0,0.0,0.0,0.0,0.0,0.0,0.0,0.0,0.0,0.0,0.0,0.0,0.0,0.0,0.0,-0.4367,-0.4344,0.0,0.0,0.0,-0.4346,-0.4378,0.0,0.0,0.0,0.0,0.0,0.0,0.0,0.0,0.0,0.0,0.0,0.0,0.0,0.0,0.0,0.0,0.0,0.0,0.0,0.0,0.0,0.0,0.0,0.0,0.0,0.0,0.0,0.0,0.0,0.0,0.0,0.0,0.0,0.0,0.0,0.0,0.0,0.0,0.0,0.0,0.0,0.0,0.0,0.0,0.0,0.0,0.0,0.0,0.0,0.0,0.0,0.0,0.0,0.0,0.0,0.0,0.0,0.1652,0.267,0.2725,0.1706,0.1455,0.1038,0.0361,0.013,0.0,0.0,0.0,0.0,0.0,0.0,0.0,0.0,0.0,0.0,0.0,0.0,0.0,0.0,0.0,0.0,0.0,0.0,0.0,0.0,0.0,0.0,0.0,0.0,0.0,0.0,0.0,-0.0987,0.0,0.0,0.0,0.0,0.0,0.0,0.0,0.0,0.0,0.0,0.0,0.0,0.0,0.0,-0.3848,-0.3924,-0.3976,-0.4173,0.0,0.0,-0.4477,-0.4455,-0.4971,-0.5325,0.0,0.0,0.0,0.0,0.0,0.0,0.0,0.0,0.0,0.0,0.0,0.0,0.0,0.0,0.0,0.0,0.0,0.0,0.0,0.0,0.0,0.0,0.0,0.0,0.0,0.0,0.0,0.0,0.0,0.0,0.0,0.0,0.0,0.0,0.0,0.0,0.0,0.0,0.0,0.0,0.0,0.0,0.0,0.0,0.0,0.0,0.0,0.0,0.0,0.0,0.0,0.0,0.0,0.0,0.337,0.232,0.3463,0.3553,0.2455,0.1692,0.1269,0.1184,0.0422,-0.0494,0.0,0.0,0.0,0.0,0.0,0.0,0.0,0.0,0.0,0.0,0.0,0.0,0.0,0.0,0.0,0.0,0.0,0.0,0.0,0.0,0.0,0.0,0.0,0.0,0.0,0.0,0.0,0.0,0.0,0.0,0.0,0.0,0.0,0.0,0.0,0.0,0.0,0.0,0.0,0.0,0.0,-0.2773,-0.2647,-0.2872,-0.3393,0.0,-0.4476,-0.4591,-0.4677,-0.4926,-0.5193,-0.5368,0.0,0.0,0.0,0.0,0.0,0.0,0.0,0.0,0.0,0.0,0.0,0.0,0.0,0.0,0.0,0.0,0.0,0.0,0.0,0.0,0.0,0.0,0.0,0.0,0.0,0.0,0.0,0.0,0.0,0.0,0.0,0.0,0.0,0.0,0.0,0.0,0.0,0.0,0.0,0.0,0.0,0.0,0.0,0.0,0.0,0.0,0.0,0.0,0.0,0.0,0.0,0.0,0.0,0.394,0.3442,0.4677,0.4819,0.3853,0.3477,0.3016,0.243,0.1947,0.1488,0.0,0.0,0.0,0.0,0.0,0.0,0.0,0.0,0.0,0.0,0.0,0.0,0.0,0.0,0.0,0.0,0.0,0.0,0.0,0.0,0.0,0.0,0.0,0.0,0.0,0.0,0.0,0.0,0.0227,0.0198,-0.0165,0.0,0.0,0.0,0.0,0.0,0.0,0.0,0.0,0.0,0.0,-0.181,-0.1832,-0.2365,0.0,0.0,-0.3946,-0.4358,-0.4487,-0.4678,-0.4813,-0.488,-0.5205,0.0,0.0,0.0,0.0,0.0,0.0,0.0,0.0,0.0,0.0,0.0,0.0,0.0,0.0,0.0,0.0,0.0,0.0,0.0,0.0,0.0,0.0,0.0,0.0,0.0,0.0,0.0,0.0,0.0,0.0,0.0,0.0,0.0,0.0,0.0,0.0,0.0,0.0,0.0,0.0,0.0,0.0,0.0,0.0,0.0,0.0,0.0,0.0,0.0,0.0,0.0,0.0,0.4551,0.4437,0.5412,0.5586,0.4885,0.4678,0.4226,0.3526,0.3112,0.2824,0.0,0.0,0.0,0.0,0.0,0.0,0.0,0.0,0.0,0.0,0.0,0.0,0.0,0.0,0.0,0.0,0.0,0.0,0.0,0.0,0.0,0.0,0.0,0.0,0.0,0.0,0.0,0.0,0.0593,0.0628,0.0689,0.0,0.0,0.0,0.0,0.0,0.0,0.0,0.0,0.0,0.0,-0.0833,-0.09,-0.1575,-0.2306,-0.2848,-0.3572,-0.4204,-0.4436,-0.4656,-0.4749,-0.4657,0.0,0.0,0.0,0.0,0.0,0.0,0.0,0.0,0.0,0.0,0.0,0.0,0.0,0.0,0.0,0.0,0.0,0.0,0.0,0.0,0.0,0.0,0.0,0.0,0.0,0.0,0.0,0.638,0.0,0.0,0.5645,0.0,0.0,0.0,0.0,0.0,0.0,0.0,0.0,0.0,0.0,0.0,0.0,0.0,0.0,0.0,0.0,0.0,0.0,0.0,0.0,0.0,0.0,0.5246,0.5159,0.5522,0.5664,0.5565,0.4813,0.4421,0.4382,0.3556,0.3019,0.2911,0.0,0.0,0.0,0.0,0.0,0.0,0.0,0.0,0.0,0.0,0.0,0.0,0.0,0.0,0.0,0.0,0.0,0.0,0.0,0.0,0.0,0.0,0.0,0.0,0.0,0.0,0.0536,0.0459,0.0637,0.0,0.0,0.0,0.0,0.0,0.0,0.0,0.0,0.0,0.0,0.0211,0.0265,0.0229,-0.0462,-0.1396,-0.2464,-0.3458,-0.4202,-0.4572,-0.4887,-0.5025,0.0,0.0,0.0,0.0,0.0,0.0,0.0,0.0,0.0,0.0,0.0,0.0,0.0,0.0,0.0,0.0,0.0,0.0,0.0,0.0,0.0,0.0,0.0,0.0,0.0,0.0,0.0,0.8438,0.8105,0.0,0.0,0.0,0.0,0.0,0.0,0.0,0.0,0.0,0.0,0.0,0.8458,0.9102,0.0,0.0,0.0,0.0,0.0,0.0,0.0,0.0,0.0,0.0,0.0,0.0,0.5447,0.5408,0.5633,0.5888,0.6054,0.5695,0.5533,0.5664,0.5234,0.4583,0.3792,0.0,0.0,0.0,0.0,0.0,0.0,0.0,0.0,0.0,0.0,0.0,0.0,0.0,0.0,0.0,0.0,0.0,0.0,0.0,0.0,0.0,0.0,0.0,0.0,0.0,0.1176,0.0,0.0,0.0,0.0,0.0,0.0,0.0,0.0,0.0,0.0,-0.0582,-0.0152,0.0158,0.067,0.1048,0.1019,0.0409,-0.0277,0.0,0.0,0.0,0.0,0.0,0.0,0.0,0.0,0.0,0.0,0.0,0.0,0.0,0.0,-0.8294,-0.9691,-1.0199,-1.0454,-1.0533,0.0,0.0,0.0,0.0,0.0,0.0,0.0,0.0,0.0,0.0,0.0,0.0,0.0,0.0,0.9516,0.9374,0.8548,0.0,0.0,0.0,0.0,0.0,0.0,0.0,0.0,1.0135,1.0444,0.9653,1.0291,1.014,0.933,0.9324,0.8781,0.0,0.0,0.0,0.0,0.0,0.0,0.0,0.0,0.5915,0.5975,0.6126,0.6206,0.6279,0.6108,0.604,0.6176,0.5927,0.5419,0.462,0.4151,0.3513,0.0,0.0,0.0,0.0,0.0,0.0,0.0,0.0,0.0,0.0,0.0,0.0,0.0,0.0,0.0,0.0,0.0,0.0,0.0,0.0,0.0,0.0,0.0,0.1861,0.0,0.0,0.0,0.0,0.0,0.0,0.0,0.0,0.0,-0.0107,0.0186,0.0542,0.0555,0.1041,0.1379,0.1388,0.0,0.0,0.0,0.0,0.0,0.0,0.0,-0.4219,-0.478,-0.5037,-0.5173,-0.5132,-0.5216,-0.5818,-0.7297,0.0,0.0,-0.9653,-1.0183,-1.0485,-1.0905,-1.0858,-1.0659,-1.0581,-1.0695,-1.0773,0.0,0.0,0.0,0.0,0.9927,0.0,0.0,0.0,1.004,1.011,0.0,0.981,0.0,0.0,0.0,0.0,0.8565,1.0159,0.0,0.0,1.179,1.2214,1.1706,1.1657,1.1589,1.1403,1.1354,1.0807,0.9704,0.8383,0.0,0.0,0.0,0.0,0.0,0.0,0.6612,0.6896,0.6896,0.6741,0.6384,0.6167,0.6054,0.605,0.5745,0.5528,0.5376,0.4537,0.3993,0.3822,0.2837,0.0,0.0,0.0,0.0,0.0,0.0,0.0,0.0,0.0,0.0,0.0,0.0,0.0,0.0,0.0,0.0,0.0,0.0,0.0,0.0,0.2784,0.0,0.0,0.0,0.0,0.0,0.0,0.0,0.0,0.0,0.1349,0.1168,0.1219,0.1307,0.1296,0.0,0.0,0.0,0.0,0.0262,0.0089,-0.0582,-0.1597,-0.3038,-0.3328,-0.3746,-0.494,0.0,0.0,-0.505,-0.5034,-0.5165,-0.5581,-0.6486,-0.793,-1.0295,-1.0195,-1.0155,-1.1168,-1.1019,-1.0809,-1.1039,-1.1069,-1.105,1.2282,0.0,0.0,0.0,0.0,1.1156,1.1498,1.1692,1.2079,1.2157,1.1993,1.118,0.0,0.0,0.0,0.0,0.0,0.0,1.0846,1.0935,1.1757,1.205,1.1892,1.1892,1.1818,1.1632,1.1595,1.1346,1.0821,1.0448,0.9005,0.6664,0.0,0.0,0.0,0.0,0.7324,0.772,0.7441,0.7385,0.7716,0.7405,0.7028,0.666,0.5969,0.5603,0.5559,0.5173,0.4867,0.4605,0.3791,0.0,0.0,0.0,0.0,0.0,0.0,0.0,0.0,0.0,0.0,0.0,0.0,0.0,0.0,0.0,0.0,0.0,0.0,0.0,0.2858,0.3005,0.2857,0.0,0.0,0.0,0.0,0.0,0.0,0.0,0.0,0.0,0.142,0.1349,0.13,0.0,0.0,0.1318,0.1326,0.1135,0.0979,0.0942,0.0343,0.0,-0.1145,-0.1797,-0.2595,-0.3861,-0.4703,-0.5203,-0.526,-0.5268,-0.5352,-0.5633,-0.6034,-0.6948,-0.8805,-0.9764,-1.0191,-1.0578,-1.0816,-1.099,-1.1056,-1.1117,-1.1111,1.5253,1.3567,1.2299,1.1736,1.1816,1.2267,1.2567,1.2753,1.3081,1.31,1.2906,1.2227,1.1617,1.1156,1.0924,0.0,0.0,0.0,1.2204,1.207,1.2725,1.3018,1.3011,1.2732,1.2475,1.2285,1.1966,1.1697,1.1458,1.1344,1.0225,0.8249,0.0,0.7823,0.7251,0.7724,0.8101,0.8315,0.8161,0.8083,0.8128,0.785,0.7505,0.7104,0.6597,0.6304,0.6304,0.6236,0.6102,0.59,0.5349,0.51,0.0,0.0,0.0,0.0,0.0,0.0,0.0,0.0,0.0,0.0,0.0,0.4073,0.3577,0.0,0.0,0.0,0.3923,0.3797,0.3612,0.3836,0.0,0.0,0.0,0.0,0.0,0.0,0.0,0.2877,0.2633,0.2416,0.249,0.2456,0.2157,0.1414,0.1312,0.1329,0.1301,0.0,0.1292,0.1304,0.0968,0.042,-0.042,-0.0948,-0.17,-0.2964,-0.3997,-0.4654,-0.4758,-0.5022,-0.5352,-0.5595,-0.5757,-0.625,-0.7462,-0.8728,-0.9895,-1.0511,-1.0886,-1.105,-1.0985,-1.1033,-1.1087,1.8644,1.7755,1.4797,1.3539,1.3512,1.3512,1.3512,1.3512,1.3472,1.3458,1.345,1.3144,1.2825,1.2505,1.2935,0.0,1.2203,1.3854,1.4207,1.36,1.4279,1.4601,1.4565,1.389,1.3491,1.3273,1.2549,1.2114,1.1946,1.1706,1.1234,1.0581,0.9897,0.9258,0.8641,0.8843,0.8924,0.8817,0.9039,0.8788,0.8053,0.7864,0.7669,0.7493,0.7419,0.7386,0.7386,0.7386,0.7386,0.7381,0.7148,0.6917,0.6671,0.0,0.0,0.0,0.0,0.0,0.0,0.0,0.0,0.0,0.0,0.0,0.0,0.0,0.0,0.0,0.5331,0.0,0.4923,0.499,0.0,0.0,0.0,0.4139,0.4203,0.3766,0.3681,0.4253,0.0,0.0,0.3957,0.4084,0.3466,0.1721,0.1452,0.1386,0.1376,0.138,0.1309,0.1292,0.1298,0.0795,-0.0374,-0.0694,-0.1118,-0.2232,-0.312,-0.3665,-0.375,-0.4392,-0.5015,-0.5341,-0.5515,-0.5777,-0.6244,-0.7634,-0.9067,-1.0622,-1.1001,-1.0997,-1.0767,-1.0906,-1.1003,1.8616,1.8146,1.7235,1.6568,1.6113,1.6113,1.6113,1.6073,1.5919,1.5861,1.5748,1.5227,1.4636,1.4063,1.4157,1.4126,1.3991,1.4383,1.4494,1.435,1.453,1.4601,1.4601,1.4422,1.4314,1.4243,1.4099,1.3954,1.3911,1.3835,1.3555,1.307,1.2873,1.158,0.9285,0.9551,0.9821,0.9983,0.9763,0.9462,0.9101,0.8608,0.8278,0.8231,0.7679,0.7386,0.7386,0.7386,0.7386,0.7381,0.7248,0.7111,0.7059,0.6506,0.0,0.0,0.0,0.0,0.0,0.0,0.0,0.0,0.0,0.5085,0.4543,0.0,0.5418,0.0,0.6319,0.639,0.5493,0.5599,0.0,0.0,0.4548,0.4359,0.4295,0.4177,0.4156,0.434,0.4266,0.4157,0.4164,0.4181,0.3948,0.3264,0.2634,0.2202,0.2176,0.1663,0.131,0.1318,0.116,0.0839,0.0279,-0.0547,-0.1189,-0.1525,-0.2284,-0.2814,-0.2814,-0.3515,-0.4185,-0.4453,-0.5007,-0.5711,-0.6566,-0.7122,-0.8043,-0.963,-1.0446,-1.0767,-1.0695,-1.0737,-1.0852,2.0359,2.0132,1.9853,1.9333,1.8658,1.7603,1.7082,1.6993,1.6968,1.6814,1.656,1.591,1.5325,1.4876,1.5039,1.4931,1.4681,1.5286,1.5428,1.5144,1.5471,1.5604,1.5604,1.5093,1.4878,1.4843,1.452,1.4221,1.4079,1.4229,1.4092,1.3677,1.3553,1.2642,1.108,1.1223,1.098,1.0211,1.0001,0.983,0.9696,0.9188,0.8954,0.9037,0.8483,0.8223,0.8333,0.8228,0.8138,0.8165,0.7948,0.7809,0.7703,0.7337,0.716,0.0,0.0,0.0,0.0,0.0,0.0,0.0,0.0,0.0,0.0,0.0,0.5828,0.5823,0.6648,0.689,0.6162,0.6351,0.6359,0.5932,0.5658,0.5445,0.5371,0.5084,0.5004,0.539,0.5281,0.5207,0.5248,0.5399,0.534,0.4899,0.4131,0.3521,0.3088,0.2392,0.1839,0.1819,0.1314,0.0808,0.0534,-0.0188,-0.0709,-0.0792,-0.1434,-0.1969,-0.199,-0.2673,-0.3441,-0.4098,-0.4637,-0.5322,-0.638,-0.6992,-0.7543,-0.8259,-0.9408,-1.0233,-1.0653,-1.0816,-1.0888,2.2353,2.2314,2.1963,2.145,2.0771,1.8628,1.7617,1.7447,1.7545,1.7336,1.6826,1.6163,1.57,1.5532,1.5783,1.5578,1.5002,1.6289,1.6551,1.6009,1.6586,1.6908,1.6855,1.584,1.5376,1.5394,1.4592,1.4056,1.3799,1.4056,1.4032,1.3685,1.3437,1.3276,1.3148,1.3215,1.2294,1.0333,1.0174,1.0136,1.0104,0.9768,0.9699,0.9901,0.9556,0.9426,0.9603,0.9382,0.9223,0.912,0.8938,0.8708,0.8433,0.8355,0.8027,0.0,0.724,0.0,0.0,0.0,0.0,0.0,0.0,0.0,0.0,0.6362,0.6164,0.5931,0.6701,0.7108,0.6826,0.7068,0.7237,0.7199,0.6937,0.6741,0.6675,0.6112,0.5981,0.6642,0.6436,0.635,0.6567,0.6976,0.6915,0.6168,0.5585,0.4943,0.4196,0.3249,0.2576,0.2565,0.1693,0.0899,0.0407,0.0146,0.0,0.0,-0.0642,-0.1103,-0.1118,-0.1785,-0.268,-0.3712,-0.4146,-0.4716,-0.586,-0.6662,-0.7076,-0.7067,-0.816,-0.9344,-1.017,-1.0743,-1.0936,2.1434,2.1424,2.1356,2.1268,2.1071,2.03,1.9844,1.9648,1.9311,1.8846,1.8285,1.7827,1.7404,1.7027,1.6792,1.6612,1.6473,1.676,1.6839,1.67,1.6839,1.6908,1.6881,1.636,1.6274,1.6519,1.5746,1.5501,1.5733,1.5492,1.5331,1.5251,1.5221,1.4751,1.3981,0.0,0.0,0.0,1.1173,1.0742,1.0647,1.0568,1.0562,1.0622,1.0624,0.0,1.0255,1.0236,0.9887,0.9168,0.9473,0.0,0.0,0.0,0.0,0.0,0.0,0.0,0.0,0.0,0.0,0.0,0.876,0.8157,0.6935,0.7003,0.7095,0.6961,0.7241,0.7418,0.7354,0.7391,0.7358,0.7204,0.7134,0.7007,0.6741,0.6572,0.6552,0.6672,0.6621,0.6693,0.6877,0.6981,0.6893,0.6539,0.6298,0.6035,0.5663,0.4169,0.3206,0.3076,0.22,0.1254,0.0413,0.0147,0.0,0.0,-0.0076,0.0,0.0,-0.0941,-0.1583,-0.2187,-0.3148,-0.4077,-0.4577,-0.5262,-0.6046,-0.6682,-0.7112,-0.7704,-0.8985,-1.0067,-1.0779,2.194,2.208,2.1439,2.12,0.0,2.0752,2.0527,2.0459,2.0186,1.9789,1.9262,1.8777,1.8257,1.7779,1.7376,1.7082,1.6908,1.6908,1.6908,1.6908,1.6908,1.6798,1.6606,1.6193,1.601,1.6001,1.5597,1.5404,1.5432,1.5404,1.5304,1.5102,1.5102,1.4847,1.4333,1.4647,1.4174,1.2926,1.2135,1.1703,1.1633,1.1462,1.132,1.1252,1.1098,0.0,0.0,0.0,0.0,0.0,0.0,0.0,0.0,0.0,0.0,0.8734,0.8652,0.8593,0.86,0.8864,0.9186,0.956,0.9744,0.9442,0.8448,0.8411,0.8457,0.8465,0.8292,0.8096,0.8004,0.7749,0.7526,0.7363,0.7269,0.7101,0.6839,0.6741,0.6722,0.6835,0.6857,0.6887,0.7098,0.7204,0.7017,0.6592,0.6513,0.6391,0.5839,0.4788,0.3813,0.334,0.244,0.1612,0.1051,0.0469,0.0108,0.0,0.0,0.0,0.0,-0.0368,-0.0849,-0.1493,-0.2298,-0.3094,-0.4157,-0.4746,-0.53,-0.6038,-0.6576,-0.6962,-0.7678,-0.8907,-1.0101,2.2731,2.2993,2.1958,2.1491,2.1511,2.1025,2.075,2.0615,2.0566,0.0,0.0,1.9257,1.8675,1.81,1.7688,1.7284,1.6917,1.6908,1.6908,1.6908,1.6908,1.6697,1.6312,1.5881,1.5515,1.5212,1.5065,1.4864,1.4634,1.4882,1.4806,1.4513,1.4485,1.4485,1.4485,1.4485,1.4228,1.3662,1.3009,1.2634,1.2626,1.2332,1.2091,1.198,1.1652,1.1355,1.1097,1.0882,1.0556,1.0082,0.9913,0.9702,0.936,0.9258,0.9323,0.9507,0.9583,0.9611,0.9618,1.0017,1.0215,1.0099,1.0514,1.0541,0.9979,0.9738,0.9674,0.9786,0.9288,0.8871,0.8716,0.8306,0.7987,0.7842,0.7684,0.7559,0.7363,0.7195,0.7245,0.7359,0.7301,0.7204,0.74,0.7405,0.7187,0.6647,0.653,0.6379,0.573,0.5139,0.4464,0.3629,0.2942,0.2276,0.1794,0.1054,0.0456,0.0,0.0,0.0,0.0,0.0,0.0,-0.1073,-0.1506,-0.2315,-0.3622,-0.4245,-0.471,-0.5261,-0.6064,-0.6649,-0.661,-0.7648,-0.8968,2.2961,2.3004,2.2826,2.2719,2.2671,2.1939,2.1242,2.0605,2.042,2.0069,1.9608,1.9189,1.8637,1.8063,1.7688,1.7284,1.6917,1.6908,1.6908,1.6908,1.6908,1.6697,1.627,1.589,1.5693,1.556,1.4928,1.4744,1.4964,1.4726,1.4561,1.4494,1.4485,1.4485,1.4485,1.4485,1.4446,1.4327,1.358,1.3199,1.3177,1.3119,1.3094,1.3094,1.3126,1.2789,1.2111,1.211,1.1574,1.0431,1.0639,1.0509,0.9935,0.9575,0.933,0.9288,0.9526,0.968,0.9708,1.0355,1.1064,1.1628,1.2039,1.1676,1.0242,1.0166,1.0072,0.9837,0.9741,0.9582,0.939,0.9262,0.9166,0.9166,0.9166,0.9096,0.8898,0.8699,0.8657,0.8866,0.8196,0.7792,0.8065,0.7612,0.7107,0.6757,0.6551,0.6222,0.5737,0.5535,0.5152,0.4496,0.4097,0.3558,0.2816,0.184,0.12,0.0976,0.0469,0.0,0.0,0.0,-0.0035,-0.024,-0.0855,-0.1522,-0.2124,-0.317,-0.3992,-0.4456,-0.5163,-0.5744,-0.6174,-0.6734,-0.7412,2.361,2.3537,2.318,2.2995,2.2957,2.2622,2.2247,2.1886,2.1497,2.0829,1.9943,1.9429,1.8835,1.8249,1.7833,1.7391,1.6908,1.6908,1.6908,1.6908,1.6908,1.6569,1.6001,1.5771,1.5491,1.5047,1.4689,1.4607,1.4723,1.4588,1.4485,1.4485,1.4485,1.4405,1.4176,1.4196,1.4066,1.3845,1.3924,1.395,1.395,1.3738,1.3623,1.3623,1.3487,1.324,1.2857,1.2649,1.2221,1.1462,1.1402,1.1171,1.0729,1.0526,1.037,1.0249,1.0319,1.0409,1.052,1.112,1.1735,1.2282,1.2495,1.2304,1.1524,1.1419,1.132,1.1163,1.073,1.0376,1.0212,0.9894,0.962,0.9486,0.9486,0.9448,0.9308,0.9212,0.9175,0.9118,0.8596,0.8334,0.8695,0.8243,0.7683,0.73,0.6676,0.6009,0.5562,0.551,0.5406,0.5089,0.4588,0.4045,0.3604,0.2749,0.2064,0.1852,0.1429,0.1006,0.0721,0.0583,0.041,0.0068,-0.0437,-0.0936,-0.1449,-0.2225,-0.3121,-0.4167,-0.4504,-0.5084,-0.565,-0.6108,-0.6955,2.4373,2.4301,2.3756,2.3427,2.3254,2.3243,2.3114,2.2798,2.2353,2.1587,2.0538,1.995,1.9383,1.8776,1.8245,1.7734,1.7238,1.7097,1.7003,1.6908,1.7047,1.6569,1.5753,1.5689,1.5339,1.4729,1.4654,1.4714,1.4793,1.4714,1.4586,1.4545,1.4704,1.4558,1.4034,1.426,1.4092,1.3642,1.4372,1.4621,1.4231,1.3919,1.3791,1.3855,1.3506,1.3296,1.3268,1.2909,1.2565,1.2268,1.1939,1.1628,1.1427,1.1377,1.131,1.1209,1.1147,1.1237,1.1522,1.1895,1.2258,1.2558,1.259,1.259,1.259,1.2467,1.2336,1.2243,1.1639,1.1205,1.0916,1.0557,1.0161,0.992,0.9933,1.0021,0.9856,0.9761,0.9737,0.9595,0.9146,0.888,0.909,0.874,0.8128,0.7578,0.6769,0.6029,0.5727,0.5493,0.5339,0.5292,0.4818,0.4417,0.4391,0.3616,0.2933,0.2683,0.2321,0.1887,0.1448,0.1244,0.0908,0.037,-0.0034,-0.0469,-0.1133,-0.1637,-0.2335,-0.3344,-0.3929,-0.4536,-0.5225,-0.5917,-0.6854,2.5158,2.5206,2.504,2.4671,2.3965,2.3988,2.334,2.2385,2.2212,2.1865,2.1303,2.1041,2.0544,1.9872,1.9059,1.8478,1.8061,1.7755,1.7373,1.7038,1.7407,1.693,1.5831,1.5712,1.5508,1.5175,1.5118,1.5323,1.5642,1.5332,1.4931,1.4654,1.5362,1.5281,1.4619,1.5251,1.5203,1.4347,1.5291,1.5011,1.3497,1.3369,1.3516,1.3864,1.3525,1.3296,1.3304,1.2919,1.2523,1.2168,1.1979,1.1828,1.1678,1.1544,1.1498,1.1571,1.1726,1.1996,1.2412,1.2503,1.2581,1.259,1.2621,1.2621,1.259,1.259,1.2498,1.2305,1.2205,1.1874,1.1361,1.1408,1.1319,1.0904,1.1098,1.1404,1.1272,1.1202,1.1234,1.1505,1.0077,0.9418,0.9738,0.8765,0.78,0.775,0.7168,0.663,0.6327,0.5687,0.5196,0.5211,0.5026,0.5052,0.4996,0.4367,0.3722,0.3394,0.285,0.2415,0.208,0.1578,0.1042,0.0841,0.0438,-0.0067,-0.0495,-0.0988,-0.1663,-0.2363,-0.3286,-0.4321,-0.5005,-0.5718,-0.6729,2.5312,2.5276,2.4975,2.4478,2.3988,2.4201,2.3874,2.3155,2.2797,2.2566,2.2324,2.1926,2.124,2.0302,1.9687,1.9122,1.87,1.8533,1.824,1.7847,1.7792,1.735,1.6624,1.628,1.5966,1.5614,1.5604,1.5729,1.5845,1.569,1.5526,1.5362,1.5739,1.5605,1.501,1.5084,1.4787,1.4142,1.4516,1.4357,1.3786,1.3934,1.4156,1.4213,1.3675,1.3421,1.3591,1.3278,1.2985,1.2805,1.2538,1.246,1.2685,1.217,1.2074,1.248,1.232,1.2382,1.2814,1.2948,1.3033,1.3011,1.2889,1.2805,1.2713,1.2652,1.256,1.2498,1.2375,1.2143,1.1806,1.1781,1.168,1.1461,1.1518,1.1591,1.1591,1.1529,1.1435,1.1186,1.05,0.995,0.9858,0.8962,0.8235,0.8028,0.7544,0.7056,0.6757,0.6248,0.5988,0.5884,0.5576,0.5187,0.5086,0.4765,0.4356,0.4143,0.3914,0.3587,0.2848,0.2581,0.2147,0.131,0.0841,0.0369,-0.0233,-0.0499,-0.1003,-0.174,-0.297,-0.4183,-0.4397,-0.5019,-0.59,2.5095,2.5011,2.453,2.4109,2.3842,2.4157,2.4025,2.3577,2.318,2.2939,2.2739,2.2354,2.1768,2.0973,2.0347,1.9879,1.9552,1.9365,1.9005,1.8474,1.8202,1.7701,1.703,1.6688,1.6356,1.6136,1.6114,1.6075,1.6104,1.6228,1.6171,1.596,1.6171,1.5992,1.5468,1.5201,1.4883,1.4491,1.4532,1.4553,1.4486,1.4759,1.4824,1.4557,1.386,1.3591,1.3847,1.3484,1.326,1.326,1.2978,1.2998,1.3287,1.2737,1.2713,1.3313,1.3141,1.313,1.35,1.3646,1.3743,1.3713,1.3571,1.342,1.3329,1.3186,1.3133,1.3164,1.2972,1.2765,1.205,1.1966,1.1834,1.1581,1.1587,1.1615,1.1591,1.1591,1.1405,1.0926,1.0601,1.0201,0.9726,0.9195,0.8827,0.8494,0.7968,0.7477,0.716,0.6847,0.6544,0.657,0.5967,0.551,0.5206,0.4914,0.4812,0.4731,0.4552,0.4243,0.364,0.3485,0.3115,0.2114,0.1545,0.0974,0.0402,0.0,-0.0599,-0.1609,-0.2681,-0.3626,-0.3975,-0.4375,-0.4887,2.4554,2.4482,2.4013,2.3806,2.3794,2.3818,2.3529,2.3047,2.2967,2.2734,2.2294,2.2209,2.2147,2.1996,2.1198,2.0846,2.0719,2.0257,1.948,1.854,1.867,1.802,1.6598,1.6507,1.6523,1.6573,1.657,1.6581,1.657,1.6987,1.6779,1.6017,1.6751,1.6712,1.6006,1.616,1.6157,1.57,1.5974,1.6092,1.5708,1.5701,1.5336,1.4667,1.4123,1.3831,1.3781,1.3416,1.3234,1.321,1.319,1.3214,1.322,1.3186,1.3432,1.3968,1.4179,1.4421,1.4694,1.4768,1.4787,1.4796,1.461,1.458,1.4433,1.4332,1.4261,1.435,1.4231,1.3612,1.2314,1.2249,1.2058,1.1496,1.1637,1.1686,1.1622,1.1591,1.1437,1.1055,1.0603,1.0009,0.9199,0.9423,0.9241,0.8861,0.8507,0.8214,0.7842,0.7182,0.682,0.6695,0.6442,0.6072,0.5758,0.5288,0.4917,0.4807,0.4738,0.4534,0.4265,0.3887,0.3409,0.2841,0.2035,0.1403,0.0973,0.0333,-0.0457,-0.1222,-0.1753,-0.2456,-0.3234,-0.3781,-0.4303,2.4133,2.3568,2.3734,2.3421,2.2855,2.3144,2.2967,2.2517,2.2486,2.2378,2.2221,2.2197,2.2197,2.2197,2.1894,2.162,2.1342,2.0864,2.0209,1.9414,1.8854,1.8224,1.7608,1.7211,1.7027,1.7037,1.7071,1.7043,1.7032,1.7222,1.7138,1.6892,1.7127,1.7086,1.6769,1.6596,1.64,1.6247,1.6149,1.5974,1.5833,1.5811,1.5506,1.4921,1.4195,1.382,1.3796,1.3655,1.3586,1.3586,1.3586,1.3721,1.3993,1.4024,1.4154,1.437,1.4365,1.4694,1.5389,1.541,1.5342,1.5342,1.5216,1.507,1.4855,1.4708,1.4608,1.4519,1.4499,1.4102,1.3702,1.3193,1.2679,1.2073,1.1851,1.1802,1.1747,1.1639,1.1393,1.0836,1.0212,0.9569,0.9298,0.9207,0.9133,0.8864,0.8711,0.8604,0.8466,0.8096,0.7765,0.7664,0.7295,0.6856,0.668,0.5854,0.5268,0.5054,0.487,0.4553,0.4261,0.4157,0.3763,0.3184,0.2417,0.1972,0.1612,0.0916,0.0064,-0.0627,-0.1149,-0.1664,-0.2413,-0.3065,-0.3587,2.352,2.2847,2.3144,2.2903,2.227,2.257,2.2522,2.2209,2.2197,2.2197,2.2197,2.2197,2.2197,2.2197,2.2197,2.208,2.1827,2.1422,2.0806,2.0094,1.926,1.8611,1.8086,1.7645,1.7407,1.7351,1.7334,1.7334,1.7407,1.7434,1.7462,1.749,1.7319,1.7175,1.7044,1.6573,1.6312,1.6367,1.6051,1.5836,1.5902,1.5723,1.5417,1.4956,1.4383,1.4033,1.401,1.401,1.3999,1.401,1.3986,1.4137,1.4414,1.4456,1.4619,1.4909,1.4872,1.5252,1.6149,1.6208,1.6151,1.614,1.6017,1.5806,1.5584,1.541,1.5274,1.5196,1.5128,1.5069,1.4804,1.435,1.3683,1.3017,1.2466,1.2166,1.2097,1.1697,1.1159,1.0521,0.9886,0.9425,0.9263,0.9087,0.8996,0.8857,0.8837,0.8778,0.8778,0.8685,0.8573,0.8448,0.7937,0.7595,0.7367,0.6711,0.5859,0.5557,0.5199,0.4793,0.4473,0.4354,0.4072,0.3491,0.3029,0.2665,0.2121,0.1441,0.0754,0.0031,-0.0421,-0.0885,-0.1657,-0.2439,-0.2992,2.269,2.227,2.2209,2.227,2.2197,2.2246,2.2221,2.2197,2.2197,2.2197,2.2197,2.2197,2.2197,2.2197,2.2197,2.2185,2.2111,2.1928,2.1239,2.0223,1.989,1.9091,1.7999,1.7789,1.7629,1.7496,1.7351,1.7445,1.7656,1.7656,1.7728,1.7775,1.7366,1.7109,1.6853,1.6356,1.612,1.6317,1.6007,1.5884,1.6079,1.5568,1.5124,1.4785,1.4627,1.4477,1.4407,1.4384,1.4361,1.435,1.4373,1.4407,1.4404,1.4415,1.4808,1.5535,1.5734,1.6264,1.707,1.7183,1.7099,1.7099,1.7022,1.6842,1.6691,1.656,1.6407,1.626,1.6205,1.6065,1.5602,1.5293,1.4819,1.4225,1.3391,1.2962,1.2575,1.1767,1.0821,1.0243,0.972,0.9427,0.9335,0.9185,0.9061,0.8956,0.8883,0.8804,0.8804,0.8692,0.8626,0.8547,0.8315,0.8082,0.7869,0.7576,0.6789,0.6073,0.5665,0.5223,0.4895,0.472,0.4428,0.3914,0.3454,0.304,0.2445,0.1807,0.1376,0.0746,0.0353,-0.0203,-0.0937,-0.1703,-0.2428,2.2342,2.2197,2.2197,2.2197,2.2197,2.2197,2.2197,2.2197,2.2197,2.2197,2.2197,2.2197,2.2197,2.2197,2.2197,2.2197,2.2197,2.2087,2.1469,2.0445,1.9834,1.9137,1.8374,1.8057,1.7838,1.7656,1.7507,1.7518,1.7684,1.7711,1.7822,1.7957,1.7843,1.7693,1.7479,1.6941,1.668,1.6585,1.5789,1.5458,1.5624,1.5164,1.4876,1.4834,1.4743,1.4616,1.4546,1.4454,1.4407,1.4407,1.4407,1.4407,1.4407,1.4407,1.4832,1.5658,1.5811,1.6236,1.7103,1.7306,1.7306,1.7306,1.7239,1.7145,1.7011,1.6814,1.6536,1.6199,1.5998,1.5722,1.5314,1.5168,1.4834,1.4126,1.3924,1.3464,1.2754,1.1792,1.0886,1.0208,0.9766,0.9506,0.9432,0.9309,0.929,0.9106,0.9035,0.8956,0.8857,0.885,0.8692,0.8606,0.8507,0.8427,0.8162,0.7934,0.7445,0.6776,0.6295,0.5777,0.5409,0.5082,0.4769,0.4327,0.386,0.3346,0.2739,0.2323,0.1954,0.1404,0.0866,0.0285,-0.0309,-0.0977,-0.1648,2.2197,2.2197,2.2197,2.2197,2.2197,2.2197,2.2197,2.2197,2.2197,2.2197,2.2197,2.2197,2.2197,2.2197,2.2197,2.2197,2.2197,2.2197,2.1698,2.0794,2.013,1.9495,1.885,1.8398,1.8084,1.7865,1.7755,1.7826,1.803,1.8057,1.815,1.8329,1.8116,1.7909,1.7764,1.7315,1.6969,1.6647,1.5987,1.5648,1.5618,1.521,1.4994,1.5074,1.4949,1.48,1.4639,1.4546,1.4443,1.4407,1.4407,1.4407,1.4407,1.4593,1.5006,1.5636,1.6029,1.6432,1.7186,1.7306,1.7306,1.7306,1.7306,1.725,1.7084,1.6858,1.6382,1.606,1.5714,1.5371,1.507,1.5034,1.4716,1.4204,1.4045,1.3596,1.2635,1.1855,1.1202,1.0677,1.0358,1.0172,1.0072,0.9987,0.9935,0.9762,0.9484,0.9439,0.9342,0.9263,0.9099,0.8968,0.8968,0.8765,0.8427,0.8213,0.8042,0.7509,0.6995,0.6439,0.5969,0.5623,0.5326,0.4607,0.407,0.3648,0.3065,0.3025,0.2754,0.2079,0.142,0.0958,0.0447,-0.0168,-0.0839,2.2197,2.2197,2.2197,2.2197,2.2197,2.2197,2.2197,2.2197,2.2197,2.2197,2.2197,2.2197,2.2197,2.2197,2.2197,2.2197,2.2197,2.2185,2.1957,2.1374,2.0768,2.01,1.9341,1.8709,1.834,1.8166,1.8111,1.8263,1.8479,1.8506,1.8667,1.8709,1.8236,1.784,1.7766,1.7412,1.7074,1.6663,1.6405,1.6184,1.6056,1.5613,1.5345,1.5468,1.5244,1.5028,1.48,1.4685,1.4569,1.443,1.4407,1.4407,1.4484,1.4832,1.529,1.5778,1.6225,1.671,1.7175,1.7306,1.7306,1.7306,1.7306,1.7284,1.7108,1.6639,1.6202,1.5908,1.5442,1.5091,1.4914,1.4837,1.4604,1.4296,1.3959,1.331,1.2228,1.2,1.1627,1.1277,1.1209,1.1175,1.1023,1.0931,1.0872,1.0737,1.0295,1.0167,1.0167,0.9969,0.9718,0.9562,0.9451,0.9145,0.8811,0.8427,0.8253,0.7937,0.7507,0.7144,0.6585,0.6256,0.5574,0.4895,0.4417,0.394,0.3576,0.35,0.3301,0.2731,0.2189,0.1734,0.1202,0.0615,-0.0056,2.2197,2.2197,2.2197,2.2197,2.2197,2.2197,2.2197,2.2197,2.2197,2.2197,2.2197,2.2197,2.2197,2.2197,2.2197,2.2197,2.2197,2.2197,2.2161,2.1861,2.1007,2.0065,1.929,1.8881,1.8637,1.8464,1.8383,1.8437,1.8587,1.8614,1.8721,1.8946,1.8737,1.8575,1.8443,1.7917,1.7322,1.6748,1.6257,1.5973,1.574,1.5586,1.5525,1.5626,1.548,1.5323,1.5119,1.4926,1.4686,1.443,1.4407,1.4407,1.4473,1.4886,1.5375,1.5822,1.6269,1.6754,1.7158,1.7306,1.7306,1.7306,1.7273,1.7114,1.6743,1.6461,1.595,1.5425,1.4935,1.4651,1.4258,1.4146,1.4004,1.3824,1.3738,1.3466,1.2969,1.2537,1.2047,1.1484,1.1309,1.1301,1.1309,1.1276,1.1183,1.1074,1.0889,1.0695,1.0796,1.0601,1.0303,1.0064,0.9858,0.9529,0.9171,0.8758,0.8454,0.8228,0.7994,0.7839,0.735,0.6966,0.6009,0.5007,0.4939,0.4581,0.4082,0.3783,0.3491,0.3267,0.285,0.2347,0.19,0.137,0.0672,2.2653,2.2494,2.2494,2.2482,2.2463,2.229,2.2197,2.2197,2.2197,2.2197,2.2197,2.2197,2.2197,2.2197,2.2197,2.2197,2.2197,2.2197,2.2185,2.2017,2.1103,2.0045,1.92,1.8893,1.8839,1.8774,1.8679,1.8706,1.8747,1.8747,1.8854,1.896,1.9013,1.8946,1.883,1.846,1.7932,1.7399,1.6783,1.6279,1.6005,1.5732,1.5659,1.5703,1.5637,1.5503,1.5278,1.5085,1.4823,1.4626,1.4676,1.4761,1.4744,1.5345,1.5789,1.6116,1.6552,1.6994,1.7219,1.7306,1.7306,1.7262,1.7153,1.683,1.6476,1.6114,1.5445,1.5027,1.4674,1.4321,1.401,1.3844,1.375,1.3641,1.361,1.3522,1.3358,1.3018,1.2647,1.2236,1.2049,1.1968,1.1918,1.1893,1.1859,1.1767,1.155,1.1509,1.1509,1.1208,1.0931,1.0736,1.0507,1.0226,0.9788,0.9354,0.9047,0.8765,0.8374,0.8268,0.7922,0.7456,0.6578,0.5706,0.5492,0.5167,0.4618,0.4181,0.3932,0.368,0.332,0.2933,0.2458,0.2068,0.1371,2.3352,2.2987,2.2987,2.2957,2.2909,2.2525,2.2402,2.2278,2.2309,2.2247,2.2197,2.2197,2.2197,2.2197,2.2197,2.2197,2.2197,2.2197,2.2029,2.1656,2.0887,1.9913,1.9083,1.8987,1.8972,1.896,1.8987,1.8987,1.896,1.8987,1.8999,1.9013,1.9013,1.8927,1.884,1.8759,1.8558,1.7973,1.7527,1.6967,1.6536,1.6117,1.5914,1.577,1.5726,1.5604,1.5448,1.5313,1.5177,1.4913,1.5174,1.5242,1.5285,1.6044,1.64,1.6546,1.6896,1.7262,1.7306,1.7306,1.7251,1.7142,1.6754,1.6426,1.6197,1.5625,1.5121,1.4806,1.4437,1.4215,1.4044,1.3892,1.3773,1.3668,1.3644,1.3539,1.3467,1.342,1.3334,1.3172,1.3099,1.3027,1.2964,1.2915,1.2856,1.2387,1.2197,1.2123,1.2082,1.1909,1.1685,1.1519,1.1284,1.1032,1.0515,0.9943,0.9692,0.9413,0.889,0.858,0.8209,0.7717,0.7069,0.6524,0.6285,0.5769,0.5058,0.4701,0.4508,0.4122,0.3766,0.3378,0.2933,0.2597,0.2041,2.3547,2.3471,2.3429,2.3471,2.3429,2.3352,2.3053,2.2757,2.2726,2.2574,2.2278,2.2228,2.2216,2.2197,2.2228,2.2197,2.2185,2.2156,2.1807,2.088,2.0314,1.9676,1.911,1.9013,1.9013,1.9013,1.9013,1.9013,1.9013,1.9013,1.9013,1.9013,1.8989,1.8782,1.8494,1.8768,1.848,1.782,1.782,1.7532,1.6857,1.6556,1.6254,1.5941,1.5848,1.5804,1.5799,1.5971,1.6056,1.5916,1.5711,1.5751,1.5908,1.6297,1.6573,1.6677,1.7033,1.7306,1.7306,1.7262,1.7103,1.6754,1.6514,1.6182,1.5454,1.5269,1.4897,1.4588,1.4404,1.428,1.414,1.3939,1.381,1.3739,1.3668,1.3586,1.3539,1.3467,1.3396,1.331,1.321,1.3075,1.3051,1.2964,1.2939,1.2881,1.2798,1.27,1.2578,1.248,1.2283,1.2051,1.1744,1.146,1.1183,1.0584,1.0174,0.9891,0.9406,0.8912,0.8547,0.8179,0.7594,0.7271,0.7079,0.6421,0.5683,0.55,0.5363,0.4814,0.4267,0.3879,0.3489,0.3128,0.2681,2.4118,2.393,2.3943,2.393,2.3901,2.3695,2.3442,2.3245,2.3215,2.3095,2.2927,2.2854,2.2744,2.2525,2.2525,2.2432,2.2206,2.2128,2.18,2.114,2.0493,1.9829,1.9322,1.9093,1.9013,1.9013,1.9013,1.9013,1.9013,1.904,1.9013,1.9013,1.9013,1.871,1.8362,1.8722,1.8683,1.83,1.8288,1.8118,1.7596,1.721,1.6851,1.643,1.6343,1.6414,1.6725,1.6664,1.6964,1.7159,1.7036,1.6733,1.6632,1.6895,1.702,1.7027,1.7109,1.7306,1.7295,1.7049,1.6798,1.6487,1.6153,1.5651,1.5159,1.4919,1.4668,1.4484,1.4407,1.435,1.4199,1.4106,1.3941,1.381,1.3729,1.3658,1.3621,1.3549,1.3467,1.3409,1.331,1.3224,1.3162,1.3041,1.3012,1.3002,1.2905,1.2798,1.2783,1.2661,1.2578,1.2382,1.2101,1.1868,1.1694,1.1225,1.0635,1.0303,0.9909,0.9409,0.8971,0.8596,0.819,0.7848,0.7458,0.7128,0.6534,0.6376,0.6036,0.5519,0.4972,0.4484,0.4067,0.3751,0.3199,2.4765,2.4394,2.4408,2.4408,2.435,2.4002,2.3813,2.3695,2.3695,2.3607,2.3577,2.3607,2.3275,2.3078,2.303,2.2732,2.2352,2.2029,2.1794,2.1422,2.0638,2.0093,1.9679,1.946,1.9303,1.9172,1.9146,1.9146,1.9251,1.9198,1.9277,1.9146,1.9119,1.8718,1.8339,1.8676,1.871,1.8302,1.8536,1.8509,1.8164,1.776,1.7326,1.6905,1.6803,1.6944,1.7222,1.7385,1.7616,1.8375,1.8499,1.8108,1.7653,1.7619,1.7662,1.7513,1.7357,1.7254,1.7106,1.6799,1.6504,1.6359,1.564,1.52,1.5039,1.4786,1.4599,1.4522,1.4489,1.435,1.4246,1.4316,1.4222,1.4059,1.3965,1.3847,1.3752,1.3681,1.3539,1.3457,1.3396,1.331,1.3238,1.3166,1.3138,1.3075,1.2978,1.2895,1.2881,1.2832,1.2735,1.2652,1.2372,1.2175,1.2002,1.1819,1.1225,1.0914,1.0525,1.0062,0.9552,0.917,0.8772,0.8106,0.7691,0.7412,0.7142,0.6797,0.6456,0.6076,0.5561,0.4923,0.4579,0.4351,0.3789,2.4948,2.4878,2.4892,2.4878,2.485,2.4806,2.4494,2.4234,2.4176,2.3959,2.3666,2.3607,2.3636,2.3488,2.3501,2.3183,2.2727,2.2267,2.1752,2.135,2.0641,2.0182,2.0118,1.9939,1.9914,1.9888,1.9734,1.9682,1.9875,2.0003,1.9734,1.9552,1.9512,1.894,1.8297,1.8387,1.8558,1.8085,1.8409,1.8478,1.8045,1.7736,1.7475,1.7054,1.7023,1.7106,1.7312,1.784,1.8145,1.7898,1.8672,1.863,1.8203,1.8201,1.8012,1.7593,1.7421,1.7278,1.6965,1.6678,1.616,1.5645,1.5306,1.5163,1.5059,1.4844,1.4823,1.4834,1.4674,1.4443,1.4373,1.4663,1.4754,1.4674,1.4514,1.4399,1.4283,1.4014,1.3776,1.3789,1.3634,1.3396,1.3348,1.3286,1.3214,1.3162,1.3075,1.3002,1.2929,1.2881,1.2808,1.2759,1.2652,1.2455,1.2283,1.2126,1.181,1.1685,1.1359,1.0923,1.0417,0.9886,0.934,0.8618,0.8119,0.7847,0.7542,0.7195,0.6704,0.6222,0.5761,0.5309,0.5008,0.4718,0.4476,2.5005,2.5005,2.5005,2.5005,2.5005,2.4977,2.4892,2.4666,2.465,2.4523,2.4379,2.4321,2.4176,2.4018,2.3972,2.3777,2.3371,2.2563,2.219,2.1891,2.108,2.0523,2.0472,2.0321,2.0372,2.0384,2.0308,2.0169,2.0195,2.0182,2.0093,1.9965,1.9926,1.9397,1.8746,1.8909,1.8744,1.8333,1.8533,1.8634,1.8184,1.795,1.7615,1.7491,1.7425,1.7565,1.7927,1.8017,1.838,1.8462,1.8841,1.8729,1.849,1.838,1.8329,1.7736,1.7544,1.7388,1.7037,1.6822,1.6384,1.6019,1.5636,1.5487,1.5437,1.5345,1.5266,1.5345,1.5333,1.513,1.5153,1.5254,1.5299,1.5265,1.5141,1.505,1.4915,1.4629,1.4479,1.4281,1.3931,1.3681,1.3491,1.3406,1.331,1.3224,1.3196,1.3123,1.3065,1.3017,1.2992,1.2808,1.2735,1.2578,1.2406,1.2274,1.215,1.2101,1.195,1.1529,1.0979,1.034,0.9729,0.9074,0.8661,0.8194,0.7799,0.7382,0.6884,0.6428,0.6103,0.5775,0.5399,0.5086,0.4857,2.5061,2.5033,2.4991,2.5005,2.5005,2.5005,2.5005,2.5005,2.4977,2.4948,2.5005,2.4948,2.4736,2.4507,2.4423,2.4357,2.4184,2.3068,2.2791,2.2493,2.1549,2.0932,2.0809,2.0684,2.0648,2.0883,2.0883,2.0747,2.0598,2.0548,2.0422,2.0346,2.0321,1.9988,1.9478,1.9253,1.9203,1.897,1.8886,1.8786,1.8538,1.8194,1.7902,1.7902,1.7902,1.8079,1.8328,1.8425,1.8455,1.8632,1.8782,1.8702,1.8283,1.844,1.8362,1.7898,1.7697,1.7534,1.7258,1.6968,1.6572,1.6249,1.6017,1.5915,1.5932,1.591,1.5876,1.5866,1.5766,1.57,1.5656,1.5854,1.5854,1.582,1.5776,1.571,1.5555,1.5332,1.5119,1.4801,1.4294,1.4048,1.3941,1.4012,1.4001,1.3823,1.3763,1.3573,1.3491,1.331,1.32,1.2954,1.2783,1.2627,1.248,1.2357,1.2258,1.2175,1.2073,1.1778,1.122,1.0617,1.0035,0.9467,0.8791,0.831,0.793,0.7608,0.718,0.6818,0.6548,0.6229,0.5834,0.5549,0.5293,2.5341,2.516,2.5061,2.5005,2.5005,2.5005,2.5005,2.5005,2.5005,2.5005,2.5005,2.5005,2.4948,2.4892,2.4863,2.4595,2.4067,2.342,2.288,2.2525,2.1718,2.1264,2.1288,2.1302,2.1142,2.124,2.1264,2.1326,2.1155,2.1118,2.1019,2.0797,2.067,2.0348,1.9749,1.9583,1.8975,1.8534,1.8372,1.8241,1.8085,1.7957,1.7916,1.7902,1.7916,1.7957,1.816,1.8341,1.8482,1.8145,1.8557,1.8484,1.8058,1.795,1.7991,1.7874,1.7743,1.7513,1.7183,1.6986,1.675,1.6467,1.6166,1.6163,1.6315,1.6402,1.6303,1.5988,1.5932,1.5942,1.6051,1.6216,1.6324,1.6346,1.629,1.6235,1.6148,1.5986,1.5766,1.5645,1.5231,1.4812,1.4547,1.4686,1.4754,1.4524,1.4316,1.4118,1.3944,1.3766,1.3552,1.3358,1.32,1.3045,1.2813,1.2642,1.2421,1.2323,1.2172,1.1984,1.1456,1.0896,1.047,0.9877,0.9134,0.8565,0.8261,0.7914,0.7514,0.7156,0.6826,0.6559,0.627,0.6007,0.5717,2.5702,2.5341,2.5174,2.5048,2.5005,2.5005,2.5005,2.5005,2.5005,2.5005,2.5005,2.5005,2.5005,2.5005,2.5005,2.4883,2.4435,2.3635,2.3093,2.2578,2.1887,2.1399,2.1385,2.1385,2.1385,2.1385,2.1385,2.1361,2.1385,2.1385,2.1264,2.1166,2.1104,2.1013,2.0347,2.0157,1.9681,1.9105,1.8484,1.8015,1.793,1.7902,1.7902,1.7902,1.7902,1.7902,1.7984,1.8099,1.8187,1.7943,1.8201,1.8187,1.797,1.7916,1.7916,1.7882,1.7855,1.7685,1.7453,1.7323,1.711,1.6964,1.6795,1.6842,1.6905,1.6871,1.6829,1.6714,1.6637,1.6582,1.6561,1.6765,1.6829,1.685,1.6765,1.6752,1.6689,1.6561,1.6389,1.6293,1.6163,1.5712,1.5288,1.5187,1.5187,1.496,1.4789,1.4674,1.4502,1.4306,1.4084,1.386,1.3729,1.361,1.3324,1.3069,1.2754,1.2584,1.2348,1.2113,1.1676,1.1192,1.0821,1.0285,0.9593,0.9078,0.8683,0.8209,0.7781,0.7418,0.7076,0.692,0.6728,0.6322,0.595,2.6096,2.5702,2.5425,2.5286,2.523,2.5202,2.5202,2.523,2.5202,2.5146,2.509,2.5033,2.5005,2.5005,2.4991,2.4883,2.4652,2.3676,2.3174,2.2646,2.2022,2.1453,2.1385,2.1385,2.1385,2.1385,2.1385,2.1385,2.1385,2.1385,2.1385,2.1385,2.1337,2.1323,2.1212,2.0705,2.0079,1.9263,1.858,1.814,1.7943,1.7902,1.7902,1.7902,1.7902,1.7902,1.7902,1.7929,1.7916,1.7916,1.7929,1.7957,1.7902,1.7902,1.7902,1.7902,1.7882,1.7842,1.774,1.7679,1.7679,1.7584,1.7468,1.7274,1.7212,1.724,1.7199,1.7094,1.7115,1.7136,1.7199,1.7178,1.7136,1.7136,1.7136,1.7178,1.7178,1.6947,1.6786,1.668,1.6573,1.6573,1.6173,1.5834,1.5613,1.539,1.5277,1.5198,1.5028,1.4812,1.4514,1.4271,1.4142,1.4025,1.3836,1.3529,1.318,1.2939,1.2706,1.255,1.2306,1.1804,1.1306,1.0723,1.0139,0.9624,0.9253,0.8648,0.8072,0.7749,0.7497,0.7417,0.7206,0.6738,0.6284,2.6404,2.6217,2.5825,2.5729,2.5811,2.5702,2.5702,2.5729,2.5674,2.555,2.5369,2.5188,2.5061,2.5005,2.4979,2.4748,2.4177,2.3499,2.2984,2.2388,2.1751,2.1494,2.1426,2.1385,2.1385,2.1385,2.1385,2.1385,2.1385,2.1385,2.1385,2.1385,2.1385,2.1385,2.1209,2.0779,2.0084,1.9383,1.8793,1.8391,1.8106,1.7943,1.7902,1.7902,1.7902,1.7902,1.7902,1.7902,1.7902,1.7902,1.7902,1.7902,1.7902,1.7902,1.7902,1.7902,1.7902,1.7882,1.7862,1.7842,1.7801,1.7686,1.7584,1.7481,1.7378,1.737,1.7329,1.724,1.7261,1.724,1.722,1.7212,1.7233,1.7212,1.7212,1.7212,1.7212,1.7191,1.7052,1.701,1.6947,1.6884,1.682,1.6423,1.6154,1.5935,1.5901,1.5822,1.55,1.5265,1.4892,1.4652,1.4502,1.4398,1.4317,1.4084,1.3884,1.3681,1.3443,1.3396,1.3335,1.2715,1.2018,1.1552,1.1038,1.042,0.9843,0.9444,0.8934,0.8269,0.7913,0.7815,0.7546,0.7089,0.6683,2.6659,2.6592,2.6312,2.6069,2.5893,2.5839,2.5839,2.5893,2.5839,2.5688,2.5494,2.5453,2.5314,2.5202,2.5216,2.4915,2.4259,2.392,2.316,2.251,2.2036,2.1762,2.1562,2.1412,2.1385,2.1385,2.1385,2.1385,2.1385,2.1385,2.1385,2.1385,2.1385,2.1385,2.1196,2.0847,2.0261,1.9795,1.9179,1.8636,1.8493,1.8052,1.7902,1.7902,1.7902,1.7902,1.7902,1.7902,1.7902,1.7902,1.7902,1.7902,1.7902,1.7902,1.7902,1.7902,1.7902,1.7902,1.7902,1.7902,1.7842,1.7754,1.7645,1.7624,1.7587,1.75,1.7461,1.7406,1.7391,1.7431,1.7329,1.7329,1.7295,1.7253,1.7212,1.7212,1.7212,1.7212,1.7212,1.7094,1.7128,1.7094,1.7052,1.6968,1.6727,1.6491,1.6479,1.6392,1.602,1.5766,1.5466,1.5265,1.5141,1.4994,1.4915,1.4789,1.464,1.4408,1.4176,1.4106,1.4012,1.3566,1.2926,1.2454,1.1904,1.1236,1.0702,1.0356,0.9722,0.8841,0.838,0.8175,0.7817,0.7426,0.7105,2.6794,2.6779,2.6645,2.6433,2.6165,2.6096,2.6111,2.6179,2.6096,2.5921,2.5702,2.5743,2.5647,2.5522,2.5508,2.5037,2.4391,2.3968,2.3329,2.2676,2.2133,2.1923,2.1694,2.148,2.1385,2.1385,2.1385,2.1385,2.1385,2.1385,2.1385,2.1385,2.1385,2.1385,2.129,2.1019,2.0694,2.0288,1.9659,1.8921,1.8779,1.8215,1.7916,1.7902,1.7902,1.7902,1.7902,1.7902,1.7902,1.7902,1.7902,1.7902,1.7902,1.7902,1.7902,1.7902,1.7902,1.7902,1.7902,1.7902,1.7957,1.8078,1.8104,1.811,1.808,1.8091,1.8265,1.8121,1.7975,1.7741,1.7644,1.757,1.7397,1.7308,1.7233,1.7212,1.7212,1.7212,1.7212,1.7191,1.7212,1.7191,1.7136,1.7052,1.6876,1.6663,1.6599,1.6534,1.6349,1.6185,1.6141,1.5988,1.5901,1.5746,1.5568,1.539,1.5232,1.5108,1.4869,1.4709,1.4524,1.4129,1.3815,1.3405,1.2804,1.2063,1.1448,1.0965,1.0137,0.9223,0.884,0.8459,0.8196,0.7814,0.7593,2.682,2.6794,2.6779,2.6753,2.6686,2.6566,2.6551,2.6633,2.6498,2.6285,2.6056,2.5975,2.5921,2.5866,2.5866,2.5264,2.4413,2.4058,2.3541,2.2862,2.2205,2.201,2.1896,2.1749,2.1385,2.1385,2.1385,2.1385,2.1385,2.1385,2.1385,2.1385,2.1385,2.1385,2.1385,2.1372,2.106,2.0504,1.9917,1.9369,1.8771,1.8215,1.7957,1.7902,1.7902,1.7902,1.7902,1.7902,1.7902,1.7902,1.7902,1.7902,1.7902,1.7902,1.7902,1.7902,1.7902,1.7902,1.7902,1.7902,1.8126,1.856,1.8607,1.8849,1.9243,1.9333,1.9177,1.8883,1.862,1.8372,1.8134,1.7818,1.7552,1.737,1.7295,1.7253,1.7253,1.7212,1.7212,1.7212,1.7212,1.7212,1.7157,1.7073,1.6918,1.6791,1.6718,1.6633,1.6534,1.6457,1.6414,1.6349,1.6262,1.6132,1.5957,1.5923,1.5824,1.5714,1.5513,1.5289,1.5074,1.4789,1.4504,1.4277,1.3526,1.2645,1.2044,1.1495,1.0647,0.9837,0.9107,0.8683,0.8459,0.8234,0.7987,2.7041,2.6794,2.6794,2.6794,2.6779,2.6753,2.6738,2.6753,2.6592,2.6404,2.6285,2.627,2.6177,2.6111,2.6067,2.5655,2.4899,2.4471,2.4022,2.3335,2.2495,2.2281,2.2113,2.1762,2.1423,2.1385,2.1385,2.1385,2.1385,2.1385,2.1385,2.1385,2.1385,2.1385,2.1385,2.1345,2.1101,2.0518,1.9971,1.9423,1.8799,1.8255,1.7902,1.7902,1.7902,1.7902,1.7902,1.7902,1.7922,1.7922,1.7942,1.7942,1.7942,1.7942,1.7922,1.7922,1.7902,1.7902,1.7902,1.7943,1.8174,1.8711,1.9165,1.9393,1.9628,1.9642,1.9584,1.9467,1.9054,1.875,1.8443,1.7959,1.7643,1.7494,1.7399,1.737,1.7342,1.7253,1.7212,1.7212,1.7212,1.7212,1.7178,1.7261,1.7157,1.701,1.6939,1.6761,1.6641,1.6543,1.6479,1.6436,1.6392,1.6328,1.6262,1.6154,1.6044,1.5869,1.577,1.5659,1.5491,1.5277,1.5164,1.4949,1.406,1.3203,1.2498,1.183,1.1213,1.0495,0.9771,0.9119,0.8797,0.8582,0.8345,2.7346,2.7015,2.7015,2.691,2.6806,2.6794,2.6794,2.6779,2.6645,2.6551,2.6498,2.6551,2.6513,2.6406,2.639,2.61,2.5412,2.4906,2.4531,2.3825,2.2856,2.2517,2.2218,2.1809,2.1488,2.141,2.1385,2.1385,2.1385,2.1385,2.1385,2.1385,2.1385,2.1385,2.1385,2.1331,2.1236,2.0708,2.0202,1.9573,1.9002,1.8473,1.7916,1.7902,1.7902,1.7902,1.7902,1.7922,1.7929,1.7983,1.8023,1.8043,1.8083,1.8103,1.8083,1.8049,1.7969,1.7949,1.7922,1.8527,1.8889,1.941,1.9628,1.9876,2.008,2.0166,2.0044,1.9827,1.9369,1.9144,1.8876,1.8334,1.8003,1.7846,1.7637,1.7589,1.7481,1.7406,1.7365,1.7344,1.7357,1.7316,1.7303,1.7385,1.7447,1.7303,1.7157,1.6989,1.6791,1.6641,1.6543,1.65,1.6457,1.6414,1.6349,1.6284,1.6154,1.6022,1.5935,1.5859,1.577,1.5558,1.5592,1.5452,1.4435,1.3512,1.2792,1.2122,1.1476,1.0954,1.0449,0.9813,0.9239,0.8978,0.8805,2.7705,2.7437,2.7401,2.717,2.6858,2.6747,2.6721,2.6779,2.6794,2.6779,2.6779,2.6753,2.6727,2.6753,2.6779,2.6434,2.576,2.507,2.4705,2.4017,2.2991,2.2717,2.2359,2.1966,2.1609,2.1434,2.1385,2.1385,2.1385,2.1385,2.1385,2.1385,2.1385,2.1385,2.1385,2.1444,2.1311,2.0853,2.0234,1.9671,1.9216,1.8528,1.8119,1.7989,1.7969,1.7969,1.7969,1.7949,1.8063,1.8143,1.8228,1.8347,1.8445,1.8503,1.8431,1.8324,1.8206,1.8141,1.8253,1.9024,1.9585,1.9922,1.9945,2.0443,2.0729,2.0625,2.0289,2.0075,1.9715,1.9639,1.9481,1.9026,1.8562,1.8275,1.797,1.7848,1.7713,1.7659,1.7598,1.7591,1.7604,1.7604,1.7591,1.7639,1.7841,1.7787,1.7666,1.7496,1.7227,1.674,1.6641,1.6565,1.6522,1.6491,1.6414,1.6392,1.6284,1.6141,1.6022,1.5935,1.5859,1.5836,1.5792,1.5485,1.4621,1.3741,1.2724,1.2108,1.168,1.1239,1.0891,1.0419,0.9804,0.9578,0.9408,2.81,2.773,2.7514,2.7325,2.7108,2.6426,2.6355,2.6777,2.6794,2.6779,2.6794,2.6794,2.6794,2.6794,2.6779,2.666,2.6115,2.5449,2.5095,2.4312,2.3193,2.2831,2.2474,2.2111,2.1743,2.153,2.1458,2.1434,2.141,2.141,2.141,2.1385,2.141,2.141,2.1482,2.1578,2.1298,2.0916,2.0302,1.9853,1.9395,1.872,1.8381,1.8228,1.8169,1.8175,1.822,1.8175,1.8288,1.8406,1.8597,1.8736,1.8755,1.893,1.9029,1.901,1.893,1.8865,1.8956,1.9541,2.0075,2.0266,2.0363,2.0819,2.1074,2.0812,2.0296,2.0067,1.9854,1.971,1.9614,1.9307,1.9055,1.8845,1.8567,1.8361,1.8252,1.8147,1.8088,1.8108,1.8121,1.8036,1.8002,1.8141,1.8299,1.8285,1.8226,1.8028,1.7747,1.7269,1.6968,1.6892,1.6808,1.6829,1.6629,1.6543,1.6414,1.6272,1.6207,1.612,1.6066,1.6044,1.6001,1.5559,1.4811,1.3643,1.2353,1.1954,1.1792,1.163,1.1309,1.0852,1.0438,1.0196,0.9932,2.7945,2.7376,2.7434,2.7479,2.7425,2.6634,2.6562,2.6923,2.6596,2.6504,2.6779,2.6794,2.6794,2.6794,2.6794,2.6736,2.662,2.5412,2.4889,2.4595,2.3364,2.2862,2.2479,2.2186,2.1815,2.1626,2.1578,2.1592,2.1554,2.1602,2.164,2.1554,2.1506,2.152,2.1592,2.1684,2.1618,2.1227,2.0756,2.0184,1.9635,1.9117,1.8793,1.8595,1.8523,1.8558,1.8645,1.8616,1.8745,1.8931,1.9169,1.9262,1.9299,1.9464,1.9467,1.9427,1.9336,1.9229,1.9257,1.9691,2.0079,2.0367,2.0681,2.086,2.0816,2.0538,2.0216,1.9943,1.9786,1.964,1.9598,1.9539,1.9522,1.945,1.9214,1.8974,1.8831,1.8731,1.8712,1.8717,1.864,1.8553,1.8572,1.8688,1.8745,1.8726,1.8712,1.8635,1.8364,1.7982,1.7666,1.7497,1.7366,1.7256,1.7026,1.6892,1.685,1.6752,1.6591,1.6505,1.6367,1.6309,1.6302,1.5785,1.5073,1.3985,1.3004,1.2278,1.1957,1.1851,1.1745,1.1354,1.1004,1.0794,1.0525,2.7485,2.6751,2.7194,2.7564,2.7719,2.6961,2.6844,2.7155,2.6178,2.6076,2.6614,2.673,2.6654,2.6399,2.6329,2.6413,2.6025,2.5129,2.4568,2.4747,2.3461,2.2744,2.2493,2.2184,2.202,2.1817,2.1746,2.1817,2.1878,2.1902,2.1902,2.1831,2.1736,2.1736,2.1841,2.1935,2.1946,2.1945,2.1651,2.1224,2.0465,1.9843,1.9342,1.909,1.904,1.9062,1.9233,1.9343,1.9449,1.9606,1.9764,1.9833,1.9942,1.9977,1.9892,1.9821,1.9785,1.9732,1.9869,2.0314,2.0617,2.0813,2.0881,2.1201,2.1261,2.0431,1.9981,1.9794,1.9637,1.9711,1.9705,1.9832,1.9871,1.982,1.9638,1.9505,1.9424,1.9314,1.9258,1.9244,1.9184,1.9087,1.9087,1.918,1.9217,1.918,1.9143,1.9143,1.8974,1.8616,1.8291,1.806,1.7821,1.7673,1.7673,1.753,1.7421,1.7297,1.7118,1.6993,1.6942,1.6789,1.6653,1.6176,1.5676,1.4904,1.4031,1.3265,1.2585,1.2318,1.215,1.1837,1.1578,1.14,1.108,2.7498,2.7639,2.6989,2.7079,2.7349,2.5994,2.5918,2.6589,2.5568,2.5518,2.6017,2.6285,2.6094,2.5552,2.5527,2.5542,2.5226,2.4747,2.4225,2.3978,2.3227,2.2818,2.2675,2.2477,2.2324,2.2231,2.2147,2.21,2.2161,2.2161,2.2161,2.2114,2.2044,2.2044,2.21,2.2217,2.2379,2.2549,2.2597,2.2178,2.1456,2.0698,2.0137,1.9925,1.9863,1.9718,1.9786,1.9723,1.9795,1.9902,2.0118,2.0325,2.0578,2.0545,2.0545,2.0512,2.0359,2.0291,2.0516,2.0977,2.1446,2.175,2.196,2.226,2.191,2.0568,1.9808,1.9712,1.9645,1.9771,1.9882,2.0083,2.021,2.0134,2.0058,2.0015,1.9957,1.9887,1.9782,1.9729,1.9657,1.9621,1.9617,1.9636,1.9672,1.9672,1.9654,1.9617,1.953,1.9258,1.8827,1.853,1.8198,1.806,1.8139,1.8133,1.8028,1.7848,1.7632,1.7564,1.7496,1.7436,1.7316,1.6877,1.6346,1.5607,1.4883,1.4145,1.3536,1.3013,1.2573,1.2258,1.2215,1.2095,1.1715,2.6941,2.6651,2.6099,2.6404,2.6992,2.5939,2.5812,2.6329,2.6037,2.5674,2.5458,2.5705,2.5603,2.5029,2.4975,2.4805,2.4675,2.4181,2.4007,2.3731,2.325,2.2958,2.2781,2.2675,2.25,2.2394,2.2417,2.2394,2.2463,2.2491,2.2468,2.237,2.2347,2.2324,2.2356,2.2532,2.276,2.2971,2.329,2.3068,2.2483,2.1962,2.1476,2.1254,2.1083,2.0864,2.0729,2.067,2.0518,2.0448,2.0478,2.0579,2.0728,2.0745,2.0778,2.0761,2.0712,2.076,2.1073,2.1541,2.2097,2.2254,2.2514,2.2593,2.2437,2.1253,2.0821,2.0652,2.0137,2.0162,2.015,2.029,2.0323,2.0277,2.0227,2.0163,2.0148,2.0115,2.0063,2.0045,1.9975,1.9907,1.9887,1.9848,1.9884,1.9866,1.9884,1.983,1.978,1.9744,1.9365,1.9053,1.8736,1.8717,1.8903,1.8808,1.8616,1.8403,1.8187,1.8068,1.8008,1.806,1.7981,1.7633,1.7101,1.6346,1.5623,1.4938,1.4087,1.3407,1.3,1.2679,1.272,1.2774,1.2401,2.6167,2.5175,2.5065,2.5776,2.6751,2.6182,2.5994,2.6287,2.6596,2.6065,2.5087,2.5205,2.5269,2.5041,2.4866,2.4699,2.437,2.3804,2.3702,2.3557,2.3142,2.2938,2.2826,2.2721,2.2615,2.2592,2.2592,2.2706,2.2797,2.2766,2.2698,2.2601,2.2555,2.2523,2.2601,2.2723,2.2949,2.3268,2.3551,2.3782,2.3637,2.3432,2.285,2.262,2.2543,2.2379,2.213,2.1805,2.1488,2.1156,2.0823,2.0761,2.0778,2.081,2.081,2.081,2.081,2.0872,2.114,2.1687,2.1998,2.2232,2.2582,2.2814,2.2751,2.2389,2.1983,2.1461,2.0938,2.0483,2.0502,2.0409,2.0407,2.0388,2.0354,2.0304,2.0304,2.0287,2.0287,2.027,2.0202,2.015,2.0098,2.0061,2.0041,2.0008,1.9973,1.9935,1.9881,1.983,1.9636,1.9493,1.9347,1.9417,1.9523,1.9339,1.903,1.8969,1.8745,1.8597,1.8519,1.8558,1.8563,1.8482,1.7899,1.7199,1.6432,1.573,1.484,1.4118,1.3489,1.3254,1.3473,1.3438,1.3119,2.5571,2.5756,2.5223,2.5476,2.604,2.5492,2.523,2.53,2.5388,2.5186,2.5014,2.4678,2.4389,2.3807,2.3726,2.3672,2.3641,2.3275,2.3142,2.2975,2.296,2.2917,2.288,2.2812,2.2834,2.2797,2.2797,2.2843,2.2888,2.2865,2.2843,2.282,2.282,2.282,2.2873,2.3038,2.329,2.3595,2.3973,2.4255,2.4133,2.3844,2.3412,2.3149,2.2945,2.282,2.258,2.2171,2.1869,2.152,2.111,2.0873,2.081,2.081,2.081,2.081,2.081,2.111,2.144,2.2086,2.2463,2.3188,2.367,2.4178,2.3957,2.3497,2.3025,2.2456,2.1851,2.1011,2.0807,2.0539,2.0475,2.0423,2.0371,2.0321,2.0304,2.0304,2.0287,2.0287,2.027,2.0252,2.0235,2.02,2.0166,2.0148,2.008,2.0043,1.9973,1.9919,1.9851,1.983,1.9777,1.9741,1.9669,1.9593,1.9395,1.9358,1.9265,1.9045,1.895,1.9007,1.8993,1.8865,1.8684,1.8144,1.7366,1.648,1.6115,1.5386,1.4312,1.3873,1.4122,1.4037,1.3634]}]]